<?xml version="1.0" encoding="UTF-8" standalone="no" ?>
<gpx xmlns="http://www.topografix.com/GPX/1/1" xmlns:xsi="http://www.w3.org/2001/XMLSchema-instance" xsi:schemaLocation="http://www.topografix.com/GPX/1/1 http://www.topografix.com/GPX/1/1/gpx.xsd" version="1.1" creator="VisuGPX - https://www.visugpx.com">
  <metadata>
    <name>Fuont Pentch XMB de Levens 2013</name>
    <desc><![CDATA[XMB tres technique avec des longs portages endurant.
Enjoy !]]></desc>
  </metadata>
  <trk>
    <name><![CDATA[Fuont Pentch XMB de Levens 2013]]></name>
    <trkseg>
      <trkpt lat="43.86098" lon="7.23043">
        <ele>523.09</ele>
        <time>2013-03-24T08:19:16Z</time>
      </trkpt>
      <trkpt lat="43.86093" lon="7.23042">
        <ele>521.65</ele>
        <time>2013-03-24T08:19:31Z</time>
      </trkpt>
      <trkpt lat="43.86093" lon="7.23042">
        <ele>523.09</ele>
        <time>2013-03-24T08:19:37Z</time>
      </trkpt>
      <trkpt lat="43.86076" lon="7.2303">
        <ele>522.61</ele>
        <time>2013-03-24T08:19:47Z</time>
      </trkpt>
      <trkpt lat="43.86077" lon="7.22983">
        <ele>519.73</ele>
        <time>2013-03-24T08:19:54Z</time>
      </trkpt>
      <trkpt lat="43.86069" lon="7.22923">
        <ele>518.77</ele>
        <time>2013-03-24T08:20:02Z</time>
      </trkpt>
      <trkpt lat="43.8606" lon="7.22906">
        <ele>517.81</ele>
        <time>2013-03-24T08:20:06Z</time>
      </trkpt>
      <trkpt lat="43.86015" lon="7.22907">
        <ele>520.69</ele>
        <time>2013-03-24T08:20:17Z</time>
      </trkpt>
      <trkpt lat="43.86001" lon="7.22916">
        <ele>521.17</ele>
        <time>2013-03-24T08:20:21Z</time>
      </trkpt>
      <trkpt lat="43.85942" lon="7.22986">
        <ele>517.33</ele>
        <time>2013-03-24T08:20:36Z</time>
      </trkpt>
      <trkpt lat="43.85902" lon="7.23027">
        <ele>517.33</ele>
        <time>2013-03-24T08:20:45Z</time>
      </trkpt>
      <trkpt lat="43.85886" lon="7.23035">
        <ele>516.85</ele>
        <time>2013-03-24T08:20:48Z</time>
      </trkpt>
      <trkpt lat="43.8582" lon="7.23036">
        <ele>520.69</ele>
        <time>2013-03-24T08:21:04Z</time>
      </trkpt>
      <trkpt lat="43.8578" lon="7.23032">
        <ele>524.54</ele>
        <time>2013-03-24T08:21:17Z</time>
      </trkpt>
      <trkpt lat="43.85738" lon="7.2305">
        <ele>524.54</ele>
        <time>2013-03-24T08:21:31Z</time>
      </trkpt>
      <trkpt lat="43.85702" lon="7.23083">
        <ele>523.58</ele>
        <time>2013-03-24T08:21:42Z</time>
      </trkpt>
      <trkpt lat="43.8568" lon="7.2311">
        <ele>522.61</ele>
        <time>2013-03-24T08:21:51Z</time>
      </trkpt>
      <trkpt lat="43.85671" lon="7.23138">
        <ele>524.06</ele>
        <time>2013-03-24T08:22:00Z</time>
      </trkpt>
      <trkpt lat="43.85641" lon="7.23159">
        <ele>525.02</ele>
        <time>2013-03-24T08:22:16Z</time>
      </trkpt>
      <trkpt lat="43.85629" lon="7.23165">
        <ele>526.94</ele>
        <time>2013-03-24T08:22:22Z</time>
      </trkpt>
      <trkpt lat="43.85617" lon="7.23174">
        <ele>529.34</ele>
        <time>2013-03-24T08:22:29Z</time>
      </trkpt>
      <trkpt lat="43.8561" lon="7.23187">
        <ele>529.82</ele>
        <time>2013-03-24T08:22:34Z</time>
      </trkpt>
      <trkpt lat="43.85582" lon="7.23234">
        <ele>531.27</ele>
        <time>2013-03-24T08:22:50Z</time>
      </trkpt>
      <trkpt lat="43.85546" lon="7.23269">
        <ele>531.75</ele>
        <time>2013-03-24T08:23:05Z</time>
      </trkpt>
      <trkpt lat="43.85529" lon="7.23286">
        <ele>532.23</ele>
        <time>2013-03-24T08:23:13Z</time>
      </trkpt>
      <trkpt lat="43.85524" lon="7.23327">
        <ele>534.15</ele>
        <time>2013-03-24T08:23:26Z</time>
      </trkpt>
      <trkpt lat="43.85511" lon="7.23356">
        <ele>537.51</ele>
        <time>2013-03-24T08:23:38Z</time>
      </trkpt>
      <trkpt lat="43.85489" lon="7.23385">
        <ele>540.4</ele>
        <time>2013-03-24T08:23:51Z</time>
      </trkpt>
      <trkpt lat="43.85469" lon="7.23414">
        <ele>542.8</ele>
        <time>2013-03-24T08:24:05Z</time>
      </trkpt>
      <trkpt lat="43.85434" lon="7.23432">
        <ele>545.2</ele>
        <time>2013-03-24T08:24:19Z</time>
      </trkpt>
      <trkpt lat="43.8541" lon="7.2347">
        <ele>545.2</ele>
        <time>2013-03-24T08:24:33Z</time>
      </trkpt>
      <trkpt lat="43.85385" lon="7.23506">
        <ele>547.61</ele>
        <time>2013-03-24T08:24:47Z</time>
      </trkpt>
      <trkpt lat="43.85372" lon="7.23543">
        <ele>548.09</ele>
        <time>2013-03-24T08:24:59Z</time>
      </trkpt>
      <trkpt lat="43.85357" lon="7.23583">
        <ele>549.53</ele>
        <time>2013-03-24T08:25:13Z</time>
      </trkpt>
      <trkpt lat="43.85348" lon="7.23637">
        <ele>555.78</ele>
        <time>2013-03-24T08:25:31Z</time>
      </trkpt>
      <trkpt lat="43.85351" lon="7.2368">
        <ele>559.62</ele>
        <time>2013-03-24T08:25:45Z</time>
      </trkpt>
      <trkpt lat="43.85353" lon="7.23701">
        <ele>562.51</ele>
        <time>2013-03-24T08:25:52Z</time>
      </trkpt>
      <trkpt lat="43.85353" lon="7.23713">
        <ele>563.47</ele>
        <time>2013-03-24T08:25:56Z</time>
      </trkpt>
      <trkpt lat="43.85357" lon="7.23763">
        <ele>566.35</ele>
        <time>2013-03-24T08:26:12Z</time>
      </trkpt>
      <trkpt lat="43.85362" lon="7.23826">
        <ele>568.28</ele>
        <time>2013-03-24T08:26:31Z</time>
      </trkpt>
      <trkpt lat="43.85362" lon="7.23877">
        <ele>570.2</ele>
        <time>2013-03-24T08:26:46Z</time>
      </trkpt>
      <trkpt lat="43.85366" lon="7.23935">
        <ele>571.64</ele>
        <time>2013-03-24T08:27:04Z</time>
      </trkpt>
      <trkpt lat="43.8537" lon="7.23987">
        <ele>573.08</ele>
        <time>2013-03-24T08:27:20Z</time>
      </trkpt>
      <trkpt lat="43.85372" lon="7.23999">
        <ele>574.53</ele>
        <time>2013-03-24T08:27:24Z</time>
      </trkpt>
      <trkpt lat="43.85394" lon="7.24055">
        <ele>579.81</ele>
        <time>2013-03-24T08:27:44Z</time>
      </trkpt>
      <trkpt lat="43.85415" lon="7.24111">
        <ele>581.25</ele>
        <time>2013-03-24T08:28:01Z</time>
      </trkpt>
      <trkpt lat="43.85446" lon="7.24155">
        <ele>580.77</ele>
        <time>2013-03-24T08:28:19Z</time>
      </trkpt>
      <trkpt lat="43.8548" lon="7.24182">
        <ele>581.73</ele>
        <time>2013-03-24T08:28:35Z</time>
      </trkpt>
      <trkpt lat="43.85508" lon="7.24214">
        <ele>582.22</ele>
        <time>2013-03-24T08:28:50Z</time>
      </trkpt>
      <trkpt lat="43.8553" lon="7.24259">
        <ele>584.62</ele>
        <time>2013-03-24T08:29:06Z</time>
      </trkpt>
      <trkpt lat="43.85555" lon="7.24293">
        <ele>585.1</ele>
        <time>2013-03-24T08:29:20Z</time>
      </trkpt>
      <trkpt lat="43.85582" lon="7.24328">
        <ele>585.1</ele>
        <time>2013-03-24T08:29:34Z</time>
      </trkpt>
      <trkpt lat="43.8562" lon="7.2434">
        <ele>587.5</ele>
        <time>2013-03-24T08:29:50Z</time>
      </trkpt>
      <trkpt lat="43.85629" lon="7.2434">
        <ele>588.95</ele>
        <time>2013-03-24T08:29:54Z</time>
      </trkpt>
      <trkpt lat="43.85627" lon="7.24355">
        <ele>590.87</ele>
        <time>2013-03-24T08:30:01Z</time>
      </trkpt>
      <trkpt lat="43.85589" lon="7.2439">
        <ele>589.91</ele>
        <time>2013-03-24T08:30:16Z</time>
      </trkpt>
      <trkpt lat="43.85557" lon="7.24433">
        <ele>591.35</ele>
        <time>2013-03-24T08:30:30Z</time>
      </trkpt>
      <trkpt lat="43.85567" lon="7.24473">
        <ele>590.87</ele>
        <time>2013-03-24T08:30:39Z</time>
      </trkpt>
      <trkpt lat="43.85596" lon="7.24507">
        <ele>592.79</ele>
        <time>2013-03-24T08:30:52Z</time>
      </trkpt>
      <trkpt lat="43.85631" lon="7.24552">
        <ele>595.19</ele>
        <time>2013-03-24T08:31:10Z</time>
      </trkpt>
      <trkpt lat="43.85656" lon="7.24587">
        <ele>593.27</ele>
        <time>2013-03-24T08:31:24Z</time>
      </trkpt>
      <trkpt lat="43.8567" lon="7.24612">
        <ele>591.83</ele>
        <time>2013-03-24T08:31:33Z</time>
      </trkpt>
      <trkpt lat="43.85673" lon="7.24613">
        <ele>592.31</ele>
        <time>2013-03-24T08:31:47Z</time>
      </trkpt>
      <trkpt lat="43.8568" lon="7.24621">
        <ele>592.31</ele>
        <time>2013-03-24T08:31:59Z</time>
      </trkpt>
      <trkpt lat="43.85706" lon="7.24639">
        <ele>592.79</ele>
        <time>2013-03-24T08:32:13Z</time>
      </trkpt>
      <trkpt lat="43.85736" lon="7.24651">
        <ele>595.67</ele>
        <time>2013-03-24T08:32:28Z</time>
      </trkpt>
      <trkpt lat="43.85746" lon="7.24657">
        <ele>595.67</ele>
        <time>2013-03-24T08:32:34Z</time>
      </trkpt>
      <trkpt lat="43.85764" lon="7.24671">
        <ele>595.67</ele>
        <time>2013-03-24T08:32:46Z</time>
      </trkpt>
      <trkpt lat="43.85768" lon="7.24673">
        <ele>596.64</ele>
        <time>2013-03-24T08:32:49Z</time>
      </trkpt>
      <trkpt lat="43.85777" lon="7.24681">
        <ele>599.52</ele>
        <time>2013-03-24T08:32:56Z</time>
      </trkpt>
      <trkpt lat="43.85786" lon="7.24693">
        <ele>602.4</ele>
        <time>2013-03-24T08:33:05Z</time>
      </trkpt>
      <trkpt lat="43.85799" lon="7.24721">
        <ele>608.65</ele>
        <time>2013-03-24T08:33:23Z</time>
      </trkpt>
      <trkpt lat="43.85809" lon="7.24745">
        <ele>613.46</ele>
        <time>2013-03-24T08:33:39Z</time>
      </trkpt>
      <trkpt lat="43.85816" lon="7.24748">
        <ele>614.42</ele>
        <time>2013-03-24T08:33:46Z</time>
      </trkpt>
      <trkpt lat="43.85817" lon="7.24739">
        <ele>615.86</ele>
        <time>2013-03-24T08:33:51Z</time>
      </trkpt>
      <trkpt lat="43.85814" lon="7.24732">
        <ele>617.3</ele>
        <time>2013-03-24T08:33:55Z</time>
      </trkpt>
      <trkpt lat="43.8581" lon="7.24711">
        <ele>618.75</ele>
        <time>2013-03-24T08:34:04Z</time>
      </trkpt>
      <trkpt lat="43.85803" lon="7.24672">
        <ele>620.67</ele>
        <time>2013-03-24T08:34:20Z</time>
      </trkpt>
      <trkpt lat="43.85813" lon="7.24676">
        <ele>621.63</ele>
        <time>2013-03-24T08:34:29Z</time>
      </trkpt>
      <trkpt lat="43.85816" lon="7.24686">
        <ele>622.11</ele>
        <time>2013-03-24T08:34:33Z</time>
      </trkpt>
      <trkpt lat="43.85833" lon="7.24719">
        <ele>625.47</ele>
        <time>2013-03-24T08:34:50Z</time>
      </trkpt>
      <trkpt lat="43.85848" lon="7.24743">
        <ele>627.88</ele>
        <time>2013-03-24T08:35:05Z</time>
      </trkpt>
      <trkpt lat="43.85864" lon="7.24749">
        <ele>630.28</ele>
        <time>2013-03-24T08:35:14Z</time>
      </trkpt>
      <trkpt lat="43.85867" lon="7.2474">
        <ele>631.24</ele>
        <time>2013-03-24T08:35:19Z</time>
      </trkpt>
      <trkpt lat="43.85875" lon="7.24686">
        <ele>634.61</ele>
        <time>2013-03-24T08:35:36Z</time>
      </trkpt>
      <trkpt lat="43.85876" lon="7.24683">
        <ele>635.09</ele>
        <time>2013-03-24T08:35:37Z</time>
      </trkpt>
      <trkpt lat="43.85872" lon="7.24666">
        <ele>635.57</ele>
        <time>2013-03-24T08:35:42Z</time>
      </trkpt>
      <trkpt lat="43.85886" lon="7.24626">
        <ele>634.61</ele>
        <time>2013-03-24T08:35:54Z</time>
      </trkpt>
      <trkpt lat="43.85914" lon="7.2461">
        <ele>637.01</ele>
        <time>2013-03-24T08:36:07Z</time>
      </trkpt>
      <trkpt lat="43.85933" lon="7.24597">
        <ele>639.89</ele>
        <time>2013-03-24T08:36:19Z</time>
      </trkpt>
      <trkpt lat="43.85936" lon="7.24585">
        <ele>643.26</ele>
        <time>2013-03-24T08:36:25Z</time>
      </trkpt>
      <trkpt lat="43.85936" lon="7.24567">
        <ele>647.1</ele>
        <time>2013-03-24T08:36:33Z</time>
      </trkpt>
      <trkpt lat="43.85936" lon="7.24528">
        <ele>648.55</ele>
        <time>2013-03-24T08:36:49Z</time>
      </trkpt>
      <trkpt lat="43.85915" lon="7.24506">
        <ele>649.99</ele>
        <time>2013-03-24T08:37:03Z</time>
      </trkpt>
      <trkpt lat="43.85912" lon="7.245">
        <ele>650.47</ele>
        <time>2013-03-24T08:37:06Z</time>
      </trkpt>
      <trkpt lat="43.85929" lon="7.24475">
        <ele>651.43</ele>
        <time>2013-03-24T08:37:18Z</time>
      </trkpt>
      <trkpt lat="43.8595" lon="7.2446">
        <ele>653.35</ele>
        <time>2013-03-24T08:37:30Z</time>
      </trkpt>
      <trkpt lat="43.85976" lon="7.24445">
        <ele>655.28</ele>
        <time>2013-03-24T08:37:43Z</time>
      </trkpt>
      <trkpt lat="43.85999" lon="7.24425">
        <ele>658.64</ele>
        <time>2013-03-24T08:37:57Z</time>
      </trkpt>
      <trkpt lat="43.86021" lon="7.24413">
        <ele>661.04</ele>
        <time>2013-03-24T08:38:09Z</time>
      </trkpt>
      <trkpt lat="43.86049" lon="7.24387">
        <ele>663.45</ele>
        <time>2013-03-24T08:38:25Z</time>
      </trkpt>
      <trkpt lat="43.8607" lon="7.24369">
        <ele>665.37</ele>
        <time>2013-03-24T08:38:39Z</time>
      </trkpt>
      <trkpt lat="43.86094" lon="7.24349">
        <ele>666.81</ele>
        <time>2013-03-24T08:38:55Z</time>
      </trkpt>
      <trkpt lat="43.86117" lon="7.24338">
        <ele>671.14</ele>
        <time>2013-03-24T08:39:09Z</time>
      </trkpt>
      <trkpt lat="43.86141" lon="7.24337">
        <ele>673.06</ele>
        <time>2013-03-24T08:39:22Z</time>
      </trkpt>
      <trkpt lat="43.8617" lon="7.24316">
        <ele>674.5</ele>
        <time>2013-03-24T08:39:37Z</time>
      </trkpt>
      <trkpt lat="43.86175" lon="7.2428">
        <ele>679.31</ele>
        <time>2013-03-24T08:39:50Z</time>
      </trkpt>
      <trkpt lat="43.86182" lon="7.2424">
        <ele>681.23</ele>
        <time>2013-03-24T08:40:03Z</time>
      </trkpt>
      <trkpt lat="43.86197" lon="7.24198">
        <ele>683.15</ele>
        <time>2013-03-24T08:40:18Z</time>
      </trkpt>
      <trkpt lat="43.86198" lon="7.24165">
        <ele>685.08</ele>
        <time>2013-03-24T08:40:30Z</time>
      </trkpt>
      <trkpt lat="43.86172" lon="7.24134">
        <ele>685.08</ele>
        <time>2013-03-24T08:40:41Z</time>
      </trkpt>
      <trkpt lat="43.86152" lon="7.24105">
        <ele>687.48</ele>
        <time>2013-03-24T08:40:53Z</time>
      </trkpt>
      <trkpt lat="43.86162" lon="7.24062">
        <ele>688.44</ele>
        <time>2013-03-24T08:41:08Z</time>
      </trkpt>
      <trkpt lat="43.86187" lon="7.24021">
        <ele>687.96</ele>
        <time>2013-03-24T08:41:21Z</time>
      </trkpt>
      <trkpt lat="43.86195" lon="7.23984">
        <ele>688.44</ele>
        <time>2013-03-24T08:41:32Z</time>
      </trkpt>
      <trkpt lat="43.86205" lon="7.23951">
        <ele>689.4</ele>
        <time>2013-03-24T08:41:42Z</time>
      </trkpt>
      <trkpt lat="43.86219" lon="7.23911">
        <ele>691.81</ele>
        <time>2013-03-24T08:41:55Z</time>
      </trkpt>
      <trkpt lat="43.86245" lon="7.2388">
        <ele>692.77</ele>
        <time>2013-03-24T08:42:07Z</time>
      </trkpt>
      <trkpt lat="43.86273" lon="7.23856">
        <ele>694.69</ele>
        <time>2013-03-24T08:42:21Z</time>
      </trkpt>
      <trkpt lat="43.86306" lon="7.23834">
        <ele>695.17</ele>
        <time>2013-03-24T08:42:33Z</time>
      </trkpt>
      <trkpt lat="43.86325" lon="7.23849">
        <ele>697.09</ele>
        <time>2013-03-24T08:42:42Z</time>
      </trkpt>
      <trkpt lat="43.8634" lon="7.23888">
        <ele>701.42</ele>
        <time>2013-03-24T08:42:54Z</time>
      </trkpt>
      <trkpt lat="43.86371" lon="7.23905">
        <ele>704.3</ele>
        <time>2013-03-24T08:43:08Z</time>
      </trkpt>
      <trkpt lat="43.86406" lon="7.23918">
        <ele>705.26</ele>
        <time>2013-03-24T08:43:24Z</time>
      </trkpt>
      <trkpt lat="43.86439" lon="7.23925">
        <ele>705.75</ele>
        <time>2013-03-24T08:43:39Z</time>
      </trkpt>
      <trkpt lat="43.86467" lon="7.2392">
        <ele>708.15</ele>
        <time>2013-03-24T08:43:54Z</time>
      </trkpt>
      <trkpt lat="43.86498" lon="7.23914">
        <ele>709.59</ele>
        <time>2013-03-24T08:44:09Z</time>
      </trkpt>
      <trkpt lat="43.86517" lon="7.23879">
        <ele>711.51</ele>
        <time>2013-03-24T08:44:24Z</time>
      </trkpt>
      <trkpt lat="43.86535" lon="7.23854">
        <ele>714.4</ele>
        <time>2013-03-24T08:44:38Z</time>
      </trkpt>
      <trkpt lat="43.86558" lon="7.23855">
        <ele>717.28</ele>
        <time>2013-03-24T08:44:52Z</time>
      </trkpt>
      <trkpt lat="43.8659" lon="7.23872">
        <ele>719.2</ele>
        <time>2013-03-24T08:45:10Z</time>
      </trkpt>
      <trkpt lat="43.86611" lon="7.2389">
        <ele>722.09</ele>
        <time>2013-03-24T08:45:24Z</time>
      </trkpt>
      <trkpt lat="43.86625" lon="7.23919">
        <ele>724.97</ele>
        <time>2013-03-24T08:45:38Z</time>
      </trkpt>
      <trkpt lat="43.86635" lon="7.23952">
        <ele>727.86</ele>
        <time>2013-03-24T08:45:52Z</time>
      </trkpt>
      <trkpt lat="43.86653" lon="7.23987">
        <ele>731.7</ele>
        <time>2013-03-24T08:46:08Z</time>
      </trkpt>
      <trkpt lat="43.86677" lon="7.24008">
        <ele>734.1</ele>
        <time>2013-03-24T08:46:25Z</time>
      </trkpt>
      <trkpt lat="43.86689" lon="7.24038">
        <ele>737.47</ele>
        <time>2013-03-24T08:46:39Z</time>
      </trkpt>
      <trkpt lat="43.86681" lon="7.24073">
        <ele>739.39</ele>
        <time>2013-03-24T08:46:53Z</time>
      </trkpt>
      <trkpt lat="43.86661" lon="7.2411">
        <ele>741.31</ele>
        <time>2013-03-24T08:47:09Z</time>
      </trkpt>
      <trkpt lat="43.86651" lon="7.24119">
        <ele>741.31</ele>
        <time>2013-03-24T08:47:20Z</time>
      </trkpt>
      <trkpt lat="43.86644" lon="7.24124">
        <ele>741.79</ele>
        <time>2013-03-24T08:47:32Z</time>
      </trkpt>
      <trkpt lat="43.86642" lon="7.24126">
        <ele>742.76</ele>
        <time>2013-03-24T08:47:46Z</time>
      </trkpt>
      <trkpt lat="43.86628" lon="7.24144">
        <ele>740.83</ele>
        <time>2013-03-24T08:47:57Z</time>
      </trkpt>
      <trkpt lat="43.86602" lon="7.2416">
        <ele>743.24</ele>
        <time>2013-03-24T08:48:13Z</time>
      </trkpt>
      <trkpt lat="43.86578" lon="7.24177">
        <ele>746.12</ele>
        <time>2013-03-24T08:48:28Z</time>
      </trkpt>
      <trkpt lat="43.86551" lon="7.24188">
        <ele>748.04</ele>
        <time>2013-03-24T08:48:43Z</time>
      </trkpt>
      <trkpt lat="43.86524" lon="7.24198">
        <ele>751.41</ele>
        <time>2013-03-24T08:48:59Z</time>
      </trkpt>
      <trkpt lat="43.86496" lon="7.24204">
        <ele>754.29</ele>
        <time>2013-03-24T08:49:15Z</time>
      </trkpt>
      <trkpt lat="43.86473" lon="7.24228">
        <ele>757.66</ele>
        <time>2013-03-24T08:49:32Z</time>
      </trkpt>
      <trkpt lat="43.86452" lon="7.24261">
        <ele>759.58</ele>
        <time>2013-03-24T08:49:49Z</time>
      </trkpt>
      <trkpt lat="43.86441" lon="7.24292">
        <ele>761.02</ele>
        <time>2013-03-24T08:50:03Z</time>
      </trkpt>
      <trkpt lat="43.86436" lon="7.24324">
        <ele>764.39</ele>
        <time>2013-03-24T08:50:18Z</time>
      </trkpt>
      <trkpt lat="43.86422" lon="7.24349">
        <ele>766.79</ele>
        <time>2013-03-24T08:50:30Z</time>
      </trkpt>
      <trkpt lat="43.86404" lon="7.24378">
        <ele>770.63</ele>
        <time>2013-03-24T08:50:45Z</time>
      </trkpt>
      <trkpt lat="43.86392" lon="7.24409">
        <ele>771.6</ele>
        <time>2013-03-24T08:51:00Z</time>
      </trkpt>
      <trkpt lat="43.86391" lon="7.24443">
        <ele>773.04</ele>
        <time>2013-03-24T08:51:15Z</time>
      </trkpt>
      <trkpt lat="43.86401" lon="7.24479">
        <ele>776.88</ele>
        <time>2013-03-24T08:51:32Z</time>
      </trkpt>
      <trkpt lat="43.86413" lon="7.24513">
        <ele>779.77</ele>
        <time>2013-03-24T08:51:48Z</time>
      </trkpt>
      <trkpt lat="43.86429" lon="7.24545">
        <ele>783.13</ele>
        <time>2013-03-24T08:52:05Z</time>
      </trkpt>
      <trkpt lat="43.86443" lon="7.24582">
        <ele>786.98</ele>
        <time>2013-03-24T08:52:22Z</time>
      </trkpt>
      <trkpt lat="43.86443" lon="7.24621">
        <ele>789.38</ele>
        <time>2013-03-24T08:52:38Z</time>
      </trkpt>
      <trkpt lat="43.86436" lon="7.24659">
        <ele>791.3</ele>
        <time>2013-03-24T08:52:53Z</time>
      </trkpt>
      <trkpt lat="43.86425" lon="7.24687">
        <ele>793.71</ele>
        <time>2013-03-24T08:53:06Z</time>
      </trkpt>
      <trkpt lat="43.86424" lon="7.24691">
        <ele>794.19</ele>
        <time>2013-03-24T08:53:08Z</time>
      </trkpt>
      <trkpt lat="43.86421" lon="7.247">
        <ele>794.67</ele>
        <time>2013-03-24T08:53:12Z</time>
      </trkpt>
      <trkpt lat="43.86409" lon="7.24733">
        <ele>796.11</ele>
        <time>2013-03-24T08:53:28Z</time>
      </trkpt>
      <trkpt lat="43.86397" lon="7.24773">
        <ele>798.51</ele>
        <time>2013-03-24T08:53:46Z</time>
      </trkpt>
      <trkpt lat="43.86389" lon="7.24806">
        <ele>799.95</ele>
        <time>2013-03-24T08:54:01Z</time>
      </trkpt>
      <trkpt lat="43.86388" lon="7.2481">
        <ele>800.44</ele>
        <time>2013-03-24T08:54:03Z</time>
      </trkpt>
      <trkpt lat="43.86385" lon="7.24821">
        <ele>800.92</ele>
        <time>2013-03-24T08:54:08Z</time>
      </trkpt>
      <trkpt lat="43.86383" lon="7.24828">
        <ele>801.88</ele>
        <time>2013-03-24T08:54:11Z</time>
      </trkpt>
      <trkpt lat="43.86374" lon="7.24865">
        <ele>802.84</ele>
        <time>2013-03-24T08:54:27Z</time>
      </trkpt>
      <trkpt lat="43.86368" lon="7.24901">
        <ele>807.64</ele>
        <time>2013-03-24T08:54:42Z</time>
      </trkpt>
      <trkpt lat="43.86365" lon="7.24936">
        <ele>811.01</ele>
        <time>2013-03-24T08:54:57Z</time>
      </trkpt>
      <trkpt lat="43.86364" lon="7.24975">
        <ele>813.41</ele>
        <time>2013-03-24T08:55:13Z</time>
      </trkpt>
      <trkpt lat="43.86367" lon="7.2501">
        <ele>815.34</ele>
        <time>2013-03-24T08:55:28Z</time>
      </trkpt>
      <trkpt lat="43.86372" lon="7.25041">
        <ele>819.18</ele>
        <time>2013-03-24T08:55:42Z</time>
      </trkpt>
      <trkpt lat="43.8638" lon="7.25074">
        <ele>822.06</ele>
        <time>2013-03-24T08:55:57Z</time>
      </trkpt>
      <trkpt lat="43.86391" lon="7.25111">
        <ele>823.99</ele>
        <time>2013-03-24T08:56:13Z</time>
      </trkpt>
      <trkpt lat="43.86402" lon="7.2515">
        <ele>829.27</ele>
        <time>2013-03-24T08:56:29Z</time>
      </trkpt>
      <trkpt lat="43.86414" lon="7.25191">
        <ele>833.6</ele>
        <time>2013-03-24T08:56:47Z</time>
      </trkpt>
      <trkpt lat="43.86424" lon="7.25226">
        <ele>836.48</ele>
        <time>2013-03-24T08:57:02Z</time>
      </trkpt>
      <trkpt lat="43.86431" lon="7.2526">
        <ele>838.41</ele>
        <time>2013-03-24T08:57:17Z</time>
      </trkpt>
      <trkpt lat="43.86438" lon="7.25295">
        <ele>841.77</ele>
        <time>2013-03-24T08:57:32Z</time>
      </trkpt>
      <trkpt lat="43.86445" lon="7.25331">
        <ele>843.21</ele>
        <time>2013-03-24T08:57:47Z</time>
      </trkpt>
      <trkpt lat="43.86453" lon="7.25366">
        <ele>846.58</ele>
        <time>2013-03-24T08:58:02Z</time>
      </trkpt>
      <trkpt lat="43.86454" lon="7.25377">
        <ele>846.58</ele>
        <time>2013-03-24T08:58:07Z</time>
      </trkpt>
      <trkpt lat="43.86457" lon="7.25418">
        <ele>850.42</ele>
        <time>2013-03-24T08:58:24Z</time>
      </trkpt>
      <trkpt lat="43.86467" lon="7.25452">
        <ele>852.83</ele>
        <time>2013-03-24T08:58:39Z</time>
      </trkpt>
      <trkpt lat="43.86475" lon="7.25491">
        <ele>856.67</ele>
        <time>2013-03-24T08:58:56Z</time>
      </trkpt>
      <trkpt lat="43.86481" lon="7.25536">
        <ele>859.08</ele>
        <time>2013-03-24T08:59:16Z</time>
      </trkpt>
      <trkpt lat="43.86491" lon="7.25575">
        <ele>862.44</ele>
        <time>2013-03-24T08:59:33Z</time>
      </trkpt>
      <trkpt lat="43.86505" lon="7.25604">
        <ele>864.84</ele>
        <time>2013-03-24T08:59:48Z</time>
      </trkpt>
      <trkpt lat="43.86526" lon="7.25635">
        <ele>866.29</ele>
        <time>2013-03-24T09:00:05Z</time>
      </trkpt>
      <trkpt lat="43.86548" lon="7.25662">
        <ele>868.69</ele>
        <time>2013-03-24T09:00:22Z</time>
      </trkpt>
      <trkpt lat="43.86559" lon="7.25696">
        <ele>871.09</ele>
        <time>2013-03-24T09:00:37Z</time>
      </trkpt>
      <trkpt lat="43.86562" lon="7.25714">
        <ele>872.53</ele>
        <time>2013-03-24T09:00:44Z</time>
      </trkpt>
      <trkpt lat="43.8657" lon="7.25712">
        <ele>874.46</ele>
        <time>2013-03-24T09:00:51Z</time>
      </trkpt>
      <trkpt lat="43.86569" lon="7.25692">
        <ele>875.9</ele>
        <time>2013-03-24T09:00:59Z</time>
      </trkpt>
      <trkpt lat="43.86566" lon="7.25667">
        <ele>877.34</ele>
        <time>2013-03-24T09:01:10Z</time>
      </trkpt>
      <trkpt lat="43.86554" lon="7.25634">
        <ele>880.22</ele>
        <time>2013-03-24T09:01:26Z</time>
      </trkpt>
      <trkpt lat="43.86545" lon="7.25601">
        <ele>881.67</ele>
        <time>2013-03-24T09:01:41Z</time>
      </trkpt>
      <trkpt lat="43.86545" lon="7.25566">
        <ele>884.55</ele>
        <time>2013-03-24T09:01:53Z</time>
      </trkpt>
      <trkpt lat="43.86548" lon="7.25528">
        <ele>887.91</ele>
        <time>2013-03-24T09:02:07Z</time>
      </trkpt>
      <trkpt lat="43.8655" lon="7.2549">
        <ele>891.28</ele>
        <time>2013-03-24T09:02:22Z</time>
      </trkpt>
      <trkpt lat="43.86545" lon="7.25451">
        <ele>893.68</ele>
        <time>2013-03-24T09:02:37Z</time>
      </trkpt>
      <trkpt lat="43.8654" lon="7.25415">
        <ele>896.09</ele>
        <time>2013-03-24T09:02:52Z</time>
      </trkpt>
      <trkpt lat="43.86532" lon="7.25376">
        <ele>898.97</ele>
        <time>2013-03-24T09:03:09Z</time>
      </trkpt>
      <trkpt lat="43.86527" lon="7.25342">
        <ele>900.89</ele>
        <time>2013-03-24T09:03:23Z</time>
      </trkpt>
      <trkpt lat="43.86523" lon="7.25311">
        <ele>902.82</ele>
        <time>2013-03-24T09:03:36Z</time>
      </trkpt>
      <trkpt lat="43.86537" lon="7.25312">
        <ele>904.26</ele>
        <time>2013-03-24T09:03:47Z</time>
      </trkpt>
      <trkpt lat="43.86538" lon="7.2532">
        <ele>904.74</ele>
        <time>2013-03-24T09:03:50Z</time>
      </trkpt>
      <trkpt lat="43.86545" lon="7.25359">
        <ele>907.62</ele>
        <time>2013-03-24T09:04:07Z</time>
      </trkpt>
      <trkpt lat="43.86557" lon="7.25394">
        <ele>910.03</ele>
        <time>2013-03-24T09:04:23Z</time>
      </trkpt>
      <trkpt lat="43.86573" lon="7.25428">
        <ele>912.91</ele>
        <time>2013-03-24T09:04:39Z</time>
      </trkpt>
      <trkpt lat="43.86585" lon="7.25452">
        <ele>915.31</ele>
        <time>2013-03-24T09:04:52Z</time>
      </trkpt>
      <trkpt lat="43.86598" lon="7.25475">
        <ele>917.24</ele>
        <time>2013-03-24T09:05:06Z</time>
      </trkpt>
      <trkpt lat="43.86603" lon="7.25484">
        <ele>918.2</ele>
        <time>2013-03-24T09:05:12Z</time>
      </trkpt>
      <trkpt lat="43.86605" lon="7.25486">
        <ele>919.16</ele>
        <time>2013-03-24T09:05:22Z</time>
      </trkpt>
      <trkpt lat="43.86607" lon="7.25487">
        <ele>919.16</ele>
        <time>2013-03-24T09:05:41Z</time>
      </trkpt>
      <trkpt lat="43.86606" lon="7.25486">
        <ele>919.64</ele>
        <time>2013-03-24T09:06:06Z</time>
      </trkpt>
      <trkpt lat="43.86607" lon="7.25488">
        <ele>918.68</ele>
        <time>2013-03-24T09:06:31Z</time>
      </trkpt>
      <trkpt lat="43.86606" lon="7.25485">
        <ele>917.72</ele>
        <time>2013-03-24T09:06:56Z</time>
      </trkpt>
      <trkpt lat="43.86608" lon="7.25486">
        <ele>919.64</ele>
        <time>2013-03-24T09:07:17Z</time>
      </trkpt>
      <trkpt lat="43.86609" lon="7.2549">
        <ele>920.12</ele>
        <time>2013-03-24T09:07:29Z</time>
      </trkpt>
      <trkpt lat="43.86605" lon="7.25487">
        <ele>920.6</ele>
        <time>2013-03-24T09:07:51Z</time>
      </trkpt>
      <trkpt lat="43.86608" lon="7.25492">
        <ele>921.08</ele>
        <time>2013-03-24T09:08:25Z</time>
      </trkpt>
      <trkpt lat="43.86608" lon="7.25493">
        <ele>920.6</ele>
        <time>2013-03-24T09:08:46Z</time>
      </trkpt>
      <trkpt lat="43.86608" lon="7.25492">
        <ele>920.6</ele>
        <time>2013-03-24T09:09:08Z</time>
      </trkpt>
      <trkpt lat="43.86608" lon="7.25492">
        <ele>919.64</ele>
        <time>2013-03-24T09:09:32Z</time>
      </trkpt>
      <trkpt lat="43.86611" lon="7.2549">
        <ele>919.16</ele>
        <time>2013-03-24T09:09:51Z</time>
      </trkpt>
      <trkpt lat="43.8661" lon="7.2549">
        <ele>919.64</ele>
        <time>2013-03-24T09:10:23Z</time>
      </trkpt>
      <trkpt lat="43.86609" lon="7.2549">
        <ele>919.64</ele>
        <time>2013-03-24T09:10:53Z</time>
      </trkpt>
      <trkpt lat="43.86608" lon="7.25488">
        <ele>920.6</ele>
        <time>2013-03-24T09:11:26Z</time>
      </trkpt>
      <trkpt lat="43.86608" lon="7.2549">
        <ele>919.64</ele>
        <time>2013-03-24T09:11:47Z</time>
      </trkpt>
      <trkpt lat="43.86607" lon="7.25491">
        <ele>920.6</ele>
        <time>2013-03-24T09:12:06Z</time>
      </trkpt>
      <trkpt lat="43.86609" lon="7.25497">
        <ele>920.12</ele>
        <time>2013-03-24T09:12:16Z</time>
      </trkpt>
      <trkpt lat="43.86613" lon="7.25507">
        <ele>920.12</ele>
        <time>2013-03-24T09:12:29Z</time>
      </trkpt>
      <trkpt lat="43.86613" lon="7.25508">
        <ele>918.68</ele>
        <time>2013-03-24T09:12:52Z</time>
      </trkpt>
      <trkpt lat="43.86613" lon="7.25507">
        <ele>918.2</ele>
        <time>2013-03-24T09:13:13Z</time>
      </trkpt>
      <trkpt lat="43.86615" lon="7.25508">
        <ele>917.72</ele>
        <time>2013-03-24T09:13:34Z</time>
      </trkpt>
      <trkpt lat="43.86614" lon="7.25508">
        <ele>917.24</ele>
        <time>2013-03-24T09:13:57Z</time>
      </trkpt>
      <trkpt lat="43.86614" lon="7.25509">
        <ele>915.79</ele>
        <time>2013-03-24T09:14:15Z</time>
      </trkpt>
      <trkpt lat="43.86612" lon="7.25507">
        <ele>916.27</ele>
        <time>2013-03-24T09:14:45Z</time>
      </trkpt>
      <trkpt lat="43.86613" lon="7.25508">
        <ele>917.72</ele>
        <time>2013-03-24T09:15:06Z</time>
      </trkpt>
      <trkpt lat="43.86614" lon="7.25508">
        <ele>919.16</ele>
        <time>2013-03-24T09:15:32Z</time>
      </trkpt>
      <trkpt lat="43.86615" lon="7.2551">
        <ele>918.68</ele>
        <time>2013-03-24T09:15:57Z</time>
      </trkpt>
      <trkpt lat="43.86611" lon="7.25509">
        <ele>920.6</ele>
        <time>2013-03-24T09:16:19Z</time>
      </trkpt>
      <trkpt lat="43.86611" lon="7.25509">
        <ele>919.64</ele>
        <time>2013-03-24T09:16:37Z</time>
      </trkpt>
      <trkpt lat="43.86612" lon="7.25508">
        <ele>919.64</ele>
        <time>2013-03-24T09:16:51Z</time>
      </trkpt>
      <trkpt lat="43.86612" lon="7.25509">
        <ele>919.64</ele>
        <time>2013-03-24T09:17:10Z</time>
      </trkpt>
      <trkpt lat="43.86613" lon="7.25509">
        <ele>919.64</ele>
        <time>2013-03-24T09:17:25Z</time>
      </trkpt>
      <trkpt lat="43.86614" lon="7.25509">
        <ele>919.64</ele>
        <time>2013-03-24T09:17:50Z</time>
      </trkpt>
      <trkpt lat="43.86615" lon="7.25509">
        <ele>919.64</ele>
        <time>2013-03-24T09:18:15Z</time>
      </trkpt>
      <trkpt lat="43.86613" lon="7.25511">
        <ele>923.96</ele>
        <time>2013-03-24T09:18:41Z</time>
      </trkpt>
      <trkpt lat="43.86612" lon="7.25509">
        <ele>921.56</ele>
        <time>2013-03-24T09:19:01Z</time>
      </trkpt>
      <trkpt lat="43.86612" lon="7.25508">
        <ele>921.08</ele>
        <time>2013-03-24T09:19:21Z</time>
      </trkpt>
      <trkpt lat="43.86612" lon="7.25509">
        <ele>922.52</ele>
        <time>2013-03-24T09:19:34Z</time>
      </trkpt>
      <trkpt lat="43.86611" lon="7.25509">
        <ele>923.96</ele>
        <time>2013-03-24T09:19:56Z</time>
      </trkpt>
      <trkpt lat="43.86611" lon="7.25507">
        <ele>923.96</ele>
        <time>2013-03-24T09:20:16Z</time>
      </trkpt>
      <trkpt lat="43.86613" lon="7.25505">
        <ele>922.52</ele>
        <time>2013-03-24T09:20:36Z</time>
      </trkpt>
      <trkpt lat="43.86612" lon="7.25503">
        <ele>927.33</ele>
        <time>2013-03-24T09:21:03Z</time>
      </trkpt>
      <trkpt lat="43.86611" lon="7.25504">
        <ele>926.37</ele>
        <time>2013-03-24T09:21:28Z</time>
      </trkpt>
      <trkpt lat="43.8661" lon="7.25505">
        <ele>923.48</ele>
        <time>2013-03-24T09:21:43Z</time>
      </trkpt>
      <trkpt lat="43.86618" lon="7.25521">
        <ele>923.48</ele>
        <time>2013-03-24T09:21:52Z</time>
      </trkpt>
      <trkpt lat="43.86634" lon="7.25562">
        <ele>926.37</ele>
        <time>2013-03-24T09:22:05Z</time>
      </trkpt>
      <trkpt lat="43.86656" lon="7.25617">
        <ele>930.69</ele>
        <time>2013-03-24T09:22:23Z</time>
      </trkpt>
      <trkpt lat="43.86677" lon="7.25667">
        <ele>934.54</ele>
        <time>2013-03-24T09:22:40Z</time>
      </trkpt>
      <trkpt lat="43.86701" lon="7.25707">
        <ele>937.9</ele>
        <time>2013-03-24T09:22:57Z</time>
      </trkpt>
      <trkpt lat="43.86718" lon="7.25753">
        <ele>940.31</ele>
        <time>2013-03-24T09:23:13Z</time>
      </trkpt>
      <trkpt lat="43.86736" lon="7.25799">
        <ele>945.11</ele>
        <time>2013-03-24T09:23:26Z</time>
      </trkpt>
      <trkpt lat="43.86759" lon="7.25851">
        <ele>948.96</ele>
        <time>2013-03-24T09:23:43Z</time>
      </trkpt>
      <trkpt lat="43.86792" lon="7.25875">
        <ele>952.32</ele>
        <time>2013-03-24T09:24:00Z</time>
      </trkpt>
      <trkpt lat="43.86825" lon="7.25899">
        <ele>954.73</ele>
        <time>2013-03-24T09:24:19Z</time>
      </trkpt>
      <trkpt lat="43.86828" lon="7.25932">
        <ele>958.09</ele>
        <time>2013-03-24T09:24:33Z</time>
      </trkpt>
      <trkpt lat="43.86805" lon="7.25976">
        <ele>961.94</ele>
        <time>2013-03-24T09:24:54Z</time>
      </trkpt>
      <trkpt lat="43.86798" lon="7.26003">
        <ele>963.38</ele>
        <time>2013-03-24T09:25:06Z</time>
      </trkpt>
      <trkpt lat="43.86814" lon="7.25991">
        <ele>965.3</ele>
        <time>2013-03-24T09:25:17Z</time>
      </trkpt>
      <trkpt lat="43.86834" lon="7.25949">
        <ele>968.67</ele>
        <time>2013-03-24T09:25:33Z</time>
      </trkpt>
      <trkpt lat="43.86859" lon="7.25924">
        <ele>972.51</ele>
        <time>2013-03-24T09:25:49Z</time>
      </trkpt>
      <trkpt lat="43.86856" lon="7.25892">
        <ele>975.39</ele>
        <time>2013-03-24T09:26:03Z</time>
      </trkpt>
      <trkpt lat="43.86834" lon="7.25857">
        <ele>978.76</ele>
        <time>2013-03-24T09:26:19Z</time>
      </trkpt>
      <trkpt lat="43.86813" lon="7.25814">
        <ele>981.64</ele>
        <time>2013-03-24T09:26:36Z</time>
      </trkpt>
      <trkpt lat="43.86797" lon="7.25763">
        <ele>984.05</ele>
        <time>2013-03-24T09:26:55Z</time>
      </trkpt>
      <trkpt lat="43.8678" lon="7.25716">
        <ele>988.85</ele>
        <time>2013-03-24T09:27:13Z</time>
      </trkpt>
      <trkpt lat="43.86767" lon="7.25677">
        <ele>992.22</ele>
        <time>2013-03-24T09:27:29Z</time>
      </trkpt>
      <trkpt lat="43.86755" lon="7.25631">
        <ele>995.1</ele>
        <time>2013-03-24T09:27:47Z</time>
      </trkpt>
      <trkpt lat="43.86748" lon="7.25595">
        <ele>997.99</ele>
        <time>2013-03-24T09:28:01Z</time>
      </trkpt>
      <trkpt lat="43.86737" lon="7.25556">
        <ele>1001.35</ele>
        <time>2013-03-24T09:28:17Z</time>
      </trkpt>
      <trkpt lat="43.86733" lon="7.25535">
        <ele>1002.31</ele>
        <time>2013-03-24T09:28:25Z</time>
      </trkpt>
      <trkpt lat="43.86747" lon="7.25547">
        <ele>1003.75</ele>
        <time>2013-03-24T09:28:36Z</time>
      </trkpt>
      <trkpt lat="43.86767" lon="7.25597">
        <ele>1007.12</ele>
        <time>2013-03-24T09:28:57Z</time>
      </trkpt>
      <trkpt lat="43.86787" lon="7.25641">
        <ele>1010.96</ele>
        <time>2013-03-24T09:29:17Z</time>
      </trkpt>
      <trkpt lat="43.86809" lon="7.25677">
        <ele>1015.77</ele>
        <time>2013-03-24T09:29:36Z</time>
      </trkpt>
      <trkpt lat="43.86832" lon="7.25712">
        <ele>1018.65</ele>
        <time>2013-03-24T09:29:55Z</time>
      </trkpt>
      <trkpt lat="43.86856" lon="7.25744">
        <ele>1021.06</ele>
        <time>2013-03-24T09:30:13Z</time>
      </trkpt>
      <trkpt lat="43.86879" lon="7.25777">
        <ele>1025.38</ele>
        <time>2013-03-24T09:30:32Z</time>
      </trkpt>
      <trkpt lat="43.86904" lon="7.2581">
        <ele>1028.75</ele>
        <time>2013-03-24T09:30:53Z</time>
      </trkpt>
      <trkpt lat="43.86933" lon="7.25845">
        <ele>1032.11</ele>
        <time>2013-03-24T09:31:16Z</time>
      </trkpt>
      <trkpt lat="43.86956" lon="7.25873">
        <ele>1034.52</ele>
        <time>2013-03-24T09:31:34Z</time>
      </trkpt>
      <trkpt lat="43.8698" lon="7.25902">
        <ele>1037.88</ele>
        <time>2013-03-24T09:31:51Z</time>
      </trkpt>
      <trkpt lat="43.87005" lon="7.25922">
        <ele>1040.28</ele>
        <time>2013-03-24T09:32:07Z</time>
      </trkpt>
      <trkpt lat="43.8703" lon="7.25944">
        <ele>1043.17</ele>
        <time>2013-03-24T09:32:24Z</time>
      </trkpt>
      <trkpt lat="43.87038" lon="7.25959">
        <ele>1044.61</ele>
        <time>2013-03-24T09:32:32Z</time>
      </trkpt>
      <trkpt lat="43.87036" lon="7.25972">
        <ele>1046.05</ele>
        <time>2013-03-24T09:32:37Z</time>
      </trkpt>
      <trkpt lat="43.87015" lon="7.26009">
        <ele>1051.34</ele>
        <time>2013-03-24T09:32:55Z</time>
      </trkpt>
      <trkpt lat="43.86993" lon="7.26036">
        <ele>1054.7</ele>
        <time>2013-03-24T09:33:10Z</time>
      </trkpt>
      <trkpt lat="43.86961" lon="7.26031">
        <ele>1062.87</ele>
        <time>2013-03-24T09:33:25Z</time>
      </trkpt>
      <trkpt lat="43.86939" lon="7.26051">
        <ele>1067.2</ele>
        <time>2013-03-24T09:33:40Z</time>
      </trkpt>
      <trkpt lat="43.86941" lon="7.26071">
        <ele>1067.2</ele>
        <time>2013-03-24T09:33:49Z</time>
      </trkpt>
      <trkpt lat="43.86949" lon="7.26062">
        <ele>1068.16</ele>
        <time>2013-03-24T09:33:56Z</time>
      </trkpt>
      <trkpt lat="43.86968" lon="7.26045">
        <ele>1072.97</ele>
        <time>2013-03-24T09:34:10Z</time>
      </trkpt>
      <trkpt lat="43.86993" lon="7.26053">
        <ele>1074.41</ele>
        <time>2013-03-24T09:34:25Z</time>
      </trkpt>
      <trkpt lat="43.87015" lon="7.26037">
        <ele>1078.26</ele>
        <time>2013-03-24T09:34:40Z</time>
      </trkpt>
      <trkpt lat="43.87036" lon="7.26013">
        <ele>1081.62</ele>
        <time>2013-03-24T09:34:56Z</time>
      </trkpt>
      <trkpt lat="43.87058" lon="7.2599">
        <ele>1083.54</ele>
        <time>2013-03-24T09:35:10Z</time>
      </trkpt>
      <trkpt lat="43.87068" lon="7.25985">
        <ele>1084.99</ele>
        <time>2013-03-24T09:35:15Z</time>
      </trkpt>
      <trkpt lat="43.87073" lon="7.25979">
        <ele>1085.95</ele>
        <time>2013-03-24T09:35:19Z</time>
      </trkpt>
      <trkpt lat="43.87104" lon="7.25956">
        <ele>1087.87</ele>
        <time>2013-03-24T09:35:37Z</time>
      </trkpt>
      <trkpt lat="43.87134" lon="7.25965">
        <ele>1088.83</ele>
        <time>2013-03-24T09:35:52Z</time>
      </trkpt>
      <trkpt lat="43.87145" lon="7.2598">
        <ele>1090.75</ele>
        <time>2013-03-24T09:35:59Z</time>
      </trkpt>
      <trkpt lat="43.87151" lon="7.25988">
        <ele>1092.2</ele>
        <time>2013-03-24T09:36:03Z</time>
      </trkpt>
      <trkpt lat="43.87151" lon="7.26029">
        <ele>1093.64</ele>
        <time>2013-03-24T09:36:15Z</time>
      </trkpt>
      <trkpt lat="43.87142" lon="7.26048">
        <ele>1095.56</ele>
        <time>2013-03-24T09:36:21Z</time>
      </trkpt>
      <trkpt lat="43.87129" lon="7.26092">
        <ele>1101.33</ele>
        <time>2013-03-24T09:36:37Z</time>
      </trkpt>
      <trkpt lat="43.87126" lon="7.26096">
        <ele>1102.29</ele>
        <time>2013-03-24T09:36:39Z</time>
      </trkpt>
      <trkpt lat="43.87101" lon="7.26125">
        <ele>1102.29</ele>
        <time>2013-03-24T09:36:52Z</time>
      </trkpt>
      <trkpt lat="43.87088" lon="7.26151">
        <ele>1102.29</ele>
        <time>2013-03-24T09:37:02Z</time>
      </trkpt>
      <trkpt lat="43.87087" lon="7.26154">
        <ele>1102.29</ele>
        <time>2013-03-24T09:37:03Z</time>
      </trkpt>
      <trkpt lat="43.87092" lon="7.26164">
        <ele>1102.77</ele>
        <time>2013-03-24T09:37:07Z</time>
      </trkpt>
      <trkpt lat="43.87095" lon="7.26169">
        <ele>1102.77</ele>
        <time>2013-03-24T09:37:09Z</time>
      </trkpt>
      <trkpt lat="43.87097" lon="7.26183">
        <ele>1103.25</ele>
        <time>2013-03-24T09:37:13Z</time>
      </trkpt>
      <trkpt lat="43.87095" lon="7.2623">
        <ele>1105.17</ele>
        <time>2013-03-24T09:37:27Z</time>
      </trkpt>
      <trkpt lat="43.87104" lon="7.26261">
        <ele>1106.61</ele>
        <time>2013-03-24T09:37:38Z</time>
      </trkpt>
      <trkpt lat="43.8711" lon="7.26303">
        <ele>1107.58</ele>
        <time>2013-03-24T09:37:52Z</time>
      </trkpt>
      <trkpt lat="43.87109" lon="7.26341">
        <ele>1107.1</ele>
        <time>2013-03-24T09:38:03Z</time>
      </trkpt>
      <trkpt lat="43.87106" lon="7.26386">
        <ele>1108.54</ele>
        <time>2013-03-24T09:38:16Z</time>
      </trkpt>
      <trkpt lat="43.87108" lon="7.26408">
        <ele>1109.5</ele>
        <time>2013-03-24T09:38:23Z</time>
      </trkpt>
      <trkpt lat="43.87116" lon="7.26428">
        <ele>1112.38</ele>
        <time>2013-03-24T09:38:30Z</time>
      </trkpt>
      <trkpt lat="43.87125" lon="7.26464">
        <ele>1113.82</ele>
        <time>2013-03-24T09:38:41Z</time>
      </trkpt>
      <trkpt lat="43.87126" lon="7.2648">
        <ele>1113.34</ele>
        <time>2013-03-24T09:38:46Z</time>
      </trkpt>
      <trkpt lat="43.87112" lon="7.26511">
        <ele>1115.27</ele>
        <time>2013-03-24T09:38:57Z</time>
      </trkpt>
      <trkpt lat="43.87069" lon="7.26531">
        <ele>1114.31</ele>
        <time>2013-03-24T09:39:13Z</time>
      </trkpt>
      <trkpt lat="43.8704" lon="7.26529">
        <ele>1111.9</ele>
        <time>2013-03-24T09:39:20Z</time>
      </trkpt>
      <trkpt lat="43.8702" lon="7.26539">
        <ele>1110.46</ele>
        <time>2013-03-24T09:39:24Z</time>
      </trkpt>
      <trkpt lat="43.87005" lon="7.26554">
        <ele>1109.02</ele>
        <time>2013-03-24T09:39:27Z</time>
      </trkpt>
      <trkpt lat="43.86982" lon="7.26565">
        <ele>1108.06</ele>
        <time>2013-03-24T09:39:31Z</time>
      </trkpt>
      <trkpt lat="43.86965" lon="7.26572">
        <ele>1107.58</ele>
        <time>2013-03-24T09:39:39Z</time>
      </trkpt>
      <trkpt lat="43.86956" lon="7.26574">
        <ele>1108.54</ele>
        <time>2013-03-24T09:39:50Z</time>
      </trkpt>
      <trkpt lat="43.86917" lon="7.26578">
        <ele>1105.65</ele>
        <time>2013-03-24T09:40:03Z</time>
      </trkpt>
      <trkpt lat="43.86881" lon="7.2663">
        <ele>1100.37</ele>
        <time>2013-03-24T09:40:11Z</time>
      </trkpt>
      <trkpt lat="43.86826" lon="7.26654">
        <ele>1097</ele>
        <time>2013-03-24T09:40:19Z</time>
      </trkpt>
      <trkpt lat="43.86808" lon="7.26646">
        <ele>1095.56</ele>
        <time>2013-03-24T09:40:23Z</time>
      </trkpt>
      <trkpt lat="43.86803" lon="7.26634">
        <ele>1093.64</ele>
        <time>2013-03-24T09:40:28Z</time>
      </trkpt>
      <trkpt lat="43.86813" lon="7.26634">
        <ele>1089.31</ele>
        <time>2013-03-24T09:40:35Z</time>
      </trkpt>
      <trkpt lat="43.86813" lon="7.26633">
        <ele>1088.83</ele>
        <time>2013-03-24T09:40:37Z</time>
      </trkpt>
      <trkpt lat="43.86807" lon="7.26626">
        <ele>1088.35</ele>
        <time>2013-03-24T09:40:40Z</time>
      </trkpt>
      <trkpt lat="43.86783" lon="7.26603">
        <ele>1087.87</ele>
        <time>2013-03-24T09:40:49Z</time>
      </trkpt>
      <trkpt lat="43.86779" lon="7.26603">
        <ele>1087.87</ele>
        <time>2013-03-24T09:40:50Z</time>
      </trkpt>
      <trkpt lat="43.86755" lon="7.26598">
        <ele>1087.39</ele>
        <time>2013-03-24T09:40:56Z</time>
      </trkpt>
      <trkpt lat="43.86733" lon="7.2659">
        <ele>1085.47</ele>
        <time>2013-03-24T09:41:01Z</time>
      </trkpt>
      <trkpt lat="43.86716" lon="7.26583">
        <ele>1083.54</ele>
        <time>2013-03-24T09:41:05Z</time>
      </trkpt>
      <trkpt lat="43.86705" lon="7.26581">
        <ele>1082.1</ele>
        <time>2013-03-24T09:41:07Z</time>
      </trkpt>
      <trkpt lat="43.86662" lon="7.26588">
        <ele>1073.45</ele>
        <time>2013-03-24T09:41:19Z</time>
      </trkpt>
      <trkpt lat="43.86636" lon="7.26601">
        <ele>1068.16</ele>
        <time>2013-03-24T09:41:26Z</time>
      </trkpt>
      <trkpt lat="43.86613" lon="7.26606">
        <ele>1064.8</ele>
        <time>2013-03-24T09:41:32Z</time>
      </trkpt>
      <trkpt lat="43.86594" lon="7.26606">
        <ele>1063.36</ele>
        <time>2013-03-24T09:41:37Z</time>
      </trkpt>
      <trkpt lat="43.86569" lon="7.26592">
        <ele>1059.03</ele>
        <time>2013-03-24T09:41:46Z</time>
      </trkpt>
      <trkpt lat="43.86548" lon="7.26579">
        <ele>1060.95</ele>
        <time>2013-03-24T09:41:56Z</time>
      </trkpt>
      <trkpt lat="43.86521" lon="7.26564">
        <ele>1061.43</ele>
        <time>2013-03-24T09:42:05Z</time>
      </trkpt>
      <trkpt lat="43.86518" lon="7.26562">
        <ele>1061.43</ele>
        <time>2013-03-24T09:42:06Z</time>
      </trkpt>
      <trkpt lat="43.86501" lon="7.26558">
        <ele>1060.47</ele>
        <time>2013-03-24T09:42:13Z</time>
      </trkpt>
      <trkpt lat="43.86463" lon="7.26513">
        <ele>1058.55</ele>
        <time>2013-03-24T09:42:24Z</time>
      </trkpt>
      <trkpt lat="43.86422" lon="7.26485">
        <ele>1049.9</ele>
        <time>2013-03-24T09:42:35Z</time>
      </trkpt>
      <trkpt lat="43.86387" lon="7.26463">
        <ele>1040.76</ele>
        <time>2013-03-24T09:42:45Z</time>
      </trkpt>
      <trkpt lat="43.86361" lon="7.26444">
        <ele>1032.59</ele>
        <time>2013-03-24T09:42:55Z</time>
      </trkpt>
      <trkpt lat="43.86348" lon="7.26439">
        <ele>1028.27</ele>
        <time>2013-03-24T09:43:00Z</time>
      </trkpt>
      <trkpt lat="43.86343" lon="7.26416">
        <ele>1023.46</ele>
        <time>2013-03-24T09:43:05Z</time>
      </trkpt>
      <trkpt lat="43.86338" lon="7.26384">
        <ele>1018.17</ele>
        <time>2013-03-24T09:43:10Z</time>
      </trkpt>
      <trkpt lat="43.86334" lon="7.26372">
        <ele>1016.25</ele>
        <time>2013-03-24T09:43:12Z</time>
      </trkpt>
      <trkpt lat="43.86305" lon="7.26347">
        <ele>1011.44</ele>
        <time>2013-03-24T09:43:20Z</time>
      </trkpt>
      <trkpt lat="43.86296" lon="7.26341">
        <ele>1010.96</ele>
        <time>2013-03-24T09:43:22Z</time>
      </trkpt>
      <trkpt lat="43.86258" lon="7.26288">
        <ele>1007.12</ele>
        <time>2013-03-24T09:43:34Z</time>
      </trkpt>
      <trkpt lat="43.86252" lon="7.26282">
        <ele>1005.68</ele>
        <time>2013-03-24T09:43:36Z</time>
      </trkpt>
      <trkpt lat="43.86232" lon="7.26276">
        <ele>1003.75</ele>
        <time>2013-03-24T09:43:41Z</time>
      </trkpt>
      <trkpt lat="43.86213" lon="7.26262">
        <ele>1001.83</ele>
        <time>2013-03-24T09:43:45Z</time>
      </trkpt>
      <trkpt lat="43.86166" lon="7.26203">
        <ele>992.7</ele>
        <time>2013-03-24T09:43:55Z</time>
      </trkpt>
      <trkpt lat="43.86148" lon="7.26186">
        <ele>989.81</ele>
        <time>2013-03-24T09:43:59Z</time>
      </trkpt>
      <trkpt lat="43.86122" lon="7.26167">
        <ele>984.05</ele>
        <time>2013-03-24T09:44:07Z</time>
      </trkpt>
      <trkpt lat="43.86115" lon="7.26136">
        <ele>976.36</ele>
        <time>2013-03-24T09:44:17Z</time>
      </trkpt>
      <trkpt lat="43.86133" lon="7.26111">
        <ele>971.07</ele>
        <time>2013-03-24T09:44:29Z</time>
      </trkpt>
      <trkpt lat="43.86134" lon="7.26104">
        <ele>969.63</ele>
        <time>2013-03-24T09:44:37Z</time>
      </trkpt>
      <trkpt lat="43.86124" lon="7.26098">
        <ele>969.63</ele>
        <time>2013-03-24T09:44:45Z</time>
      </trkpt>
      <trkpt lat="43.86124" lon="7.26093">
        <ele>968.18</ele>
        <time>2013-03-24T09:44:49Z</time>
      </trkpt>
      <trkpt lat="43.86129" lon="7.26082">
        <ele>965.78</ele>
        <time>2013-03-24T09:44:58Z</time>
      </trkpt>
      <trkpt lat="43.86126" lon="7.26067">
        <ele>960.98</ele>
        <time>2013-03-24T09:45:09Z</time>
      </trkpt>
      <trkpt lat="43.86128" lon="7.26055">
        <ele>955.21</ele>
        <time>2013-03-24T09:45:21Z</time>
      </trkpt>
      <trkpt lat="43.86127" lon="7.26054">
        <ele>955.21</ele>
        <time>2013-03-24T09:45:23Z</time>
      </trkpt>
      <trkpt lat="43.86126" lon="7.2605">
        <ele>954.25</ele>
        <time>2013-03-24T09:45:26Z</time>
      </trkpt>
      <trkpt lat="43.86121" lon="7.26046">
        <ele>953.28</ele>
        <time>2013-03-24T09:45:30Z</time>
      </trkpt>
      <trkpt lat="43.86109" lon="7.26022">
        <ele>944.63</ele>
        <time>2013-03-24T09:45:41Z</time>
      </trkpt>
      <trkpt lat="43.86109" lon="7.26019">
        <ele>943.67</ele>
        <time>2013-03-24T09:45:42Z</time>
      </trkpt>
      <trkpt lat="43.86095" lon="7.26006">
        <ele>936.46</ele>
        <time>2013-03-24T09:45:53Z</time>
      </trkpt>
      <trkpt lat="43.86091" lon="7.26003">
        <ele>935.98</ele>
        <time>2013-03-24T09:45:54Z</time>
      </trkpt>
      <trkpt lat="43.86072" lon="7.2599">
        <ele>932.62</ele>
        <time>2013-03-24T09:45:58Z</time>
      </trkpt>
      <trkpt lat="43.86058" lon="7.2597">
        <ele>928.29</ele>
        <time>2013-03-24T09:46:02Z</time>
      </trkpt>
      <trkpt lat="43.8606" lon="7.25948">
        <ele>923</ele>
        <time>2013-03-24T09:46:08Z</time>
      </trkpt>
      <trkpt lat="43.86062" lon="7.25946">
        <ele>921.56</ele>
        <time>2013-03-24T09:46:10Z</time>
      </trkpt>
      <trkpt lat="43.86071" lon="7.25938">
        <ele>915.79</ele>
        <time>2013-03-24T09:46:22Z</time>
      </trkpt>
      <trkpt lat="43.86081" lon="7.25934">
        <ele>913.39</ele>
        <time>2013-03-24T09:46:28Z</time>
      </trkpt>
      <trkpt lat="43.86087" lon="7.25933">
        <ele>911.95</ele>
        <time>2013-03-24T09:46:33Z</time>
      </trkpt>
      <trkpt lat="43.86106" lon="7.25917">
        <ele>905.22</ele>
        <time>2013-03-24T09:46:42Z</time>
      </trkpt>
      <trkpt lat="43.86116" lon="7.25917">
        <ele>902.33</ele>
        <time>2013-03-24T09:46:46Z</time>
      </trkpt>
      <trkpt lat="43.86124" lon="7.25914">
        <ele>899.45</ele>
        <time>2013-03-24T09:46:56Z</time>
      </trkpt>
      <trkpt lat="43.86126" lon="7.25913">
        <ele>900.89</ele>
        <time>2013-03-24T09:47:12Z</time>
      </trkpt>
      <trkpt lat="43.86131" lon="7.25908">
        <ele>898.97</ele>
        <time>2013-03-24T09:47:18Z</time>
      </trkpt>
      <trkpt lat="43.86137" lon="7.25901">
        <ele>899.45</ele>
        <time>2013-03-24T09:47:27Z</time>
      </trkpt>
      <trkpt lat="43.8614" lon="7.25899">
        <ele>898.49</ele>
        <time>2013-03-24T09:47:30Z</time>
      </trkpt>
      <trkpt lat="43.86139" lon="7.25892">
        <ele>897.53</ele>
        <time>2013-03-24T09:47:34Z</time>
      </trkpt>
      <trkpt lat="43.86132" lon="7.25887">
        <ele>897.05</ele>
        <time>2013-03-24T09:47:38Z</time>
      </trkpt>
      <trkpt lat="43.8613" lon="7.25882">
        <ele>896.57</ele>
        <time>2013-03-24T09:47:40Z</time>
      </trkpt>
      <trkpt lat="43.8614" lon="7.25866">
        <ele>891.76</ele>
        <time>2013-03-24T09:47:47Z</time>
      </trkpt>
      <trkpt lat="43.86168" lon="7.25856">
        <ele>880.22</ele>
        <time>2013-03-24T09:47:57Z</time>
      </trkpt>
      <trkpt lat="43.86176" lon="7.2585">
        <ele>875.9</ele>
        <time>2013-03-24T09:48:01Z</time>
      </trkpt>
      <trkpt lat="43.86198" lon="7.25855">
        <ele>865.32</ele>
        <time>2013-03-24T09:48:11Z</time>
      </trkpt>
      <trkpt lat="43.86212" lon="7.25866">
        <ele>863.88</ele>
        <time>2013-03-24T09:48:20Z</time>
      </trkpt>
      <trkpt lat="43.86225" lon="7.25874">
        <ele>863.4</ele>
        <time>2013-03-24T09:48:26Z</time>
      </trkpt>
      <trkpt lat="43.86237" lon="7.25872">
        <ele>863.4</ele>
        <time>2013-03-24T09:48:36Z</time>
      </trkpt>
      <trkpt lat="43.86239" lon="7.25872">
        <ele>863.4</ele>
        <time>2013-03-24T09:48:38Z</time>
      </trkpt>
      <trkpt lat="43.86251" lon="7.25881">
        <ele>862.92</ele>
        <time>2013-03-24T09:48:46Z</time>
      </trkpt>
      <trkpt lat="43.86263" lon="7.25896">
        <ele>863.4</ele>
        <time>2013-03-24T09:48:54Z</time>
      </trkpt>
      <trkpt lat="43.86265" lon="7.259">
        <ele>863.88</ele>
        <time>2013-03-24T09:48:57Z</time>
      </trkpt>
      <trkpt lat="43.86268" lon="7.25902">
        <ele>863.88</ele>
        <time>2013-03-24T09:49:00Z</time>
      </trkpt>
      <trkpt lat="43.86281" lon="7.25914">
        <ele>866.29</ele>
        <time>2013-03-24T09:49:13Z</time>
      </trkpt>
      <trkpt lat="43.86294" lon="7.25927">
        <ele>867.25</ele>
        <time>2013-03-24T09:49:23Z</time>
      </trkpt>
      <trkpt lat="43.86299" lon="7.25936">
        <ele>868.69</ele>
        <time>2013-03-24T09:49:27Z</time>
      </trkpt>
      <trkpt lat="43.86316" lon="7.25954">
        <ele>864.84</ele>
        <time>2013-03-24T09:49:37Z</time>
      </trkpt>
      <trkpt lat="43.86317" lon="7.25955">
        <ele>864.36</ele>
        <time>2013-03-24T09:49:38Z</time>
      </trkpt>
      <trkpt lat="43.86334" lon="7.25959">
        <ele>862.92</ele>
        <time>2013-03-24T09:49:47Z</time>
      </trkpt>
      <trkpt lat="43.86361" lon="7.2597">
        <ele>863.4</ele>
        <time>2013-03-24T09:49:59Z</time>
      </trkpt>
      <trkpt lat="43.8637" lon="7.25973">
        <ele>862.92</ele>
        <time>2013-03-24T09:50:03Z</time>
      </trkpt>
      <trkpt lat="43.8638" lon="7.2598">
        <ele>862.92</ele>
        <time>2013-03-24T09:50:09Z</time>
      </trkpt>
      <trkpt lat="43.86383" lon="7.25983">
        <ele>862.92</ele>
        <time>2013-03-24T09:50:11Z</time>
      </trkpt>
      <trkpt lat="43.86401" lon="7.25997">
        <ele>864.36</ele>
        <time>2013-03-24T09:50:22Z</time>
      </trkpt>
      <trkpt lat="43.86404" lon="7.26">
        <ele>864.84</ele>
        <time>2013-03-24T09:50:24Z</time>
      </trkpt>
      <trkpt lat="43.86422" lon="7.26012">
        <ele>865.32</ele>
        <time>2013-03-24T09:50:35Z</time>
      </trkpt>
      <trkpt lat="43.86438" lon="7.26024">
        <ele>863.4</ele>
        <time>2013-03-24T09:50:42Z</time>
      </trkpt>
      <trkpt lat="43.86447" lon="7.26034">
        <ele>862.44</ele>
        <time>2013-03-24T09:50:47Z</time>
      </trkpt>
      <trkpt lat="43.86462" lon="7.26052">
        <ele>861.48</ele>
        <time>2013-03-24T09:50:56Z</time>
      </trkpt>
      <trkpt lat="43.86463" lon="7.26052">
        <ele>861.48</ele>
        <time>2013-03-24T09:50:57Z</time>
      </trkpt>
      <trkpt lat="43.86462" lon="7.26049">
        <ele>861</ele>
        <time>2013-03-24T09:51:00Z</time>
      </trkpt>
      <trkpt lat="43.86475" lon="7.26049">
        <ele>861.48</ele>
        <time>2013-03-24T09:51:05Z</time>
      </trkpt>
      <trkpt lat="43.86483" lon="7.26052">
        <ele>861</ele>
        <time>2013-03-24T09:51:08Z</time>
      </trkpt>
      <trkpt lat="43.8651" lon="7.26057">
        <ele>858.59</ele>
        <time>2013-03-24T09:51:17Z</time>
      </trkpt>
      <trkpt lat="43.86529" lon="7.26072">
        <ele>856.19</ele>
        <time>2013-03-24T09:51:23Z</time>
      </trkpt>
      <trkpt lat="43.86549" lon="7.26076">
        <ele>851.87</ele>
        <time>2013-03-24T09:51:28Z</time>
      </trkpt>
      <trkpt lat="43.8656" lon="7.26073">
        <ele>848.5</ele>
        <time>2013-03-24T09:51:33Z</time>
      </trkpt>
      <trkpt lat="43.86566" lon="7.2607">
        <ele>845.14</ele>
        <time>2013-03-24T09:51:44Z</time>
      </trkpt>
      <trkpt lat="43.8656" lon="7.26066">
        <ele>845.62</ele>
        <time>2013-03-24T09:51:54Z</time>
      </trkpt>
      <trkpt lat="43.86554" lon="7.2606">
        <ele>846.58</ele>
        <time>2013-03-24T09:52:06Z</time>
      </trkpt>
      <trkpt lat="43.86551" lon="7.26058">
        <ele>848.02</ele>
        <time>2013-03-24T09:52:13Z</time>
      </trkpt>
      <trkpt lat="43.86549" lon="7.26053">
        <ele>847.54</ele>
        <time>2013-03-24T09:52:20Z</time>
      </trkpt>
      <trkpt lat="43.86542" lon="7.26046">
        <ele>847.06</ele>
        <time>2013-03-24T09:52:29Z</time>
      </trkpt>
      <trkpt lat="43.86534" lon="7.26034">
        <ele>847.54</ele>
        <time>2013-03-24T09:52:38Z</time>
      </trkpt>
      <trkpt lat="43.86527" lon="7.26026">
        <ele>844.66</ele>
        <time>2013-03-24T09:52:52Z</time>
      </trkpt>
      <trkpt lat="43.86525" lon="7.2602">
        <ele>844.66</ele>
        <time>2013-03-24T09:52:59Z</time>
      </trkpt>
      <trkpt lat="43.86518" lon="7.26004">
        <ele>845.62</ele>
        <time>2013-03-24T09:53:12Z</time>
      </trkpt>
      <trkpt lat="43.86516" lon="7.26">
        <ele>847.06</ele>
        <time>2013-03-24T09:53:19Z</time>
      </trkpt>
      <trkpt lat="43.86515" lon="7.25997">
        <ele>847.06</ele>
        <time>2013-03-24T09:53:21Z</time>
      </trkpt>
      <trkpt lat="43.86514" lon="7.25994">
        <ele>847.54</ele>
        <time>2013-03-24T09:53:23Z</time>
      </trkpt>
      <trkpt lat="43.86512" lon="7.2599">
        <ele>847.06</ele>
        <time>2013-03-24T09:53:26Z</time>
      </trkpt>
      <trkpt lat="43.86507" lon="7.25985">
        <ele>845.62</ele>
        <time>2013-03-24T09:53:30Z</time>
      </trkpt>
      <trkpt lat="43.86496" lon="7.25975">
        <ele>841.77</ele>
        <time>2013-03-24T09:53:37Z</time>
      </trkpt>
      <trkpt lat="43.86486" lon="7.25967">
        <ele>840.81</ele>
        <time>2013-03-24T09:53:47Z</time>
      </trkpt>
      <trkpt lat="43.86479" lon="7.25958">
        <ele>843.69</ele>
        <time>2013-03-24T09:53:55Z</time>
      </trkpt>
      <trkpt lat="43.8647" lon="7.25939">
        <ele>842.25</ele>
        <time>2013-03-24T09:54:03Z</time>
      </trkpt>
      <trkpt lat="43.86466" lon="7.25932">
        <ele>840.33</ele>
        <time>2013-03-24T09:54:07Z</time>
      </trkpt>
      <trkpt lat="43.86462" lon="7.25916">
        <ele>828.31</ele>
        <time>2013-03-24T09:54:21Z</time>
      </trkpt>
      <trkpt lat="43.86462" lon="7.25915">
        <ele>827.35</ele>
        <time>2013-03-24T09:54:22Z</time>
      </trkpt>
      <trkpt lat="43.86455" lon="7.25904">
        <ele>821.1</ele>
        <time>2013-03-24T09:54:30Z</time>
      </trkpt>
      <trkpt lat="43.86447" lon="7.25899">
        <ele>823.03</ele>
        <time>2013-03-24T09:54:36Z</time>
      </trkpt>
      <trkpt lat="43.86446" lon="7.25868">
        <ele>817.74</ele>
        <time>2013-03-24T09:54:48Z</time>
      </trkpt>
      <trkpt lat="43.86441" lon="7.25828">
        <ele>812.45</ele>
        <time>2013-03-24T09:54:59Z</time>
      </trkpt>
      <trkpt lat="43.86434" lon="7.25794">
        <ele>811.01</ele>
        <time>2013-03-24T09:55:07Z</time>
      </trkpt>
      <trkpt lat="43.86423" lon="7.25744">
        <ele>807.16</ele>
        <time>2013-03-24T09:55:18Z</time>
      </trkpt>
      <trkpt lat="43.8641" lon="7.2571">
        <ele>802.84</ele>
        <time>2013-03-24T09:55:28Z</time>
      </trkpt>
      <trkpt lat="43.86394" lon="7.25674">
        <ele>799.95</ele>
        <time>2013-03-24T09:55:37Z</time>
      </trkpt>
      <trkpt lat="43.86382" lon="7.25637">
        <ele>797.55</ele>
        <time>2013-03-24T09:55:46Z</time>
      </trkpt>
      <trkpt lat="43.8638" lon="7.25632">
        <ele>797.55</ele>
        <time>2013-03-24T09:55:47Z</time>
      </trkpt>
      <trkpt lat="43.86368" lon="7.25607">
        <ele>795.63</ele>
        <time>2013-03-24T09:55:53Z</time>
      </trkpt>
      <trkpt lat="43.86362" lon="7.25598">
        <ele>795.15</ele>
        <time>2013-03-24T09:55:55Z</time>
      </trkpt>
      <trkpt lat="43.86355" lon="7.25553">
        <ele>790.82</ele>
        <time>2013-03-24T09:56:04Z</time>
      </trkpt>
      <trkpt lat="43.86352" lon="7.25535">
        <ele>789.86</ele>
        <time>2013-03-24T09:56:08Z</time>
      </trkpt>
      <trkpt lat="43.86347" lon="7.25514">
        <ele>788.42</ele>
        <time>2013-03-24T09:56:12Z</time>
      </trkpt>
      <trkpt lat="43.86347" lon="7.25492">
        <ele>787.94</ele>
        <time>2013-03-24T09:56:16Z</time>
      </trkpt>
      <trkpt lat="43.86344" lon="7.25463">
        <ele>787.46</ele>
        <time>2013-03-24T09:56:21Z</time>
      </trkpt>
      <trkpt lat="43.86334" lon="7.25423">
        <ele>785.53</ele>
        <time>2013-03-24T09:56:31Z</time>
      </trkpt>
      <trkpt lat="43.86333" lon="7.25416">
        <ele>786.98</ele>
        <time>2013-03-24T09:56:42Z</time>
      </trkpt>
      <trkpt lat="43.86333" lon="7.25414">
        <ele>786.5</ele>
        <time>2013-03-24T09:56:43Z</time>
      </trkpt>
      <trkpt lat="43.86328" lon="7.25365">
        <ele>786.02</ele>
        <time>2013-03-24T09:56:55Z</time>
      </trkpt>
      <trkpt lat="43.86327" lon="7.25351">
        <ele>786.02</ele>
        <time>2013-03-24T09:56:58Z</time>
      </trkpt>
      <trkpt lat="43.86334" lon="7.25333">
        <ele>785.53</ele>
        <time>2013-03-24T09:57:02Z</time>
      </trkpt>
      <trkpt lat="43.86337" lon="7.25305">
        <ele>784.09</ele>
        <time>2013-03-24T09:57:07Z</time>
      </trkpt>
      <trkpt lat="43.86335" lon="7.25281">
        <ele>782.65</ele>
        <time>2013-03-24T09:57:11Z</time>
      </trkpt>
      <trkpt lat="43.86333" lon="7.25238">
        <ele>778.81</ele>
        <time>2013-03-24T09:57:22Z</time>
      </trkpt>
      <trkpt lat="43.86332" lon="7.25234">
        <ele>778.81</ele>
        <time>2013-03-24T09:57:24Z</time>
      </trkpt>
      <trkpt lat="43.86328" lon="7.2521">
        <ele>778.32</ele>
        <time>2013-03-24T09:57:34Z</time>
      </trkpt>
      <trkpt lat="43.8632" lon="7.25173">
        <ele>779.29</ele>
        <time>2013-03-24T09:57:45Z</time>
      </trkpt>
      <trkpt lat="43.86311" lon="7.25141">
        <ele>779.77</ele>
        <time>2013-03-24T09:57:55Z</time>
      </trkpt>
      <trkpt lat="43.86304" lon="7.25104">
        <ele>779.29</ele>
        <time>2013-03-24T09:58:06Z</time>
      </trkpt>
      <trkpt lat="43.86295" lon="7.25071">
        <ele>777.36</ele>
        <time>2013-03-24T09:58:17Z</time>
      </trkpt>
      <trkpt lat="43.86287" lon="7.2504">
        <ele>776.88</ele>
        <time>2013-03-24T09:58:28Z</time>
      </trkpt>
      <trkpt lat="43.86279" lon="7.25022">
        <ele>774</ele>
        <time>2013-03-24T09:58:38Z</time>
      </trkpt>
      <trkpt lat="43.86275" lon="7.25014">
        <ele>773.04</ele>
        <time>2013-03-24T09:58:46Z</time>
      </trkpt>
      <trkpt lat="43.8627" lon="7.25004">
        <ele>770.63</ele>
        <time>2013-03-24T09:58:54Z</time>
      </trkpt>
      <trkpt lat="43.86266" lon="7.24996">
        <ele>764.87</ele>
        <time>2013-03-24T09:59:07Z</time>
      </trkpt>
      <trkpt lat="43.86263" lon="7.24981">
        <ele>764.39</ele>
        <time>2013-03-24T09:59:17Z</time>
      </trkpt>
      <trkpt lat="43.86257" lon="7.24975">
        <ele>764.87</ele>
        <time>2013-03-24T09:59:23Z</time>
      </trkpt>
      <trkpt lat="43.86254" lon="7.24969">
        <ele>764.87</ele>
        <time>2013-03-24T09:59:27Z</time>
      </trkpt>
      <trkpt lat="43.86251" lon="7.24961">
        <ele>763.9</ele>
        <time>2013-03-24T09:59:31Z</time>
      </trkpt>
      <trkpt lat="43.86246" lon="7.24942">
        <ele>761.02</ele>
        <time>2013-03-24T09:59:39Z</time>
      </trkpt>
      <trkpt lat="43.86236" lon="7.24917">
        <ele>756.21</ele>
        <time>2013-03-24T09:59:50Z</time>
      </trkpt>
      <trkpt lat="43.86233" lon="7.24901">
        <ele>755.25</ele>
        <time>2013-03-24T09:59:56Z</time>
      </trkpt>
      <trkpt lat="43.86231" lon="7.24898">
        <ele>754.29</ele>
        <time>2013-03-24T09:59:59Z</time>
      </trkpt>
      <trkpt lat="43.8622" lon="7.24882">
        <ele>749.49</ele>
        <time>2013-03-24T10:00:06Z</time>
      </trkpt>
      <trkpt lat="43.86205" lon="7.24863">
        <ele>741.79</ele>
        <time>2013-03-24T10:00:13Z</time>
      </trkpt>
      <trkpt lat="43.862" lon="7.24843">
        <ele>736.51</ele>
        <time>2013-03-24T10:00:18Z</time>
      </trkpt>
      <trkpt lat="43.86187" lon="7.2483">
        <ele>728.82</ele>
        <time>2013-03-24T10:00:27Z</time>
      </trkpt>
      <trkpt lat="43.86182" lon="7.2479">
        <ele>723.05</ele>
        <time>2013-03-24T10:00:35Z</time>
      </trkpt>
      <trkpt lat="43.8618" lon="7.24785">
        <ele>721.61</ele>
        <time>2013-03-24T10:00:38Z</time>
      </trkpt>
      <trkpt lat="43.86181" lon="7.24752">
        <ele>718.24</ele>
        <time>2013-03-24T10:00:48Z</time>
      </trkpt>
      <trkpt lat="43.8618" lon="7.24742">
        <ele>715.84</ele>
        <time>2013-03-24T10:00:53Z</time>
      </trkpt>
      <trkpt lat="43.86178" lon="7.24741">
        <ele>715.36</ele>
        <time>2013-03-24T10:01:02Z</time>
      </trkpt>
      <trkpt lat="43.8618" lon="7.24713">
        <ele>713.44</ele>
        <time>2013-03-24T10:01:16Z</time>
      </trkpt>
      <trkpt lat="43.86183" lon="7.24697">
        <ele>711.03</ele>
        <time>2013-03-24T10:01:21Z</time>
      </trkpt>
      <trkpt lat="43.86167" lon="7.24698">
        <ele>705.75</ele>
        <time>2013-03-24T10:01:29Z</time>
      </trkpt>
      <trkpt lat="43.86162" lon="7.24702">
        <ele>704.3</ele>
        <time>2013-03-24T10:01:32Z</time>
      </trkpt>
      <trkpt lat="43.86144" lon="7.24758">
        <ele>708.15</ele>
        <time>2013-03-24T10:01:50Z</time>
      </trkpt>
      <trkpt lat="43.86129" lon="7.24801">
        <ele>712.95</ele>
        <time>2013-03-24T10:02:06Z</time>
      </trkpt>
      <trkpt lat="43.86114" lon="7.24844">
        <ele>716.32</ele>
        <time>2013-03-24T10:02:22Z</time>
      </trkpt>
      <trkpt lat="43.86105" lon="7.24895">
        <ele>714.4</ele>
        <time>2013-03-24T10:02:34Z</time>
      </trkpt>
      <trkpt lat="43.86105" lon="7.24906">
        <ele>713.92</ele>
        <time>2013-03-24T10:02:36Z</time>
      </trkpt>
      <trkpt lat="43.86125" lon="7.24978">
        <ele>709.59</ele>
        <time>2013-03-24T10:02:50Z</time>
      </trkpt>
      <trkpt lat="43.8613" lon="7.25013">
        <ele>706.23</ele>
        <time>2013-03-24T10:02:57Z</time>
      </trkpt>
      <trkpt lat="43.86156" lon="7.25089">
        <ele>699.98</ele>
        <time>2013-03-24T10:03:06Z</time>
      </trkpt>
      <trkpt lat="43.86162" lon="7.25112">
        <ele>698.05</ele>
        <time>2013-03-24T10:03:09Z</time>
      </trkpt>
      <trkpt lat="43.86164" lon="7.25147">
        <ele>696.13</ele>
        <time>2013-03-24T10:03:14Z</time>
      </trkpt>
      <trkpt lat="43.86157" lon="7.25213">
        <ele>692.29</ele>
        <time>2013-03-24T10:03:26Z</time>
      </trkpt>
      <trkpt lat="43.8616" lon="7.25234">
        <ele>691.33</ele>
        <time>2013-03-24T10:03:30Z</time>
      </trkpt>
      <trkpt lat="43.86144" lon="7.25269">
        <ele>687.48</ele>
        <time>2013-03-24T10:03:39Z</time>
      </trkpt>
      <trkpt lat="43.8614" lon="7.25275">
        <ele>687</ele>
        <time>2013-03-24T10:03:41Z</time>
      </trkpt>
      <trkpt lat="43.86126" lon="7.25285">
        <ele>687.48</ele>
        <time>2013-03-24T10:03:49Z</time>
      </trkpt>
      <trkpt lat="43.86123" lon="7.25286">
        <ele>689.88</ele>
        <time>2013-03-24T10:03:54Z</time>
      </trkpt>
      <trkpt lat="43.86116" lon="7.25273">
        <ele>696.13</ele>
        <time>2013-03-24T10:04:07Z</time>
      </trkpt>
      <trkpt lat="43.86112" lon="7.25263">
        <ele>699.98</ele>
        <time>2013-03-24T10:04:17Z</time>
      </trkpt>
      <trkpt lat="43.86106" lon="7.25271">
        <ele>702.86</ele>
        <time>2013-03-24T10:04:29Z</time>
      </trkpt>
      <trkpt lat="43.86085" lon="7.25258">
        <ele>703.34</ele>
        <time>2013-03-24T10:04:46Z</time>
      </trkpt>
      <trkpt lat="43.86068" lon="7.25256">
        <ele>706.71</ele>
        <time>2013-03-24T10:05:03Z</time>
      </trkpt>
      <trkpt lat="43.86049" lon="7.25257">
        <ele>705.75</ele>
        <time>2013-03-24T10:05:12Z</time>
      </trkpt>
      <trkpt lat="43.86016" lon="7.25268">
        <ele>702.86</ele>
        <time>2013-03-24T10:05:22Z</time>
      </trkpt>
      <trkpt lat="43.86006" lon="7.25274">
        <ele>701.42</ele>
        <time>2013-03-24T10:05:27Z</time>
      </trkpt>
      <trkpt lat="43.86002" lon="7.25264">
        <ele>699.5</ele>
        <time>2013-03-24T10:05:30Z</time>
      </trkpt>
      <trkpt lat="43.85996" lon="7.25246">
        <ele>698.53</ele>
        <time>2013-03-24T10:05:39Z</time>
      </trkpt>
      <trkpt lat="43.86002" lon="7.25229">
        <ele>699.5</ele>
        <time>2013-03-24T10:05:49Z</time>
      </trkpt>
      <trkpt lat="43.86006" lon="7.25224">
        <ele>701.42</ele>
        <time>2013-03-24T10:05:52Z</time>
      </trkpt>
      <trkpt lat="43.86011" lon="7.25216">
        <ele>704.3</ele>
        <time>2013-03-24T10:05:57Z</time>
      </trkpt>
      <trkpt lat="43.86017" lon="7.2521">
        <ele>706.71</ele>
        <time>2013-03-24T10:06:02Z</time>
      </trkpt>
      <trkpt lat="43.86016" lon="7.252">
        <ele>709.11</ele>
        <time>2013-03-24T10:06:08Z</time>
      </trkpt>
      <trkpt lat="43.86014" lon="7.25197">
        <ele>709.59</ele>
        <time>2013-03-24T10:06:11Z</time>
      </trkpt>
      <trkpt lat="43.85999" lon="7.2517">
        <ele>710.55</ele>
        <time>2013-03-24T10:06:23Z</time>
      </trkpt>
      <trkpt lat="43.85963" lon="7.2514">
        <ele>709.59</ele>
        <time>2013-03-24T10:06:36Z</time>
      </trkpt>
      <trkpt lat="43.85934" lon="7.25137">
        <ele>706.23</ele>
        <time>2013-03-24T10:06:43Z</time>
      </trkpt>
      <trkpt lat="43.85922" lon="7.25125">
        <ele>704.78</ele>
        <time>2013-03-24T10:06:46Z</time>
      </trkpt>
      <trkpt lat="43.8589" lon="7.25106">
        <ele>699.5</ele>
        <time>2013-03-24T10:06:54Z</time>
      </trkpt>
      <trkpt lat="43.85866" lon="7.2508">
        <ele>695.17</ele>
        <time>2013-03-24T10:07:01Z</time>
      </trkpt>
      <trkpt lat="43.85835" lon="7.25048">
        <ele>689.88</ele>
        <time>2013-03-24T10:07:11Z</time>
      </trkpt>
      <trkpt lat="43.85828" lon="7.25042">
        <ele>688.44</ele>
        <time>2013-03-24T10:07:15Z</time>
      </trkpt>
      <trkpt lat="43.85817" lon="7.25034">
        <ele>687.48</ele>
        <time>2013-03-24T10:07:24Z</time>
      </trkpt>
      <trkpt lat="43.85799" lon="7.25029">
        <ele>688.44</ele>
        <time>2013-03-24T10:07:35Z</time>
      </trkpt>
      <trkpt lat="43.85782" lon="7.25025">
        <ele>689.4</ele>
        <time>2013-03-24T10:07:46Z</time>
      </trkpt>
      <trkpt lat="43.85758" lon="7.2502">
        <ele>688.44</ele>
        <time>2013-03-24T10:07:57Z</time>
      </trkpt>
      <trkpt lat="43.85716" lon="7.25011">
        <ele>687</ele>
        <time>2013-03-24T10:08:10Z</time>
      </trkpt>
      <trkpt lat="43.85706" lon="7.25021">
        <ele>689.4</ele>
        <time>2013-03-24T10:28:36Z</time>
      </trkpt>
      <trkpt lat="43.85713" lon="7.25027">
        <ele>692.29</ele>
        <time>2013-03-24T10:28:49Z</time>
      </trkpt>
      <trkpt lat="43.85719" lon="7.25035">
        <ele>694.21</ele>
        <time>2013-03-24T10:29:04Z</time>
      </trkpt>
      <trkpt lat="43.85724" lon="7.25043">
        <ele>698.53</ele>
        <time>2013-03-24T10:29:19Z</time>
      </trkpt>
      <trkpt lat="43.85726" lon="7.25049">
        <ele>700.46</ele>
        <time>2013-03-24T10:29:31Z</time>
      </trkpt>
      <trkpt lat="43.85731" lon="7.25056">
        <ele>702.86</ele>
        <time>2013-03-24T10:29:46Z</time>
      </trkpt>
      <trkpt lat="43.85735" lon="7.25064">
        <ele>706.23</ele>
        <time>2013-03-24T10:30:00Z</time>
      </trkpt>
      <trkpt lat="43.85738" lon="7.25072">
        <ele>711.51</ele>
        <time>2013-03-24T10:30:14Z</time>
      </trkpt>
      <trkpt lat="43.85742" lon="7.25078">
        <ele>714.4</ele>
        <time>2013-03-24T10:30:32Z</time>
      </trkpt>
      <trkpt lat="43.85746" lon="7.25086">
        <ele>717.28</ele>
        <time>2013-03-24T10:30:47Z</time>
      </trkpt>
      <trkpt lat="43.8575" lon="7.25092">
        <ele>717.28</ele>
        <time>2013-03-24T10:31:04Z</time>
      </trkpt>
      <trkpt lat="43.85753" lon="7.25098">
        <ele>719.68</ele>
        <time>2013-03-24T10:31:16Z</time>
      </trkpt>
      <trkpt lat="43.85757" lon="7.25103">
        <ele>721.13</ele>
        <time>2013-03-24T10:31:30Z</time>
      </trkpt>
      <trkpt lat="43.85763" lon="7.25111">
        <ele>724.01</ele>
        <time>2013-03-24T10:31:45Z</time>
      </trkpt>
      <trkpt lat="43.8577" lon="7.2512">
        <ele>724.49</ele>
        <time>2013-03-24T10:32:00Z</time>
      </trkpt>
      <trkpt lat="43.85777" lon="7.25129">
        <ele>724.49</ele>
        <time>2013-03-24T10:32:16Z</time>
      </trkpt>
      <trkpt lat="43.85783" lon="7.25137">
        <ele>726.89</ele>
        <time>2013-03-24T10:32:30Z</time>
      </trkpt>
      <trkpt lat="43.85789" lon="7.25149">
        <ele>730.74</ele>
        <time>2013-03-24T10:32:47Z</time>
      </trkpt>
      <trkpt lat="43.85795" lon="7.25159">
        <ele>733.62</ele>
        <time>2013-03-24T10:33:03Z</time>
      </trkpt>
      <trkpt lat="43.85802" lon="7.2517">
        <ele>736.99</ele>
        <time>2013-03-24T10:33:20Z</time>
      </trkpt>
      <trkpt lat="43.85807" lon="7.25179">
        <ele>739.39</ele>
        <time>2013-03-24T10:33:35Z</time>
      </trkpt>
      <trkpt lat="43.85815" lon="7.25189">
        <ele>742.76</ele>
        <time>2013-03-24T10:33:50Z</time>
      </trkpt>
      <trkpt lat="43.85825" lon="7.25201">
        <ele>747.56</ele>
        <time>2013-03-24T10:34:07Z</time>
      </trkpt>
      <trkpt lat="43.85834" lon="7.25213">
        <ele>749.49</ele>
        <time>2013-03-24T10:34:22Z</time>
      </trkpt>
      <trkpt lat="43.85843" lon="7.25223">
        <ele>752.37</ele>
        <time>2013-03-24T10:34:37Z</time>
      </trkpt>
      <trkpt lat="43.85855" lon="7.25233">
        <ele>755.73</ele>
        <time>2013-03-24T10:34:51Z</time>
      </trkpt>
      <trkpt lat="43.85862" lon="7.25244">
        <ele>757.18</ele>
        <time>2013-03-24T10:35:05Z</time>
      </trkpt>
      <trkpt lat="43.85872" lon="7.25254">
        <ele>760.06</ele>
        <time>2013-03-24T10:35:17Z</time>
      </trkpt>
      <trkpt lat="43.85881" lon="7.2527">
        <ele>764.39</ele>
        <time>2013-03-24T10:35:34Z</time>
      </trkpt>
      <trkpt lat="43.85883" lon="7.25283">
        <ele>768.23</ele>
        <time>2013-03-24T10:35:47Z</time>
      </trkpt>
      <trkpt lat="43.85882" lon="7.25291">
        <ele>771.11</ele>
        <time>2013-03-24T10:36:01Z</time>
      </trkpt>
      <trkpt lat="43.85882" lon="7.253">
        <ele>774.96</ele>
        <time>2013-03-24T10:36:16Z</time>
      </trkpt>
      <trkpt lat="43.85878" lon="7.25307">
        <ele>775.44</ele>
        <time>2013-03-24T10:36:29Z</time>
      </trkpt>
      <trkpt lat="43.85876" lon="7.25314">
        <ele>776.4</ele>
        <time>2013-03-24T10:36:43Z</time>
      </trkpt>
      <trkpt lat="43.85872" lon="7.25324">
        <ele>777.84</ele>
        <time>2013-03-24T10:36:56Z</time>
      </trkpt>
      <trkpt lat="43.85868" lon="7.25332">
        <ele>779.29</ele>
        <time>2013-03-24T10:37:09Z</time>
      </trkpt>
      <trkpt lat="43.8586" lon="7.25335">
        <ele>781.69</ele>
        <time>2013-03-24T10:37:22Z</time>
      </trkpt>
      <trkpt lat="43.85853" lon="7.25342">
        <ele>781.21</ele>
        <time>2013-03-24T10:37:28Z</time>
      </trkpt>
      <trkpt lat="43.85836" lon="7.25354">
        <ele>780.73</ele>
        <time>2013-03-24T10:37:42Z</time>
      </trkpt>
      <trkpt lat="43.85823" lon="7.25356">
        <ele>783.61</ele>
        <time>2013-03-24T10:37:56Z</time>
      </trkpt>
      <trkpt lat="43.85807" lon="7.25364">
        <ele>786.02</ele>
        <time>2013-03-24T10:38:13Z</time>
      </trkpt>
      <trkpt lat="43.858" lon="7.25377">
        <ele>788.9</ele>
        <time>2013-03-24T10:38:26Z</time>
      </trkpt>
      <trkpt lat="43.85793" lon="7.25391">
        <ele>791.3</ele>
        <time>2013-03-24T10:38:42Z</time>
      </trkpt>
      <trkpt lat="43.85786" lon="7.25402">
        <ele>793.71</ele>
        <time>2013-03-24T10:38:57Z</time>
      </trkpt>
      <trkpt lat="43.85786" lon="7.25402">
        <ele>793.71</ele>
        <time>2013-03-24T10:38:58Z</time>
      </trkpt>
      <trkpt lat="43.85782" lon="7.25405">
        <ele>794.19</ele>
        <time>2013-03-24T10:39:02Z</time>
      </trkpt>
      <trkpt lat="43.8578" lon="7.25408">
        <ele>794.67</ele>
        <time>2013-03-24T10:39:05Z</time>
      </trkpt>
      <trkpt lat="43.85772" lon="7.25416">
        <ele>795.63</ele>
        <time>2013-03-24T10:39:15Z</time>
      </trkpt>
      <trkpt lat="43.85753" lon="7.25429">
        <ele>792.74</ele>
        <time>2013-03-24T10:39:25Z</time>
      </trkpt>
      <trkpt lat="43.85728" lon="7.25417">
        <ele>788.9</ele>
        <time>2013-03-24T10:39:32Z</time>
      </trkpt>
      <trkpt lat="43.85718" lon="7.25415">
        <ele>787.94</ele>
        <time>2013-03-24T10:39:34Z</time>
      </trkpt>
      <trkpt lat="43.85687" lon="7.25402">
        <ele>786.5</ele>
        <time>2013-03-24T10:39:40Z</time>
      </trkpt>
      <trkpt lat="43.85664" lon="7.25401">
        <ele>784.57</ele>
        <time>2013-03-24T10:39:44Z</time>
      </trkpt>
      <trkpt lat="43.85647" lon="7.25396">
        <ele>781.69</ele>
        <time>2013-03-24T10:39:50Z</time>
      </trkpt>
      <trkpt lat="43.85641" lon="7.25392">
        <ele>780.73</ele>
        <time>2013-03-24T10:39:52Z</time>
      </trkpt>
      <trkpt lat="43.8562" lon="7.2539">
        <ele>778.32</ele>
        <time>2013-03-24T10:39:56Z</time>
      </trkpt>
      <trkpt lat="43.85589" lon="7.25377">
        <ele>776.88</ele>
        <time>2013-03-24T10:40:02Z</time>
      </trkpt>
      <trkpt lat="43.85572" lon="7.25377">
        <ele>776.4</ele>
        <time>2013-03-24T10:40:06Z</time>
      </trkpt>
      <trkpt lat="43.85554" lon="7.25366">
        <ele>776.88</ele>
        <time>2013-03-24T10:40:11Z</time>
      </trkpt>
      <trkpt lat="43.85543" lon="7.25363">
        <ele>777.36</ele>
        <time>2013-03-24T10:40:14Z</time>
      </trkpt>
      <trkpt lat="43.85531" lon="7.25362">
        <ele>777.36</ele>
        <time>2013-03-24T10:40:17Z</time>
      </trkpt>
      <trkpt lat="43.85518" lon="7.25362">
        <ele>777.36</ele>
        <time>2013-03-24T10:40:21Z</time>
      </trkpt>
      <trkpt lat="43.85513" lon="7.25354">
        <ele>777.36</ele>
        <time>2013-03-24T10:40:23Z</time>
      </trkpt>
      <trkpt lat="43.85498" lon="7.25346">
        <ele>777.36</ele>
        <time>2013-03-24T10:40:27Z</time>
      </trkpt>
      <trkpt lat="43.85469" lon="7.2535">
        <ele>775.92</ele>
        <time>2013-03-24T10:40:34Z</time>
      </trkpt>
      <trkpt lat="43.85463" lon="7.25344">
        <ele>775.92</ele>
        <time>2013-03-24T10:40:36Z</time>
      </trkpt>
      <trkpt lat="43.85441" lon="7.25333">
        <ele>775.92</ele>
        <time>2013-03-24T10:40:45Z</time>
      </trkpt>
      <trkpt lat="43.85439" lon="7.25333">
        <ele>776.4</ele>
        <time>2013-03-24T10:40:46Z</time>
      </trkpt>
      <trkpt lat="43.85424" lon="7.25337">
        <ele>775.44</ele>
        <time>2013-03-24T10:40:51Z</time>
      </trkpt>
      <trkpt lat="43.85407" lon="7.25327">
        <ele>774.48</ele>
        <time>2013-03-24T10:40:56Z</time>
      </trkpt>
      <trkpt lat="43.85363" lon="7.25312">
        <ele>771.6</ele>
        <time>2013-03-24T10:41:04Z</time>
      </trkpt>
      <trkpt lat="43.85334" lon="7.25307">
        <ele>768.71</ele>
        <time>2013-03-24T10:41:09Z</time>
      </trkpt>
      <trkpt lat="43.85257" lon="7.25327">
        <ele>759.58</ele>
        <time>2013-03-24T10:41:21Z</time>
      </trkpt>
      <trkpt lat="43.85252" lon="7.25329">
        <ele>758.62</ele>
        <time>2013-03-24T10:41:22Z</time>
      </trkpt>
      <trkpt lat="43.8523" lon="7.25334">
        <ele>755.25</ele>
        <time>2013-03-24T10:41:26Z</time>
      </trkpt>
      <trkpt lat="43.8521" lon="7.25344">
        <ele>751.41</ele>
        <time>2013-03-24T10:41:31Z</time>
      </trkpt>
      <trkpt lat="43.85197" lon="7.25343">
        <ele>748.52</ele>
        <time>2013-03-24T10:41:34Z</time>
      </trkpt>
      <trkpt lat="43.85179" lon="7.25315">
        <ele>742.76</ele>
        <time>2013-03-24T10:41:42Z</time>
      </trkpt>
      <trkpt lat="43.85166" lon="7.25303">
        <ele>742.76</ele>
        <time>2013-03-24T10:41:47Z</time>
      </trkpt>
      <trkpt lat="43.85154" lon="7.25297">
        <ele>741.79</ele>
        <time>2013-03-24T10:41:50Z</time>
      </trkpt>
      <trkpt lat="43.85144" lon="7.25287">
        <ele>740.35</ele>
        <time>2013-03-24T10:41:53Z</time>
      </trkpt>
      <trkpt lat="43.85129" lon="7.25266">
        <ele>736.99</ele>
        <time>2013-03-24T10:41:58Z</time>
      </trkpt>
      <trkpt lat="43.85118" lon="7.25255">
        <ele>734.58</ele>
        <time>2013-03-24T10:42:02Z</time>
      </trkpt>
      <trkpt lat="43.8509" lon="7.25241">
        <ele>727.86</ele>
        <time>2013-03-24T10:42:12Z</time>
      </trkpt>
      <trkpt lat="43.85073" lon="7.25233">
        <ele>724.49</ele>
        <time>2013-03-24T10:42:18Z</time>
      </trkpt>
      <trkpt lat="43.85055" lon="7.25216">
        <ele>720.16</ele>
        <time>2013-03-24T10:42:24Z</time>
      </trkpt>
      <trkpt lat="43.85035" lon="7.25214">
        <ele>715.36</ele>
        <time>2013-03-24T10:42:31Z</time>
      </trkpt>
      <trkpt lat="43.85021" lon="7.25209">
        <ele>713.44</ele>
        <time>2013-03-24T10:42:35Z</time>
      </trkpt>
      <trkpt lat="43.85009" lon="7.25204">
        <ele>712.95</ele>
        <time>2013-03-24T10:42:38Z</time>
      </trkpt>
      <trkpt lat="43.84976" lon="7.25198">
        <ele>711.99</ele>
        <time>2013-03-24T10:42:46Z</time>
      </trkpt>
      <trkpt lat="43.8496" lon="7.2519">
        <ele>713.92</ele>
        <time>2013-03-24T10:42:51Z</time>
      </trkpt>
      <trkpt lat="43.84924" lon="7.2518">
        <ele>715.36</ele>
        <time>2013-03-24T10:43:04Z</time>
      </trkpt>
      <trkpt lat="43.84906" lon="7.25173">
        <ele>716.32</ele>
        <time>2013-03-24T10:43:11Z</time>
      </trkpt>
      <trkpt lat="43.84892" lon="7.25157">
        <ele>714.88</ele>
        <time>2013-03-24T10:43:17Z</time>
      </trkpt>
      <trkpt lat="43.84879" lon="7.25129">
        <ele>709.11</ele>
        <time>2013-03-24T10:43:25Z</time>
      </trkpt>
      <trkpt lat="43.84876" lon="7.2512">
        <ele>707.19</ele>
        <time>2013-03-24T10:43:27Z</time>
      </trkpt>
      <trkpt lat="43.84864" lon="7.25105">
        <ele>699.98</ele>
        <time>2013-03-24T10:43:33Z</time>
      </trkpt>
      <trkpt lat="43.84865" lon="7.25096">
        <ele>697.09</ele>
        <time>2013-03-24T10:43:35Z</time>
      </trkpt>
      <trkpt lat="43.8484" lon="7.25084">
        <ele>687.48</ele>
        <time>2013-03-24T10:43:44Z</time>
      </trkpt>
      <trkpt lat="43.84829" lon="7.25086">
        <ele>686.52</ele>
        <time>2013-03-24T10:43:48Z</time>
      </trkpt>
      <trkpt lat="43.84794" lon="7.25066">
        <ele>679.79</ele>
        <time>2013-03-24T10:43:59Z</time>
      </trkpt>
      <trkpt lat="43.84792" lon="7.25065">
        <ele>678.83</ele>
        <time>2013-03-24T10:44:00Z</time>
      </trkpt>
      <trkpt lat="43.84787" lon="7.25057">
        <ele>676.42</ele>
        <time>2013-03-24T10:44:03Z</time>
      </trkpt>
      <trkpt lat="43.84783" lon="7.25036">
        <ele>672.1</ele>
        <time>2013-03-24T10:44:12Z</time>
      </trkpt>
      <trkpt lat="43.84784" lon="7.25038">
        <ele>669.22</ele>
        <time>2013-03-24T10:44:39Z</time>
      </trkpt>
      <trkpt lat="43.84783" lon="7.25036">
        <ele>669.7</ele>
        <time>2013-03-24T10:44:41Z</time>
      </trkpt>
      <trkpt lat="43.84778" lon="7.25026">
        <ele>669.22</ele>
        <time>2013-03-24T10:44:46Z</time>
      </trkpt>
      <trkpt lat="43.84762" lon="7.24995">
        <ele>665.37</ele>
        <time>2013-03-24T10:44:56Z</time>
      </trkpt>
      <trkpt lat="43.84744" lon="7.24966">
        <ele>661.04</ele>
        <time>2013-03-24T10:45:05Z</time>
      </trkpt>
      <trkpt lat="43.84732" lon="7.24929">
        <ele>654.8</ele>
        <time>2013-03-24T10:45:11Z</time>
      </trkpt>
      <trkpt lat="43.8472" lon="7.24905">
        <ele>649.03</ele>
        <time>2013-03-24T10:45:16Z</time>
      </trkpt>
      <trkpt lat="43.84716" lon="7.24899">
        <ele>647.59</ele>
        <time>2013-03-24T10:45:18Z</time>
      </trkpt>
      <trkpt lat="43.84703" lon="7.24878">
        <ele>643.74</ele>
        <time>2013-03-24T10:45:23Z</time>
      </trkpt>
      <trkpt lat="43.84711" lon="7.24827">
        <ele>640.38</ele>
        <time>2013-03-24T10:45:33Z</time>
      </trkpt>
      <trkpt lat="43.84713" lon="7.24823">
        <ele>640.38</ele>
        <time>2013-03-24T10:45:34Z</time>
      </trkpt>
      <trkpt lat="43.84742" lon="7.24807">
        <ele>643.26</ele>
        <time>2013-03-24T10:45:46Z</time>
      </trkpt>
      <trkpt lat="43.84764" lon="7.2479">
        <ele>644.22</ele>
        <time>2013-03-24T10:45:57Z</time>
      </trkpt>
      <trkpt lat="43.84784" lon="7.24762">
        <ele>644.7</ele>
        <time>2013-03-24T10:46:09Z</time>
      </trkpt>
      <trkpt lat="43.84801" lon="7.24721">
        <ele>641.82</ele>
        <time>2013-03-24T10:46:19Z</time>
      </trkpt>
      <trkpt lat="43.84802" lon="7.24686">
        <ele>639.89</ele>
        <time>2013-03-24T10:46:27Z</time>
      </trkpt>
      <trkpt lat="43.84812" lon="7.24667">
        <ele>638.93</ele>
        <time>2013-03-24T10:46:31Z</time>
      </trkpt>
      <trkpt lat="43.84809" lon="7.24645">
        <ele>636.53</ele>
        <time>2013-03-24T10:46:36Z</time>
      </trkpt>
      <trkpt lat="43.84789" lon="7.24628">
        <ele>637.01</ele>
        <time>2013-03-24T10:46:43Z</time>
      </trkpt>
      <trkpt lat="43.84771" lon="7.24597">
        <ele>636.53</ele>
        <time>2013-03-24T10:46:49Z</time>
      </trkpt>
      <trkpt lat="43.84762" lon="7.24551">
        <ele>631.72</ele>
        <time>2013-03-24T10:46:57Z</time>
      </trkpt>
      <trkpt lat="43.84752" lon="7.24514">
        <ele>626.92</ele>
        <time>2013-03-24T10:47:04Z</time>
      </trkpt>
      <trkpt lat="43.84747" lon="7.24513">
        <ele>625.47</ele>
        <time>2013-03-24T10:47:09Z</time>
      </trkpt>
      <trkpt lat="43.84743" lon="7.24523">
        <ele>624.99</ele>
        <time>2013-03-24T10:47:14Z</time>
      </trkpt>
      <trkpt lat="43.8472" lon="7.24555">
        <ele>625.47</ele>
        <time>2013-03-24T10:47:26Z</time>
      </trkpt>
      <trkpt lat="43.84694" lon="7.24582">
        <ele>624.03</ele>
        <time>2013-03-24T10:47:37Z</time>
      </trkpt>
      <trkpt lat="43.84673" lon="7.24606">
        <ele>622.59</ele>
        <time>2013-03-24T10:47:46Z</time>
      </trkpt>
      <trkpt lat="43.84653" lon="7.24615">
        <ele>622.11</ele>
        <time>2013-03-24T10:47:52Z</time>
      </trkpt>
      <trkpt lat="43.84639" lon="7.24609">
        <ele>623.07</ele>
        <time>2013-03-24T10:47:56Z</time>
      </trkpt>
      <trkpt lat="43.84615" lon="7.24609">
        <ele>623.55</ele>
        <time>2013-03-24T10:48:06Z</time>
      </trkpt>
      <trkpt lat="43.84606" lon="7.24606">
        <ele>624.99</ele>
        <time>2013-03-24T10:48:16Z</time>
      </trkpt>
      <trkpt lat="43.84603" lon="7.24605">
        <ele>624.99</ele>
        <time>2013-03-24T10:48:19Z</time>
      </trkpt>
      <trkpt lat="43.84582" lon="7.24593">
        <ele>626.44</ele>
        <time>2013-03-24T10:48:29Z</time>
      </trkpt>
      <trkpt lat="43.84558" lon="7.24586">
        <ele>629.32</ele>
        <time>2013-03-24T10:48:40Z</time>
      </trkpt>
      <trkpt lat="43.84539" lon="7.24581">
        <ele>630.76</ele>
        <time>2013-03-24T10:48:51Z</time>
      </trkpt>
      <trkpt lat="43.84536" lon="7.2458">
        <ele>630.76</ele>
        <time>2013-03-24T10:48:52Z</time>
      </trkpt>
      <trkpt lat="43.84525" lon="7.2459">
        <ele>629.32</ele>
        <time>2013-03-24T10:48:57Z</time>
      </trkpt>
      <trkpt lat="43.84516" lon="7.24657">
        <ele>629.32</ele>
        <time>2013-03-24T10:49:13Z</time>
      </trkpt>
      <trkpt lat="43.84509" lon="7.24679">
        <ele>628.84</ele>
        <time>2013-03-24T10:49:18Z</time>
      </trkpt>
      <trkpt lat="43.84474" lon="7.24695">
        <ele>625.47</ele>
        <time>2013-03-24T10:49:29Z</time>
      </trkpt>
      <trkpt lat="43.84462" lon="7.24698">
        <ele>625.47</ele>
        <time>2013-03-24T10:49:34Z</time>
      </trkpt>
      <trkpt lat="43.84426" lon="7.2469">
        <ele>627.4</ele>
        <time>2013-03-24T10:49:47Z</time>
      </trkpt>
      <trkpt lat="43.84403" lon="7.24684">
        <ele>629.8</ele>
        <time>2013-03-24T10:49:55Z</time>
      </trkpt>
      <trkpt lat="43.84387" lon="7.24697">
        <ele>630.76</ele>
        <time>2013-03-24T10:50:05Z</time>
      </trkpt>
      <trkpt lat="43.84374" lon="7.24697">
        <ele>630.76</ele>
        <time>2013-03-24T10:50:10Z</time>
      </trkpt>
      <trkpt lat="43.84367" lon="7.2468">
        <ele>630.28</ele>
        <time>2013-03-24T10:50:19Z</time>
      </trkpt>
      <trkpt lat="43.84361" lon="7.24667">
        <ele>627.88</ele>
        <time>2013-03-24T10:50:23Z</time>
      </trkpt>
      <trkpt lat="43.84353" lon="7.24659">
        <ele>625.96</ele>
        <time>2013-03-24T10:50:26Z</time>
      </trkpt>
      <trkpt lat="43.84347" lon="7.2463">
        <ele>620.67</ele>
        <time>2013-03-24T10:50:35Z</time>
      </trkpt>
      <trkpt lat="43.84345" lon="7.24631">
        <ele>620.19</ele>
        <time>2013-03-24T10:50:36Z</time>
      </trkpt>
      <trkpt lat="43.84339" lon="7.24637">
        <ele>620.67</ele>
        <time>2013-03-24T10:50:39Z</time>
      </trkpt>
      <trkpt lat="43.84336" lon="7.24657">
        <ele>623.07</ele>
        <time>2013-03-24T10:50:46Z</time>
      </trkpt>
      <trkpt lat="43.84337" lon="7.24665">
        <ele>624.99</ele>
        <time>2013-03-24T10:50:54Z</time>
      </trkpt>
      <trkpt lat="43.84335" lon="7.24676">
        <ele>627.4</ele>
        <time>2013-03-24T10:51:01Z</time>
      </trkpt>
      <trkpt lat="43.84337" lon="7.24683">
        <ele>627.4</ele>
        <time>2013-03-24T10:51:04Z</time>
      </trkpt>
      <trkpt lat="43.84335" lon="7.24703">
        <ele>627.4</ele>
        <time>2013-03-24T10:51:08Z</time>
      </trkpt>
      <trkpt lat="43.84328" lon="7.24736">
        <ele>626.44</ele>
        <time>2013-03-24T10:51:13Z</time>
      </trkpt>
      <trkpt lat="43.84325" lon="7.2475">
        <ele>624.99</ele>
        <time>2013-03-24T10:51:15Z</time>
      </trkpt>
      <trkpt lat="43.84321" lon="7.24805">
        <ele>621.63</ele>
        <time>2013-03-24T10:51:25Z</time>
      </trkpt>
      <trkpt lat="43.84315" lon="7.2482">
        <ele>622.59</ele>
        <time>2013-03-24T10:51:30Z</time>
      </trkpt>
      <trkpt lat="43.84304" lon="7.24829">
        <ele>624.03</ele>
        <time>2013-03-24T10:51:42Z</time>
      </trkpt>
      <trkpt lat="43.84299" lon="7.24831">
        <ele>624.51</ele>
        <time>2013-03-24T10:51:47Z</time>
      </trkpt>
      <trkpt lat="43.84288" lon="7.24827">
        <ele>624.03</ele>
        <time>2013-03-24T10:51:52Z</time>
      </trkpt>
      <trkpt lat="43.84289" lon="7.24839">
        <ele>623.55</ele>
        <time>2013-03-24T10:52:00Z</time>
      </trkpt>
      <trkpt lat="43.84306" lon="7.24857">
        <ele>625.47</ele>
        <time>2013-03-24T10:52:14Z</time>
      </trkpt>
      <trkpt lat="43.84305" lon="7.24857">
        <ele>622.59</ele>
        <time>2013-03-24T10:52:27Z</time>
      </trkpt>
      <trkpt lat="43.8431" lon="7.2486">
        <ele>622.11</ele>
        <time>2013-03-24T10:52:44Z</time>
      </trkpt>
      <trkpt lat="43.8433" lon="7.24865">
        <ele>624.03</ele>
        <time>2013-03-24T10:53:01Z</time>
      </trkpt>
      <trkpt lat="43.84346" lon="7.24862">
        <ele>625.96</ele>
        <time>2013-03-24T10:53:12Z</time>
      </trkpt>
      <trkpt lat="43.84351" lon="7.24862">
        <ele>625.47</ele>
        <time>2013-03-24T10:53:14Z</time>
      </trkpt>
      <trkpt lat="43.84357" lon="7.24843">
        <ele>622.59</ele>
        <time>2013-03-24T10:53:21Z</time>
      </trkpt>
      <trkpt lat="43.84365" lon="7.24824">
        <ele>618.75</ele>
        <time>2013-03-24T10:53:26Z</time>
      </trkpt>
      <trkpt lat="43.84377" lon="7.24816">
        <ele>617.3</ele>
        <time>2013-03-24T10:53:31Z</time>
      </trkpt>
      <trkpt lat="43.84407" lon="7.24824">
        <ele>614.9</ele>
        <time>2013-03-24T10:53:42Z</time>
      </trkpt>
      <trkpt lat="43.84459" lon="7.24829">
        <ele>614.9</ele>
        <time>2013-03-24T10:53:59Z</time>
      </trkpt>
      <trkpt lat="43.84472" lon="7.24834">
        <ele>615.38</ele>
        <time>2013-03-24T10:54:04Z</time>
      </trkpt>
      <trkpt lat="43.84498" lon="7.24834">
        <ele>621.63</ele>
        <time>2013-03-24T10:54:17Z</time>
      </trkpt>
      <trkpt lat="43.84505" lon="7.2484">
        <ele>621.63</ele>
        <time>2013-03-24T10:54:21Z</time>
      </trkpt>
      <trkpt lat="43.84512" lon="7.24855">
        <ele>622.11</ele>
        <time>2013-03-24T10:54:26Z</time>
      </trkpt>
      <trkpt lat="43.84524" lon="7.24855">
        <ele>624.51</ele>
        <time>2013-03-24T10:54:34Z</time>
      </trkpt>
      <trkpt lat="43.84534" lon="7.24847">
        <ele>625.47</ele>
        <time>2013-03-24T10:54:47Z</time>
      </trkpt>
      <trkpt lat="43.8454" lon="7.24845">
        <ele>626.92</ele>
        <time>2013-03-24T10:54:54Z</time>
      </trkpt>
      <trkpt lat="43.84546" lon="7.24836">
        <ele>627.88</ele>
        <time>2013-03-24T10:55:04Z</time>
      </trkpt>
      <trkpt lat="43.84555" lon="7.24839">
        <ele>629.32</ele>
        <time>2013-03-24T10:55:13Z</time>
      </trkpt>
      <trkpt lat="43.84558" lon="7.24845">
        <ele>629.8</ele>
        <time>2013-03-24T10:55:17Z</time>
      </trkpt>
      <trkpt lat="43.84572" lon="7.24849">
        <ele>629.32</ele>
        <time>2013-03-24T10:55:30Z</time>
      </trkpt>
      <trkpt lat="43.84587" lon="7.2485">
        <ele>635.09</ele>
        <time>2013-03-24T10:55:43Z</time>
      </trkpt>
      <trkpt lat="43.84601" lon="7.24837">
        <ele>634.61</ele>
        <time>2013-03-24T10:55:59Z</time>
      </trkpt>
      <trkpt lat="43.84619" lon="7.24826">
        <ele>636.53</ele>
        <time>2013-03-24T10:56:13Z</time>
      </trkpt>
      <trkpt lat="43.84622" lon="7.24824">
        <ele>637.01</ele>
        <time>2013-03-24T10:56:16Z</time>
      </trkpt>
      <trkpt lat="43.84629" lon="7.24826">
        <ele>637.49</ele>
        <time>2013-03-24T10:56:22Z</time>
      </trkpt>
      <trkpt lat="43.84642" lon="7.2482">
        <ele>638.45</ele>
        <time>2013-03-24T10:56:36Z</time>
      </trkpt>
      <trkpt lat="43.84665" lon="7.24814">
        <ele>644.22</ele>
        <time>2013-03-24T10:56:49Z</time>
      </trkpt>
      <trkpt lat="43.84687" lon="7.24833">
        <ele>645.18</ele>
        <time>2013-03-24T10:57:04Z</time>
      </trkpt>
      <trkpt lat="43.84698" lon="7.24855">
        <ele>645.66</ele>
        <time>2013-03-24T10:57:18Z</time>
      </trkpt>
      <trkpt lat="43.84696" lon="7.24865">
        <ele>644.22</ele>
        <time>2013-03-24T10:57:26Z</time>
      </trkpt>
      <trkpt lat="43.84694" lon="7.24889">
        <ele>644.7</ele>
        <time>2013-03-24T10:57:42Z</time>
      </trkpt>
      <trkpt lat="43.84692" lon="7.249">
        <ele>648.55</ele>
        <time>2013-03-24T10:57:54Z</time>
      </trkpt>
      <trkpt lat="43.84689" lon="7.24911">
        <ele>649.99</ele>
        <time>2013-03-24T10:58:05Z</time>
      </trkpt>
      <trkpt lat="43.84682" lon="7.24918">
        <ele>651.43</ele>
        <time>2013-03-24T10:58:13Z</time>
      </trkpt>
      <trkpt lat="43.84675" lon="7.24927">
        <ele>651.91</ele>
        <time>2013-03-24T10:58:22Z</time>
      </trkpt>
      <trkpt lat="43.8467" lon="7.24937">
        <ele>652.39</ele>
        <time>2013-03-24T10:58:30Z</time>
      </trkpt>
      <trkpt lat="43.84662" lon="7.24946">
        <ele>652.87</ele>
        <time>2013-03-24T10:58:40Z</time>
      </trkpt>
      <trkpt lat="43.8466" lon="7.24948">
        <ele>653.35</ele>
        <time>2013-03-24T10:58:42Z</time>
      </trkpt>
      <trkpt lat="43.84647" lon="7.24953">
        <ele>655.76</ele>
        <time>2013-03-24T10:58:53Z</time>
      </trkpt>
      <trkpt lat="43.84641" lon="7.24963">
        <ele>657.68</ele>
        <time>2013-03-24T10:59:06Z</time>
      </trkpt>
      <trkpt lat="43.8464" lon="7.24972">
        <ele>657.68</ele>
        <time>2013-03-24T10:59:14Z</time>
      </trkpt>
      <trkpt lat="43.84642" lon="7.24978">
        <ele>658.16</ele>
        <time>2013-03-24T10:59:19Z</time>
      </trkpt>
      <trkpt lat="43.84651" lon="7.24993">
        <ele>659.6</ele>
        <time>2013-03-24T10:59:30Z</time>
      </trkpt>
      <trkpt lat="43.84666" lon="7.24998">
        <ele>662.97</ele>
        <time>2013-03-24T10:59:41Z</time>
      </trkpt>
      <trkpt lat="43.84683" lon="7.25001">
        <ele>667.29</ele>
        <time>2013-03-24T10:59:52Z</time>
      </trkpt>
      <trkpt lat="43.84689" lon="7.25006">
        <ele>667.29</ele>
        <time>2013-03-24T10:59:56Z</time>
      </trkpt>
      <trkpt lat="43.84704" lon="7.25034">
        <ele>663.93</ele>
        <time>2013-03-24T11:00:05Z</time>
      </trkpt>
      <trkpt lat="43.84705" lon="7.25037">
        <ele>664.41</ele>
        <time>2013-03-24T11:00:08Z</time>
      </trkpt>
      <trkpt lat="43.84715" lon="7.25047">
        <ele>668.25</ele>
        <time>2013-03-24T11:00:25Z</time>
      </trkpt>
      <trkpt lat="43.84719" lon="7.25048">
        <ele>667.77</ele>
        <time>2013-03-24T11:00:30Z</time>
      </trkpt>
      <trkpt lat="43.84732" lon="7.25056">
        <ele>670.18</ele>
        <time>2013-03-24T11:00:45Z</time>
      </trkpt>
      <trkpt lat="43.84743" lon="7.25067">
        <ele>673.06</ele>
        <time>2013-03-24T11:00:57Z</time>
      </trkpt>
      <trkpt lat="43.8475" lon="7.25068">
        <ele>673.54</ele>
        <time>2013-03-24T11:01:03Z</time>
      </trkpt>
      <trkpt lat="43.84754" lon="7.25066">
        <ele>673.54</ele>
        <time>2013-03-24T11:01:09Z</time>
      </trkpt>
      <trkpt lat="43.84766" lon="7.25068">
        <ele>674.02</ele>
        <time>2013-03-24T11:01:20Z</time>
      </trkpt>
      <trkpt lat="43.84768" lon="7.25074">
        <ele>674.98</ele>
        <time>2013-03-24T11:01:24Z</time>
      </trkpt>
      <trkpt lat="43.8476" lon="7.25088">
        <ele>673.06</ele>
        <time>2013-03-24T11:01:33Z</time>
      </trkpt>
      <trkpt lat="43.84739" lon="7.25107">
        <ele>670.18</ele>
        <time>2013-03-24T11:01:45Z</time>
      </trkpt>
      <trkpt lat="43.84719" lon="7.25128">
        <ele>672.58</ele>
        <time>2013-03-24T11:01:58Z</time>
      </trkpt>
      <trkpt lat="43.84712" lon="7.25134">
        <ele>673.54</ele>
        <time>2013-03-24T11:02:01Z</time>
      </trkpt>
      <trkpt lat="43.84699" lon="7.25134">
        <ele>673.54</ele>
        <time>2013-03-24T11:02:06Z</time>
      </trkpt>
      <trkpt lat="43.84672" lon="7.25137">
        <ele>675.94</ele>
        <time>2013-03-24T11:02:18Z</time>
      </trkpt>
      <trkpt lat="43.84655" lon="7.25143">
        <ele>676.42</ele>
        <time>2013-03-24T11:02:27Z</time>
      </trkpt>
      <trkpt lat="43.84651" lon="7.25145">
        <ele>676.42</ele>
        <time>2013-03-24T11:02:31Z</time>
      </trkpt>
      <trkpt lat="43.84628" lon="7.2515">
        <ele>675.94</ele>
        <time>2013-03-24T11:02:43Z</time>
      </trkpt>
      <trkpt lat="43.84625" lon="7.2515">
        <ele>675.94</ele>
        <time>2013-03-24T11:02:48Z</time>
      </trkpt>
      <trkpt lat="43.84612" lon="7.25156">
        <ele>677.39</ele>
        <time>2013-03-24T11:03:02Z</time>
      </trkpt>
      <trkpt lat="43.84595" lon="7.25164">
        <ele>677.39</ele>
        <time>2013-03-24T11:03:14Z</time>
      </trkpt>
      <trkpt lat="43.84593" lon="7.25175">
        <ele>677.87</ele>
        <time>2013-03-24T11:03:18Z</time>
      </trkpt>
      <trkpt lat="43.8457" lon="7.25206">
        <ele>678.83</ele>
        <time>2013-03-24T11:03:31Z</time>
      </trkpt>
      <trkpt lat="43.84541" lon="7.25222">
        <ele>678.35</ele>
        <time>2013-03-24T11:03:43Z</time>
      </trkpt>
      <trkpt lat="43.84516" lon="7.25233">
        <ele>677.87</ele>
        <time>2013-03-24T11:03:54Z</time>
      </trkpt>
      <trkpt lat="43.8451" lon="7.25239">
        <ele>678.35</ele>
        <time>2013-03-24T11:04:01Z</time>
      </trkpt>
      <trkpt lat="43.84514" lon="7.25239">
        <ele>678.83</ele>
        <time>2013-03-24T11:04:05Z</time>
      </trkpt>
      <trkpt lat="43.84534" lon="7.25241">
        <ele>682.67</ele>
        <time>2013-03-24T11:04:22Z</time>
      </trkpt>
      <trkpt lat="43.84546" lon="7.25245">
        <ele>685.56</ele>
        <time>2013-03-24T11:04:36Z</time>
      </trkpt>
      <trkpt lat="43.84558" lon="7.25249">
        <ele>689.4</ele>
        <time>2013-03-24T11:04:53Z</time>
      </trkpt>
      <trkpt lat="43.84568" lon="7.25251">
        <ele>696.13</ele>
        <time>2013-03-24T11:05:08Z</time>
      </trkpt>
      <trkpt lat="43.84584" lon="7.25253">
        <ele>698.53</ele>
        <time>2013-03-24T11:05:26Z</time>
      </trkpt>
      <trkpt lat="43.84598" lon="7.25257">
        <ele>704.3</ele>
        <time>2013-03-24T11:05:41Z</time>
      </trkpt>
      <trkpt lat="43.84602" lon="7.25259">
        <ele>705.26</ele>
        <time>2013-03-24T11:05:46Z</time>
      </trkpt>
      <trkpt lat="43.84612" lon="7.25261">
        <ele>706.71</ele>
        <time>2013-03-24T11:05:56Z</time>
      </trkpt>
      <trkpt lat="43.84623" lon="7.25252">
        <ele>711.99</ele>
        <time>2013-03-24T11:06:11Z</time>
      </trkpt>
      <trkpt lat="43.84626" lon="7.25253">
        <ele>712.47</ele>
        <time>2013-03-24T11:06:14Z</time>
      </trkpt>
      <trkpt lat="43.84635" lon="7.25256">
        <ele>714.4</ele>
        <time>2013-03-24T11:06:27Z</time>
      </trkpt>
      <trkpt lat="43.84637" lon="7.25258">
        <ele>714.4</ele>
        <time>2013-03-24T11:06:41Z</time>
      </trkpt>
      <trkpt lat="43.84636" lon="7.25258">
        <ele>711.99</ele>
        <time>2013-03-24T11:06:58Z</time>
      </trkpt>
      <trkpt lat="43.84639" lon="7.25257">
        <ele>710.55</ele>
        <time>2013-03-24T11:07:25Z</time>
      </trkpt>
      <trkpt lat="43.84639" lon="7.2526">
        <ele>709.59</ele>
        <time>2013-03-24T11:07:40Z</time>
      </trkpt>
      <trkpt lat="43.84638" lon="7.25257">
        <ele>709.11</ele>
        <time>2013-03-24T11:07:52Z</time>
      </trkpt>
      <trkpt lat="43.84636" lon="7.2526">
        <ele>704.3</ele>
        <time>2013-03-24T11:08:27Z</time>
      </trkpt>
      <trkpt lat="43.84637" lon="7.25259">
        <ele>704.3</ele>
        <time>2013-03-24T11:08:41Z</time>
      </trkpt>
      <trkpt lat="43.84636" lon="7.2526">
        <ele>706.23</ele>
        <time>2013-03-24T11:08:57Z</time>
      </trkpt>
      <trkpt lat="43.84637" lon="7.25259">
        <ele>706.23</ele>
        <time>2013-03-24T11:09:01Z</time>
      </trkpt>
      <trkpt lat="43.84646" lon="7.25257">
        <ele>708.63</ele>
        <time>2013-03-24T11:09:16Z</time>
      </trkpt>
      <trkpt lat="43.84647" lon="7.25257">
        <ele>708.15</ele>
        <time>2013-03-24T11:09:17Z</time>
      </trkpt>
      <trkpt lat="43.8468" lon="7.2526">
        <ele>712.47</ele>
        <time>2013-03-24T11:09:31Z</time>
      </trkpt>
      <trkpt lat="43.84707" lon="7.25266">
        <ele>713.92</ele>
        <time>2013-03-24T11:09:42Z</time>
      </trkpt>
      <trkpt lat="43.84731" lon="7.25274">
        <ele>717.28</ele>
        <time>2013-03-24T11:09:56Z</time>
      </trkpt>
      <trkpt lat="43.8474" lon="7.25272">
        <ele>716.8</ele>
        <time>2013-03-24T11:10:04Z</time>
      </trkpt>
      <trkpt lat="43.8475" lon="7.25275">
        <ele>718.72</ele>
        <time>2013-03-24T11:10:15Z</time>
      </trkpt>
      <trkpt lat="43.84765" lon="7.25276">
        <ele>722.57</ele>
        <time>2013-03-24T11:10:31Z</time>
      </trkpt>
      <trkpt lat="43.84776" lon="7.25274">
        <ele>725.45</ele>
        <time>2013-03-24T11:10:45Z</time>
      </trkpt>
      <trkpt lat="43.84786" lon="7.25274">
        <ele>726.41</ele>
        <time>2013-03-24T11:10:58Z</time>
      </trkpt>
      <trkpt lat="43.8479" lon="7.25274">
        <ele>727.37</ele>
        <time>2013-03-24T11:11:02Z</time>
      </trkpt>
      <trkpt lat="43.84799" lon="7.25272">
        <ele>731.7</ele>
        <time>2013-03-24T11:11:14Z</time>
      </trkpt>
      <trkpt lat="43.84811" lon="7.25274">
        <ele>734.58</ele>
        <time>2013-03-24T11:11:30Z</time>
      </trkpt>
      <trkpt lat="43.8482" lon="7.25275">
        <ele>735.07</ele>
        <time>2013-03-24T11:11:43Z</time>
      </trkpt>
      <trkpt lat="43.84833" lon="7.25273">
        <ele>739.39</ele>
        <time>2013-03-24T11:11:58Z</time>
      </trkpt>
      <trkpt lat="43.84845" lon="7.25275">
        <ele>743.72</ele>
        <time>2013-03-24T11:12:13Z</time>
      </trkpt>
      <trkpt lat="43.84855" lon="7.25278">
        <ele>746.6</ele>
        <time>2013-03-24T11:12:28Z</time>
      </trkpt>
      <trkpt lat="43.84861" lon="7.25281">
        <ele>747.56</ele>
        <time>2013-03-24T11:12:42Z</time>
      </trkpt>
      <trkpt lat="43.84869" lon="7.25284">
        <ele>749</ele>
        <time>2013-03-24T11:12:55Z</time>
      </trkpt>
      <trkpt lat="43.84876" lon="7.25285">
        <ele>749.97</ele>
        <time>2013-03-24T11:13:09Z</time>
      </trkpt>
      <trkpt lat="43.84886" lon="7.25288">
        <ele>750.93</ele>
        <time>2013-03-24T11:13:25Z</time>
      </trkpt>
      <trkpt lat="43.84896" lon="7.25291">
        <ele>752.37</ele>
        <time>2013-03-24T11:13:39Z</time>
      </trkpt>
      <trkpt lat="43.84906" lon="7.25294">
        <ele>754.77</ele>
        <time>2013-03-24T11:13:51Z</time>
      </trkpt>
      <trkpt lat="43.84921" lon="7.25294">
        <ele>757.66</ele>
        <time>2013-03-24T11:14:07Z</time>
      </trkpt>
      <trkpt lat="43.84929" lon="7.25298">
        <ele>758.62</ele>
        <time>2013-03-24T11:14:15Z</time>
      </trkpt>
      <trkpt lat="43.84955" lon="7.25308">
        <ele>759.1</ele>
        <time>2013-03-24T11:14:31Z</time>
      </trkpt>
      <trkpt lat="43.84983" lon="7.25308">
        <ele>761.5</ele>
        <time>2013-03-24T11:14:45Z</time>
      </trkpt>
      <trkpt lat="43.85015" lon="7.25316">
        <ele>763.42</ele>
        <time>2013-03-24T11:14:59Z</time>
      </trkpt>
      <trkpt lat="43.85049" lon="7.25327">
        <ele>768.23</ele>
        <time>2013-03-24T11:15:17Z</time>
      </trkpt>
      <trkpt lat="43.85078" lon="7.25334">
        <ele>770.63</ele>
        <time>2013-03-24T11:15:33Z</time>
      </trkpt>
      <trkpt lat="43.85108" lon="7.25337">
        <ele>771.6</ele>
        <time>2013-03-24T11:15:52Z</time>
      </trkpt>
      <trkpt lat="43.85145" lon="7.25332">
        <ele>761.5</ele>
        <time>2013-03-24T11:16:02Z</time>
      </trkpt>
      <trkpt lat="43.85174" lon="7.25329">
        <ele>752.85</ele>
        <time>2013-03-24T11:16:07Z</time>
      </trkpt>
      <trkpt lat="43.85205" lon="7.25342">
        <ele>748.52</ele>
        <time>2013-03-24T11:16:14Z</time>
      </trkpt>
      <trkpt lat="43.85212" lon="7.25357">
        <ele>750.45</ele>
        <time>2013-03-24T11:16:22Z</time>
      </trkpt>
      <trkpt lat="43.85214" lon="7.25373">
        <ele>751.89</ele>
        <time>2013-03-24T11:16:28Z</time>
      </trkpt>
      <trkpt lat="43.85218" lon="7.25386">
        <ele>754.77</ele>
        <time>2013-03-24T11:16:38Z</time>
      </trkpt>
      <trkpt lat="43.85224" lon="7.25402">
        <ele>758.14</ele>
        <time>2013-03-24T11:16:54Z</time>
      </trkpt>
      <trkpt lat="43.85226" lon="7.25416">
        <ele>759.58</ele>
        <time>2013-03-24T11:17:07Z</time>
      </trkpt>
      <trkpt lat="43.85226" lon="7.25436">
        <ele>761.5</ele>
        <time>2013-03-24T11:17:20Z</time>
      </trkpt>
      <trkpt lat="43.85229" lon="7.25443">
        <ele>761.98</ele>
        <time>2013-03-24T11:17:25Z</time>
      </trkpt>
      <trkpt lat="43.85231" lon="7.2545">
        <ele>762.94</ele>
        <time>2013-03-24T11:17:30Z</time>
      </trkpt>
      <trkpt lat="43.85238" lon="7.25467">
        <ele>765.83</ele>
        <time>2013-03-24T11:17:45Z</time>
      </trkpt>
      <trkpt lat="43.85247" lon="7.25485">
        <ele>768.23</ele>
        <time>2013-03-24T11:18:01Z</time>
      </trkpt>
      <trkpt lat="43.85255" lon="7.255">
        <ele>771.11</ele>
        <time>2013-03-24T11:18:16Z</time>
      </trkpt>
      <trkpt lat="43.85258" lon="7.25513">
        <ele>773.04</ele>
        <time>2013-03-24T11:18:29Z</time>
      </trkpt>
      <trkpt lat="43.85262" lon="7.25526">
        <ele>774</ele>
        <time>2013-03-24T11:18:43Z</time>
      </trkpt>
      <trkpt lat="43.85264" lon="7.25539">
        <ele>776.4</ele>
        <time>2013-03-24T11:18:57Z</time>
      </trkpt>
      <trkpt lat="43.85273" lon="7.2555">
        <ele>779.77</ele>
        <time>2013-03-24T11:19:13Z</time>
      </trkpt>
      <trkpt lat="43.85282" lon="7.25558">
        <ele>782.65</ele>
        <time>2013-03-24T11:19:29Z</time>
      </trkpt>
      <trkpt lat="43.85289" lon="7.25569">
        <ele>786.5</ele>
        <time>2013-03-24T11:19:43Z</time>
      </trkpt>
      <trkpt lat="43.85296" lon="7.25579">
        <ele>788.9</ele>
        <time>2013-03-24T11:19:56Z</time>
      </trkpt>
      <trkpt lat="43.85305" lon="7.2559">
        <ele>791.78</ele>
        <time>2013-03-24T11:20:11Z</time>
      </trkpt>
      <trkpt lat="43.85305" lon="7.25591">
        <ele>791.78</ele>
        <time>2013-03-24T11:20:12Z</time>
      </trkpt>
      <trkpt lat="43.85316" lon="7.25612">
        <ele>794.67</ele>
        <time>2013-03-24T11:20:29Z</time>
      </trkpt>
      <trkpt lat="43.85321" lon="7.25617">
        <ele>795.63</ele>
        <time>2013-03-24T11:20:37Z</time>
      </trkpt>
      <trkpt lat="43.85322" lon="7.2562">
        <ele>795.63</ele>
        <time>2013-03-24T11:20:39Z</time>
      </trkpt>
      <trkpt lat="43.85336" lon="7.25636">
        <ele>798.51</ele>
        <time>2013-03-24T11:20:54Z</time>
      </trkpt>
      <trkpt lat="43.85342" lon="7.25641">
        <ele>797.07</ele>
        <time>2013-03-24T11:20:59Z</time>
      </trkpt>
      <trkpt lat="43.8535" lon="7.2565">
        <ele>798.03</ele>
        <time>2013-03-24T11:21:04Z</time>
      </trkpt>
      <trkpt lat="43.85359" lon="7.25654">
        <ele>798.99</ele>
        <time>2013-03-24T11:21:09Z</time>
      </trkpt>
      <trkpt lat="43.85364" lon="7.25664">
        <ele>799.95</ele>
        <time>2013-03-24T11:21:15Z</time>
      </trkpt>
      <trkpt lat="43.85371" lon="7.25675">
        <ele>804.28</ele>
        <time>2013-03-24T11:21:23Z</time>
      </trkpt>
      <trkpt lat="43.85381" lon="7.25679">
        <ele>805.72</ele>
        <time>2013-03-24T11:21:33Z</time>
      </trkpt>
      <trkpt lat="43.85388" lon="7.25683">
        <ele>808.13</ele>
        <time>2013-03-24T11:21:43Z</time>
      </trkpt>
      <trkpt lat="43.85393" lon="7.25685">
        <ele>809.57</ele>
        <time>2013-03-24T11:21:49Z</time>
      </trkpt>
      <trkpt lat="43.85398" lon="7.25689">
        <ele>810.05</ele>
        <time>2013-03-24T11:21:55Z</time>
      </trkpt>
      <trkpt lat="43.85405" lon="7.25703">
        <ele>812.45</ele>
        <time>2013-03-24T11:22:06Z</time>
      </trkpt>
      <trkpt lat="43.85415" lon="7.25719">
        <ele>814.85</ele>
        <time>2013-03-24T11:22:19Z</time>
      </trkpt>
      <trkpt lat="43.8542" lon="7.25721">
        <ele>814.85</ele>
        <time>2013-03-24T11:22:25Z</time>
      </trkpt>
      <trkpt lat="43.85432" lon="7.25728">
        <ele>815.34</ele>
        <time>2013-03-24T11:22:37Z</time>
      </trkpt>
      <trkpt lat="43.85435" lon="7.25728">
        <ele>815.82</ele>
        <time>2013-03-24T11:22:40Z</time>
      </trkpt>
      <trkpt lat="43.85436" lon="7.25737">
        <ele>815.82</ele>
        <time>2013-03-24T11:22:47Z</time>
      </trkpt>
      <trkpt lat="43.85431" lon="7.25746">
        <ele>816.3</ele>
        <time>2013-03-24T11:22:53Z</time>
      </trkpt>
      <trkpt lat="43.85424" lon="7.25777">
        <ele>814.37</ele>
        <time>2013-03-24T11:23:09Z</time>
      </trkpt>
      <trkpt lat="43.85423" lon="7.25778">
        <ele>814.85</ele>
        <time>2013-03-24T11:23:10Z</time>
      </trkpt>
      <trkpt lat="43.8542" lon="7.25781">
        <ele>816.3</ele>
        <time>2013-03-24T11:23:13Z</time>
      </trkpt>
      <trkpt lat="43.85412" lon="7.25802">
        <ele>819.18</ele>
        <time>2013-03-24T11:23:28Z</time>
      </trkpt>
      <trkpt lat="43.85408" lon="7.25807">
        <ele>820.14</ele>
        <time>2013-03-24T11:23:35Z</time>
      </trkpt>
      <trkpt lat="43.85405" lon="7.25808">
        <ele>820.62</ele>
        <time>2013-03-24T11:23:38Z</time>
      </trkpt>
      <trkpt lat="43.85387" lon="7.25823">
        <ele>821.1</ele>
        <time>2013-03-24T11:23:51Z</time>
      </trkpt>
      <trkpt lat="43.8539" lon="7.25828">
        <ele>821.58</ele>
        <time>2013-03-24T11:23:56Z</time>
      </trkpt>
      <trkpt lat="43.85403" lon="7.25833">
        <ele>822.55</ele>
        <time>2013-03-24T11:24:08Z</time>
      </trkpt>
      <trkpt lat="43.85406" lon="7.25834">
        <ele>822.06</ele>
        <time>2013-03-24T11:24:10Z</time>
      </trkpt>
      <trkpt lat="43.85425" lon="7.25844">
        <ele>821.1</ele>
        <time>2013-03-24T11:24:20Z</time>
      </trkpt>
      <trkpt lat="43.85454" lon="7.25853">
        <ele>822.55</ele>
        <time>2013-03-24T11:24:33Z</time>
      </trkpt>
      <trkpt lat="43.85482" lon="7.25858">
        <ele>825.43</ele>
        <time>2013-03-24T11:24:45Z</time>
      </trkpt>
      <trkpt lat="43.85487" lon="7.25857">
        <ele>826.87</ele>
        <time>2013-03-24T11:24:47Z</time>
      </trkpt>
      <trkpt lat="43.85499" lon="7.25863">
        <ele>827.35</ele>
        <time>2013-03-24T11:24:53Z</time>
      </trkpt>
      <trkpt lat="43.85506" lon="7.2587">
        <ele>830.24</ele>
        <time>2013-03-24T11:24:58Z</time>
      </trkpt>
      <trkpt lat="43.85512" lon="7.25877">
        <ele>831.2</ele>
        <time>2013-03-24T11:25:02Z</time>
      </trkpt>
      <trkpt lat="43.85535" lon="7.25882">
        <ele>831.68</ele>
        <time>2013-03-24T11:25:14Z</time>
      </trkpt>
      <trkpt lat="43.85542" lon="7.25886">
        <ele>832.64</ele>
        <time>2013-03-24T11:25:25Z</time>
      </trkpt>
      <trkpt lat="43.85556" lon="7.25884">
        <ele>836.48</ele>
        <time>2013-03-24T11:25:41Z</time>
      </trkpt>
      <trkpt lat="43.85558" lon="7.25884">
        <ele>836.96</ele>
        <time>2013-03-24T11:25:43Z</time>
      </trkpt>
      <trkpt lat="43.85568" lon="7.25885">
        <ele>838.41</ele>
        <time>2013-03-24T11:25:55Z</time>
      </trkpt>
      <trkpt lat="43.85572" lon="7.25887">
        <ele>838.41</ele>
        <time>2013-03-24T11:25:58Z</time>
      </trkpt>
      <trkpt lat="43.85583" lon="7.2589">
        <ele>838.89</ele>
        <time>2013-03-24T11:26:13Z</time>
      </trkpt>
      <trkpt lat="43.85593" lon="7.25893">
        <ele>839.85</ele>
        <time>2013-03-24T11:26:27Z</time>
      </trkpt>
      <trkpt lat="43.85608" lon="7.25905">
        <ele>840.81</ele>
        <time>2013-03-24T11:26:42Z</time>
      </trkpt>
      <trkpt lat="43.85615" lon="7.25907">
        <ele>840.81</ele>
        <time>2013-03-24T11:26:48Z</time>
      </trkpt>
      <trkpt lat="43.85621" lon="7.25906">
        <ele>841.29</ele>
        <time>2013-03-24T11:26:54Z</time>
      </trkpt>
      <trkpt lat="43.85629" lon="7.25913">
        <ele>842.25</ele>
        <time>2013-03-24T11:27:03Z</time>
      </trkpt>
      <trkpt lat="43.85636" lon="7.25911">
        <ele>843.69</ele>
        <time>2013-03-24T11:27:09Z</time>
      </trkpt>
      <trkpt lat="43.8564" lon="7.25919">
        <ele>845.62</ele>
        <time>2013-03-24T11:27:15Z</time>
      </trkpt>
      <trkpt lat="43.85649" lon="7.25916">
        <ele>846.1</ele>
        <time>2013-03-24T11:27:29Z</time>
      </trkpt>
      <trkpt lat="43.85655" lon="7.25916">
        <ele>847.54</ele>
        <time>2013-03-24T11:27:40Z</time>
      </trkpt>
      <trkpt lat="43.85662" lon="7.25917">
        <ele>848.98</ele>
        <time>2013-03-24T11:27:53Z</time>
      </trkpt>
      <trkpt lat="43.85672" lon="7.25921">
        <ele>849.94</ele>
        <time>2013-03-24T11:28:03Z</time>
      </trkpt>
      <trkpt lat="43.85675" lon="7.25928">
        <ele>849.46</ele>
        <time>2013-03-24T11:28:08Z</time>
      </trkpt>
      <trkpt lat="43.85687" lon="7.25935">
        <ele>853.79</ele>
        <time>2013-03-24T11:28:22Z</time>
      </trkpt>
      <trkpt lat="43.85702" lon="7.25936">
        <ele>855.71</ele>
        <time>2013-03-24T11:28:38Z</time>
      </trkpt>
      <trkpt lat="43.85712" lon="7.25938">
        <ele>859.08</ele>
        <time>2013-03-24T11:28:53Z</time>
      </trkpt>
      <trkpt lat="43.85716" lon="7.25934">
        <ele>859.56</ele>
        <time>2013-03-24T11:29:06Z</time>
      </trkpt>
      <trkpt lat="43.85723" lon="7.25934">
        <ele>861.96</ele>
        <time>2013-03-24T11:29:17Z</time>
      </trkpt>
      <trkpt lat="43.85733" lon="7.25934">
        <ele>866.29</ele>
        <time>2013-03-24T11:29:31Z</time>
      </trkpt>
      <trkpt lat="43.85738" lon="7.25936">
        <ele>868.69</ele>
        <time>2013-03-24T11:29:37Z</time>
      </trkpt>
      <trkpt lat="43.8574" lon="7.25937">
        <ele>869.17</ele>
        <time>2013-03-24T11:29:39Z</time>
      </trkpt>
      <trkpt lat="43.85744" lon="7.25938">
        <ele>870.61</ele>
        <time>2013-03-24T11:29:43Z</time>
      </trkpt>
      <trkpt lat="43.85757" lon="7.25943">
        <ele>872.53</ele>
        <time>2013-03-24T11:29:58Z</time>
      </trkpt>
      <trkpt lat="43.85766" lon="7.25948">
        <ele>873.01</ele>
        <time>2013-03-24T11:30:10Z</time>
      </trkpt>
      <trkpt lat="43.85769" lon="7.25948">
        <ele>873.5</ele>
        <time>2013-03-24T11:30:13Z</time>
      </trkpt>
      <trkpt lat="43.8578" lon="7.25954">
        <ele>873.98</ele>
        <time>2013-03-24T11:30:28Z</time>
      </trkpt>
      <trkpt lat="43.8579" lon="7.25956">
        <ele>875.9</ele>
        <time>2013-03-24T11:30:42Z</time>
      </trkpt>
      <trkpt lat="43.85802" lon="7.25954">
        <ele>878.78</ele>
        <time>2013-03-24T11:30:56Z</time>
      </trkpt>
      <trkpt lat="43.85811" lon="7.25954">
        <ele>880.22</ele>
        <time>2013-03-24T11:31:10Z</time>
      </trkpt>
      <trkpt lat="43.85827" lon="7.25956">
        <ele>882.63</ele>
        <time>2013-03-24T11:31:27Z</time>
      </trkpt>
      <trkpt lat="43.85834" lon="7.25954">
        <ele>883.59</ele>
        <time>2013-03-24T11:31:39Z</time>
      </trkpt>
      <trkpt lat="43.85845" lon="7.25957">
        <ele>885.03</ele>
        <time>2013-03-24T11:31:52Z</time>
      </trkpt>
      <trkpt lat="43.85859" lon="7.25956">
        <ele>887.91</ele>
        <time>2013-03-24T11:32:08Z</time>
      </trkpt>
      <trkpt lat="43.85874" lon="7.25957">
        <ele>888.88</ele>
        <time>2013-03-24T11:32:24Z</time>
      </trkpt>
      <trkpt lat="43.85886" lon="7.25958">
        <ele>891.28</ele>
        <time>2013-03-24T11:32:39Z</time>
      </trkpt>
      <trkpt lat="43.85898" lon="7.25963">
        <ele>894.64</ele>
        <time>2013-03-24T11:32:56Z</time>
      </trkpt>
      <trkpt lat="43.85908" lon="7.25965">
        <ele>896.09</ele>
        <time>2013-03-24T11:33:09Z</time>
      </trkpt>
      <trkpt lat="43.85918" lon="7.25963">
        <ele>897.53</ele>
        <time>2013-03-24T11:33:23Z</time>
      </trkpt>
      <trkpt lat="43.85925" lon="7.25964">
        <ele>900.41</ele>
        <time>2013-03-24T11:33:36Z</time>
      </trkpt>
      <trkpt lat="43.8593" lon="7.25965">
        <ele>902.33</ele>
        <time>2013-03-24T11:33:48Z</time>
      </trkpt>
      <trkpt lat="43.85931" lon="7.25966">
        <ele>901.37</ele>
        <time>2013-03-24T11:34:05Z</time>
      </trkpt>
      <trkpt lat="43.85941" lon="7.25965">
        <ele>904.74</ele>
        <time>2013-03-24T11:34:19Z</time>
      </trkpt>
      <trkpt lat="43.85943" lon="7.25966">
        <ele>904.74</ele>
        <time>2013-03-24T11:34:21Z</time>
      </trkpt>
      <trkpt lat="43.85954" lon="7.2597">
        <ele>907.62</ele>
        <time>2013-03-24T11:34:34Z</time>
      </trkpt>
      <trkpt lat="43.85961" lon="7.2597">
        <ele>909.06</ele>
        <time>2013-03-24T11:34:43Z</time>
      </trkpt>
      <trkpt lat="43.85976" lon="7.25975">
        <ele>912.43</ele>
        <time>2013-03-24T11:34:59Z</time>
      </trkpt>
      <trkpt lat="43.85987" lon="7.25977">
        <ele>911.47</ele>
        <time>2013-03-24T11:35:12Z</time>
      </trkpt>
      <trkpt lat="43.85998" lon="7.25981">
        <ele>912.91</ele>
        <time>2013-03-24T11:35:24Z</time>
      </trkpt>
      <trkpt lat="43.86002" lon="7.25982">
        <ele>912.91</ele>
        <time>2013-03-24T11:35:28Z</time>
      </trkpt>
      <trkpt lat="43.86017" lon="7.25989">
        <ele>915.31</ele>
        <time>2013-03-24T11:35:43Z</time>
      </trkpt>
      <trkpt lat="43.86028" lon="7.25995">
        <ele>918.2</ele>
        <time>2013-03-24T11:35:58Z</time>
      </trkpt>
      <trkpt lat="43.86031" lon="7.25991">
        <ele>919.16</ele>
        <time>2013-03-24T11:36:09Z</time>
      </trkpt>
      <trkpt lat="43.86034" lon="7.25987">
        <ele>920.6</ele>
        <time>2013-03-24T11:36:19Z</time>
      </trkpt>
      <trkpt lat="43.86046" lon="7.25992">
        <ele>923.96</ele>
        <time>2013-03-24T11:36:34Z</time>
      </trkpt>
      <trkpt lat="43.86055" lon="7.25999">
        <ele>926.37</ele>
        <time>2013-03-24T11:36:44Z</time>
      </trkpt>
      <trkpt lat="43.86055" lon="7.26008">
        <ele>926.85</ele>
        <time>2013-03-24T11:36:50Z</time>
      </trkpt>
      <trkpt lat="43.86057" lon="7.26026">
        <ele>926.85</ele>
        <time>2013-03-24T11:36:57Z</time>
      </trkpt>
      <trkpt lat="43.86055" lon="7.26039">
        <ele>926.85</ele>
        <time>2013-03-24T11:37:03Z</time>
      </trkpt>
      <trkpt lat="43.86043" lon="7.26062">
        <ele>927.81</ele>
        <time>2013-03-24T11:37:13Z</time>
      </trkpt>
      <trkpt lat="43.8603" lon="7.26078">
        <ele>928.77</ele>
        <time>2013-03-24T11:37:22Z</time>
      </trkpt>
      <trkpt lat="43.86012" lon="7.26098">
        <ele>932.62</ele>
        <time>2013-03-24T11:37:37Z</time>
      </trkpt>
      <trkpt lat="43.86004" lon="7.26106">
        <ele>933.58</ele>
        <time>2013-03-24T11:37:50Z</time>
      </trkpt>
      <trkpt lat="43.85994" lon="7.26116">
        <ele>935.02</ele>
        <time>2013-03-24T11:38:01Z</time>
      </trkpt>
      <trkpt lat="43.85983" lon="7.26127">
        <ele>935.98</ele>
        <time>2013-03-24T11:38:14Z</time>
      </trkpt>
      <trkpt lat="43.85974" lon="7.26143">
        <ele>934.54</ele>
        <time>2013-03-24T11:38:28Z</time>
      </trkpt>
      <trkpt lat="43.85988" lon="7.2618">
        <ele>931.65</ele>
        <time>2013-03-24T11:38:43Z</time>
      </trkpt>
      <trkpt lat="43.86013" lon="7.26239">
        <ele>925.41</ele>
        <time>2013-03-24T11:38:56Z</time>
      </trkpt>
      <trkpt lat="43.86016" lon="7.26247">
        <ele>923.48</ele>
        <time>2013-03-24T11:38:58Z</time>
      </trkpt>
      <trkpt lat="43.8603" lon="7.263">
        <ele>914.35</ele>
        <time>2013-03-24T11:39:10Z</time>
      </trkpt>
      <trkpt lat="43.86032" lon="7.26326">
        <ele>910.99</ele>
        <time>2013-03-24T11:39:19Z</time>
      </trkpt>
      <trkpt lat="43.86031" lon="7.26327">
        <ele>910.99</ele>
        <time>2013-03-24T11:39:20Z</time>
      </trkpt>
      <trkpt lat="43.86023" lon="7.26329">
        <ele>913.87</ele>
        <time>2013-03-24T11:39:34Z</time>
      </trkpt>
      <trkpt lat="43.86023" lon="7.26329">
        <ele>914.35</ele>
        <time>2013-03-24T11:39:35Z</time>
      </trkpt>
      <trkpt lat="43.86008" lon="7.26322">
        <ele>919.16</ele>
        <time>2013-03-24T11:39:51Z</time>
      </trkpt>
      <trkpt lat="43.86001" lon="7.2633">
        <ele>922.04</ele>
        <time>2013-03-24T11:40:06Z</time>
      </trkpt>
      <trkpt lat="43.8599" lon="7.2633">
        <ele>923</ele>
        <time>2013-03-24T11:40:18Z</time>
      </trkpt>
      <trkpt lat="43.85986" lon="7.26336">
        <ele>923.48</ele>
        <time>2013-03-24T11:40:26Z</time>
      </trkpt>
      <trkpt lat="43.85981" lon="7.2634">
        <ele>924.93</ele>
        <time>2013-03-24T11:40:36Z</time>
      </trkpt>
      <trkpt lat="43.85975" lon="7.26344">
        <ele>925.89</ele>
        <time>2013-03-24T11:40:51Z</time>
      </trkpt>
      <trkpt lat="43.8597" lon="7.26346">
        <ele>926.85</ele>
        <time>2013-03-24T11:40:57Z</time>
      </trkpt>
      <trkpt lat="43.85958" lon="7.2635">
        <ele>928.77</ele>
        <time>2013-03-24T11:41:11Z</time>
      </trkpt>
      <trkpt lat="43.85957" lon="7.26354">
        <ele>929.73</ele>
        <time>2013-03-24T11:41:17Z</time>
      </trkpt>
      <trkpt lat="43.85953" lon="7.26359">
        <ele>930.69</ele>
        <time>2013-03-24T11:41:31Z</time>
      </trkpt>
      <trkpt lat="43.85959" lon="7.26364">
        <ele>932.62</ele>
        <time>2013-03-24T11:41:47Z</time>
      </trkpt>
      <trkpt lat="43.85967" lon="7.26373">
        <ele>934.06</ele>
        <time>2013-03-24T11:42:01Z</time>
      </trkpt>
      <trkpt lat="43.85971" lon="7.2638">
        <ele>937.9</ele>
        <time>2013-03-24T11:42:15Z</time>
      </trkpt>
      <trkpt lat="43.85979" lon="7.26379">
        <ele>939.35</ele>
        <time>2013-03-24T11:42:28Z</time>
      </trkpt>
      <trkpt lat="43.85993" lon="7.26373">
        <ele>940.31</ele>
        <time>2013-03-24T11:42:43Z</time>
      </trkpt>
      <trkpt lat="43.86001" lon="7.26384">
        <ele>943.67</ele>
        <time>2013-03-24T11:42:57Z</time>
      </trkpt>
      <trkpt lat="43.86" lon="7.26385">
        <ele>943.67</ele>
        <time>2013-03-24T11:42:58Z</time>
      </trkpt>
      <trkpt lat="43.85994" lon="7.26394">
        <ele>945.11</ele>
        <time>2013-03-24T11:43:12Z</time>
      </trkpt>
      <trkpt lat="43.85974" lon="7.26413">
        <ele>944.15</ele>
        <time>2013-03-24T11:43:24Z</time>
      </trkpt>
      <trkpt lat="43.85952" lon="7.26425">
        <ele>942.71</ele>
        <time>2013-03-24T11:43:35Z</time>
      </trkpt>
      <trkpt lat="43.8595" lon="7.26428">
        <ele>942.71</ele>
        <time>2013-03-24T11:43:37Z</time>
      </trkpt>
      <trkpt lat="43.85943" lon="7.26437">
        <ele>943.67</ele>
        <time>2013-03-24T11:43:49Z</time>
      </trkpt>
      <trkpt lat="43.85933" lon="7.26447">
        <ele>946.07</ele>
        <time>2013-03-24T11:44:02Z</time>
      </trkpt>
      <trkpt lat="43.85916" lon="7.26463">
        <ele>945.59</ele>
        <time>2013-03-24T11:44:18Z</time>
      </trkpt>
      <trkpt lat="43.8592" lon="7.26471">
        <ele>946.56</ele>
        <time>2013-03-24T11:44:32Z</time>
      </trkpt>
      <trkpt lat="43.85931" lon="7.26474">
        <ele>949.92</ele>
        <time>2013-03-24T11:44:47Z</time>
      </trkpt>
      <trkpt lat="43.85932" lon="7.26474">
        <ele>949.92</ele>
        <time>2013-03-24T11:44:48Z</time>
      </trkpt>
      <trkpt lat="43.85947" lon="7.26471">
        <ele>950.88</ele>
        <time>2013-03-24T11:45:02Z</time>
      </trkpt>
      <trkpt lat="43.85958" lon="7.26481">
        <ele>953.28</ele>
        <time>2013-03-24T11:45:17Z</time>
      </trkpt>
      <trkpt lat="43.85965" lon="7.26491">
        <ele>955.69</ele>
        <time>2013-03-24T11:45:30Z</time>
      </trkpt>
      <trkpt lat="43.85968" lon="7.265">
        <ele>958.09</ele>
        <time>2013-03-24T11:45:41Z</time>
      </trkpt>
      <trkpt lat="43.85964" lon="7.26509">
        <ele>960.98</ele>
        <time>2013-03-24T11:45:55Z</time>
      </trkpt>
      <trkpt lat="43.85951" lon="7.26516">
        <ele>969.63</ele>
        <time>2013-03-24T11:46:10Z</time>
      </trkpt>
      <trkpt lat="43.85948" lon="7.26518">
        <ele>972.03</ele>
        <time>2013-03-24T11:46:16Z</time>
      </trkpt>
      <trkpt lat="43.85958" lon="7.26521">
        <ele>972.03</ele>
        <time>2013-03-24T11:46:33Z</time>
      </trkpt>
      <trkpt lat="43.85966" lon="7.26528">
        <ele>972.51</ele>
        <time>2013-03-24T11:46:47Z</time>
      </trkpt>
      <trkpt lat="43.85974" lon="7.26527">
        <ele>974.43</ele>
        <time>2013-03-24T11:46:58Z</time>
      </trkpt>
      <trkpt lat="43.85983" lon="7.26527">
        <ele>975.88</ele>
        <time>2013-03-24T11:47:11Z</time>
      </trkpt>
      <trkpt lat="43.85991" lon="7.26529">
        <ele>975.39</ele>
        <time>2013-03-24T11:47:22Z</time>
      </trkpt>
      <trkpt lat="43.86" lon="7.26536">
        <ele>975.88</ele>
        <time>2013-03-24T11:47:36Z</time>
      </trkpt>
      <trkpt lat="43.86006" lon="7.26536">
        <ele>977.8</ele>
        <time>2013-03-24T11:47:49Z</time>
      </trkpt>
      <trkpt lat="43.86016" lon="7.26538">
        <ele>980.2</ele>
        <time>2013-03-24T11:48:03Z</time>
      </trkpt>
      <trkpt lat="43.86023" lon="7.26542">
        <ele>980.68</ele>
        <time>2013-03-24T11:48:16Z</time>
      </trkpt>
      <trkpt lat="43.86031" lon="7.26543">
        <ele>982.6</ele>
        <time>2013-03-24T11:48:31Z</time>
      </trkpt>
      <trkpt lat="43.86041" lon="7.26543">
        <ele>984.05</ele>
        <time>2013-03-24T11:48:43Z</time>
      </trkpt>
      <trkpt lat="43.86052" lon="7.26542">
        <ele>985.49</ele>
        <time>2013-03-24T11:48:57Z</time>
      </trkpt>
      <trkpt lat="43.86063" lon="7.26542">
        <ele>988.85</ele>
        <time>2013-03-24T11:49:11Z</time>
      </trkpt>
      <trkpt lat="43.86072" lon="7.26539">
        <ele>991.74</ele>
        <time>2013-03-24T11:49:25Z</time>
      </trkpt>
      <trkpt lat="43.86085" lon="7.26533">
        <ele>994.62</ele>
        <time>2013-03-24T11:49:40Z</time>
      </trkpt>
      <trkpt lat="43.86086" lon="7.26538">
        <ele>992.7</ele>
        <time>2013-03-24T11:49:51Z</time>
      </trkpt>
      <trkpt lat="43.86085" lon="7.26549">
        <ele>992.7</ele>
        <time>2013-03-24T11:50:03Z</time>
      </trkpt>
      <trkpt lat="43.86083" lon="7.26561">
        <ele>994.62</ele>
        <time>2013-03-24T11:50:18Z</time>
      </trkpt>
      <trkpt lat="43.86081" lon="7.26567">
        <ele>997.99</ele>
        <time>2013-03-24T11:50:31Z</time>
      </trkpt>
      <trkpt lat="43.86077" lon="7.26575">
        <ele>1000.87</ele>
        <time>2013-03-24T11:50:45Z</time>
      </trkpt>
      <trkpt lat="43.86073" lon="7.26582">
        <ele>1006.64</ele>
        <time>2013-03-24T11:51:01Z</time>
      </trkpt>
      <trkpt lat="43.86067" lon="7.26592">
        <ele>1010.48</ele>
        <time>2013-03-24T11:51:15Z</time>
      </trkpt>
      <trkpt lat="43.86059" lon="7.26607">
        <ele>1014.81</ele>
        <time>2013-03-24T11:51:36Z</time>
      </trkpt>
      <trkpt lat="43.86051" lon="7.26611">
        <ele>1022.02</ele>
        <time>2013-03-24T11:51:51Z</time>
      </trkpt>
      <trkpt lat="43.86052" lon="7.26619">
        <ele>1018.17</ele>
        <time>2013-03-24T11:52:06Z</time>
      </trkpt>
      <trkpt lat="43.86064" lon="7.26623">
        <ele>1017.69</ele>
        <time>2013-03-24T11:52:23Z</time>
      </trkpt>
      <trkpt lat="43.86077" lon="7.26627">
        <ele>1017.69</ele>
        <time>2013-03-24T11:52:40Z</time>
      </trkpt>
      <trkpt lat="43.86085" lon="7.2663">
        <ele>1019.62</ele>
        <time>2013-03-24T11:52:55Z</time>
      </trkpt>
      <trkpt lat="43.86093" lon="7.26633">
        <ele>1021.06</ele>
        <time>2013-03-24T11:53:10Z</time>
      </trkpt>
      <trkpt lat="43.86099" lon="7.26638">
        <ele>1022.98</ele>
        <time>2013-03-24T11:53:23Z</time>
      </trkpt>
      <trkpt lat="43.86106" lon="7.2664">
        <ele>1026.83</ele>
        <time>2013-03-24T11:53:36Z</time>
      </trkpt>
      <trkpt lat="43.86121" lon="7.26637">
        <ele>1030.67</ele>
        <time>2013-03-24T11:53:52Z</time>
      </trkpt>
      <trkpt lat="43.86131" lon="7.26641">
        <ele>1032.11</ele>
        <time>2013-03-24T11:54:07Z</time>
      </trkpt>
      <trkpt lat="43.86139" lon="7.26645">
        <ele>1034.04</ele>
        <time>2013-03-24T11:54:22Z</time>
      </trkpt>
      <trkpt lat="43.86147" lon="7.2665">
        <ele>1036.44</ele>
        <time>2013-03-24T11:54:38Z</time>
      </trkpt>
      <trkpt lat="43.86155" lon="7.26653">
        <ele>1039.8</ele>
        <time>2013-03-24T11:54:54Z</time>
      </trkpt>
      <trkpt lat="43.86167" lon="7.26653">
        <ele>1043.17</ele>
        <time>2013-03-24T11:55:10Z</time>
      </trkpt>
      <trkpt lat="43.8618" lon="7.26656">
        <ele>1044.61</ele>
        <time>2013-03-24T11:55:26Z</time>
      </trkpt>
      <trkpt lat="43.86191" lon="7.26657">
        <ele>1047.01</ele>
        <time>2013-03-24T11:55:40Z</time>
      </trkpt>
      <trkpt lat="43.86199" lon="7.26657">
        <ele>1048.94</ele>
        <time>2013-03-24T11:55:53Z</time>
      </trkpt>
      <trkpt lat="43.86212" lon="7.26655">
        <ele>1051.34</ele>
        <time>2013-03-24T11:56:10Z</time>
      </trkpt>
      <trkpt lat="43.86222" lon="7.26653">
        <ele>1053.74</ele>
        <time>2013-03-24T11:56:27Z</time>
      </trkpt>
      <trkpt lat="43.86228" lon="7.26656">
        <ele>1057.11</ele>
        <time>2013-03-24T11:56:43Z</time>
      </trkpt>
      <trkpt lat="43.86223" lon="7.26663">
        <ele>1062.87</ele>
        <time>2013-03-24T11:56:59Z</time>
      </trkpt>
      <trkpt lat="43.86216" lon="7.26673">
        <ele>1067.2</ele>
        <time>2013-03-24T11:57:16Z</time>
      </trkpt>
      <trkpt lat="43.86216" lon="7.26673">
        <ele>1064.32</ele>
        <time>2013-03-24T11:57:30Z</time>
      </trkpt>
      <trkpt lat="43.86228" lon="7.26671">
        <ele>1062.87</ele>
        <time>2013-03-24T11:57:44Z</time>
      </trkpt>
      <trkpt lat="43.86261" lon="7.26662">
        <ele>1066.24</ele>
        <time>2013-03-24T11:58:03Z</time>
      </trkpt>
      <trkpt lat="43.86297" lon="7.26652">
        <ele>1067.68</ele>
        <time>2013-03-24T11:58:24Z</time>
      </trkpt>
      <trkpt lat="43.86332" lon="7.26636">
        <ele>1069.12</ele>
        <time>2013-03-24T11:58:42Z</time>
      </trkpt>
      <trkpt lat="43.86368" lon="7.26623">
        <ele>1071.05</ele>
        <time>2013-03-24T11:59:00Z</time>
      </trkpt>
      <trkpt lat="43.86392" lon="7.26618">
        <ele>1071.05</ele>
        <time>2013-03-24T11:59:14Z</time>
      </trkpt>
      <trkpt lat="43.86426" lon="7.26616">
        <ele>1071.05</ele>
        <time>2013-03-24T11:59:29Z</time>
      </trkpt>
      <trkpt lat="43.86465" lon="7.2662">
        <ele>1073.45</ele>
        <time>2013-03-24T11:59:46Z</time>
      </trkpt>
      <trkpt lat="43.86499" lon="7.26639">
        <ele>1076.81</ele>
        <time>2013-03-24T12:00:03Z</time>
      </trkpt>
      <trkpt lat="43.86541" lon="7.26657">
        <ele>1079.22</ele>
        <time>2013-03-24T12:00:20Z</time>
      </trkpt>
      <trkpt lat="43.86576" lon="7.26667">
        <ele>1080.18</ele>
        <time>2013-03-24T12:00:33Z</time>
      </trkpt>
      <trkpt lat="43.86611" lon="7.26665">
        <ele>1080.66</ele>
        <time>2013-03-24T12:00:47Z</time>
      </trkpt>
      <trkpt lat="43.8664" lon="7.26665">
        <ele>1081.14</ele>
        <time>2013-03-24T12:00:59Z</time>
      </trkpt>
      <trkpt lat="43.86677" lon="7.26647">
        <ele>1081.62</ele>
        <time>2013-03-24T12:01:15Z</time>
      </trkpt>
      <trkpt lat="43.86707" lon="7.26628">
        <ele>1085.95</ele>
        <time>2013-03-24T12:01:31Z</time>
      </trkpt>
      <trkpt lat="43.86745" lon="7.26619">
        <ele>1087.87</ele>
        <time>2013-03-24T12:01:50Z</time>
      </trkpt>
      <trkpt lat="43.86784" lon="7.26626">
        <ele>1088.35</ele>
        <time>2013-03-24T12:02:09Z</time>
      </trkpt>
      <trkpt lat="43.86805" lon="7.26645">
        <ele>1089.79</ele>
        <time>2013-03-24T12:02:24Z</time>
      </trkpt>
      <trkpt lat="43.86806" lon="7.26645">
        <ele>1090.27</ele>
        <time>2013-03-24T12:02:26Z</time>
      </trkpt>
      <trkpt lat="43.86802" lon="7.26635">
        <ele>1089.31</ele>
        <time>2013-03-24T12:02:33Z</time>
      </trkpt>
      <trkpt lat="43.86808" lon="7.26636">
        <ele>1086.91</ele>
        <time>2013-03-24T12:02:45Z</time>
      </trkpt>
      <trkpt lat="43.86805" lon="7.26638">
        <ele>1088.83</ele>
        <time>2013-03-24T12:02:55Z</time>
      </trkpt>
      <trkpt lat="43.86808" lon="7.26646">
        <ele>1091.23</ele>
        <time>2013-03-24T12:03:09Z</time>
      </trkpt>
      <trkpt lat="43.86807" lon="7.26646">
        <ele>1090.75</ele>
        <time>2013-03-24T12:03:21Z</time>
      </trkpt>
      <trkpt lat="43.86807" lon="7.26648">
        <ele>1092.2</ele>
        <time>2013-03-24T12:03:39Z</time>
      </trkpt>
      <trkpt lat="43.86822" lon="7.26653">
        <ele>1092.2</ele>
        <time>2013-03-24T12:03:46Z</time>
      </trkpt>
      <trkpt lat="43.86855" lon="7.26652">
        <ele>1093.16</ele>
        <time>2013-03-24T12:04:01Z</time>
      </trkpt>
      <trkpt lat="43.86864" lon="7.26647">
        <ele>1094.12</ele>
        <time>2013-03-24T12:04:05Z</time>
      </trkpt>
      <trkpt lat="43.86871" lon="7.26642">
        <ele>1094.12</ele>
        <time>2013-03-24T12:04:09Z</time>
      </trkpt>
      <trkpt lat="43.86897" lon="7.26604">
        <ele>1095.08</ele>
        <time>2013-03-24T12:04:27Z</time>
      </trkpt>
      <trkpt lat="43.86917" lon="7.26566">
        <ele>1096.04</ele>
        <time>2013-03-24T12:04:44Z</time>
      </trkpt>
      <trkpt lat="43.8695" lon="7.2656">
        <ele>1099.4</ele>
        <time>2013-03-24T12:04:59Z</time>
      </trkpt>
      <trkpt lat="43.86988" lon="7.26565">
        <ele>1102.77</ele>
        <time>2013-03-24T12:05:17Z</time>
      </trkpt>
      <trkpt lat="43.87016" lon="7.26545">
        <ele>1103.73</ele>
        <time>2013-03-24T12:05:33Z</time>
      </trkpt>
      <trkpt lat="43.87047" lon="7.26527">
        <ele>1108.54</ele>
        <time>2013-03-24T12:05:50Z</time>
      </trkpt>
      <trkpt lat="43.8707" lon="7.2652">
        <ele>1109.5</ele>
        <time>2013-03-24T12:06:04Z</time>
      </trkpt>
      <trkpt lat="43.87072" lon="7.26516">
        <ele>1109.98</ele>
        <time>2013-03-24T12:06:06Z</time>
      </trkpt>
      <trkpt lat="43.87077" lon="7.26472">
        <ele>1110.94</ele>
        <time>2013-03-24T12:06:23Z</time>
      </trkpt>
      <trkpt lat="43.87076" lon="7.26464">
        <ele>1111.42</ele>
        <time>2013-03-24T12:06:26Z</time>
      </trkpt>
      <trkpt lat="43.87072" lon="7.26452">
        <ele>1114.79</ele>
        <time>2013-03-24T12:06:38Z</time>
      </trkpt>
      <trkpt lat="43.87068" lon="7.26439">
        <ele>1118.15</ele>
        <time>2013-03-24T12:06:50Z</time>
      </trkpt>
      <trkpt lat="43.8706" lon="7.26401">
        <ele>1120.07</ele>
        <time>2013-03-24T12:07:05Z</time>
      </trkpt>
      <trkpt lat="43.87059" lon="7.26391">
        <ele>1120.07</ele>
        <time>2013-03-24T12:07:15Z</time>
      </trkpt>
      <trkpt lat="43.87055" lon="7.26371">
        <ele>1122.96</ele>
        <time>2013-03-24T12:07:31Z</time>
      </trkpt>
      <trkpt lat="43.87053" lon="7.26359">
        <ele>1124.4</ele>
        <time>2013-03-24T12:07:41Z</time>
      </trkpt>
      <trkpt lat="43.8705" lon="7.2635">
        <ele>1126.8</ele>
        <time>2013-03-24T12:07:49Z</time>
      </trkpt>
      <trkpt lat="43.87044" lon="7.26338">
        <ele>1131.13</ele>
        <time>2013-03-24T12:08:02Z</time>
      </trkpt>
      <trkpt lat="43.87044" lon="7.26333">
        <ele>1132.09</ele>
        <time>2013-03-24T12:08:06Z</time>
      </trkpt>
      <trkpt lat="43.87042" lon="7.26316">
        <ele>1134.97</ele>
        <time>2013-03-24T12:08:18Z</time>
      </trkpt>
      <trkpt lat="43.8704" lon="7.26308">
        <ele>1136.9</ele>
        <time>2013-03-24T12:08:23Z</time>
      </trkpt>
      <trkpt lat="43.8704" lon="7.26297">
        <ele>1137.86</ele>
        <time>2013-03-24T12:08:29Z</time>
      </trkpt>
      <trkpt lat="43.87037" lon="7.26272">
        <ele>1138.82</ele>
        <time>2013-03-24T12:08:43Z</time>
      </trkpt>
      <trkpt lat="43.87037" lon="7.2627">
        <ele>1138.82</ele>
        <time>2013-03-24T12:08:44Z</time>
      </trkpt>
      <trkpt lat="43.87041" lon="7.26256">
        <ele>1139.78</ele>
        <time>2013-03-24T12:08:52Z</time>
      </trkpt>
      <trkpt lat="43.87031" lon="7.2621">
        <ele>1139.78</ele>
        <time>2013-03-24T12:09:03Z</time>
      </trkpt>
      <trkpt lat="43.8703" lon="7.26171">
        <ele>1140.26</ele>
        <time>2013-03-24T12:09:11Z</time>
      </trkpt>
      <trkpt lat="43.87034" lon="7.26154">
        <ele>1139.3</ele>
        <time>2013-03-24T12:09:14Z</time>
      </trkpt>
      <trkpt lat="43.87038" lon="7.26135">
        <ele>1138.34</ele>
        <time>2013-03-24T12:09:17Z</time>
      </trkpt>
      <trkpt lat="43.87052" lon="7.26112">
        <ele>1137.38</ele>
        <time>2013-03-24T12:09:20Z</time>
      </trkpt>
      <trkpt lat="43.87076" lon="7.26066">
        <ele>1134.01</ele>
        <time>2013-03-24T12:09:24Z</time>
      </trkpt>
      <trkpt lat="43.87089" lon="7.26038">
        <ele>1132.57</ele>
        <time>2013-03-24T12:09:28Z</time>
      </trkpt>
      <trkpt lat="43.87095" lon="7.26013">
        <ele>1131.61</ele>
        <time>2013-03-24T12:09:32Z</time>
      </trkpt>
      <trkpt lat="43.87103" lon="7.25989">
        <ele>1128.24</ele>
        <time>2013-03-24T12:09:36Z</time>
      </trkpt>
      <trkpt lat="43.8711" lon="7.25962">
        <ele>1123.44</ele>
        <time>2013-03-24T12:09:40Z</time>
      </trkpt>
      <trkpt lat="43.87118" lon="7.25936">
        <ele>1115.75</ele>
        <time>2013-03-24T12:09:45Z</time>
      </trkpt>
      <trkpt lat="43.87119" lon="7.25919">
        <ele>1112.38</ele>
        <time>2013-03-24T12:09:47Z</time>
      </trkpt>
      <trkpt lat="43.87132" lon="7.25897">
        <ele>1100.85</ele>
        <time>2013-03-24T12:09:54Z</time>
      </trkpt>
      <trkpt lat="43.87146" lon="7.25894">
        <ele>1095.56</ele>
        <time>2013-03-24T12:10:10Z</time>
      </trkpt>
      <trkpt lat="43.87149" lon="7.25894">
        <ele>1096.52</ele>
        <time>2013-03-24T12:10:17Z</time>
      </trkpt>
      <trkpt lat="43.87155" lon="7.25886">
        <ele>1097.96</ele>
        <time>2013-03-24T12:10:29Z</time>
      </trkpt>
      <trkpt lat="43.87163" lon="7.25877">
        <ele>1099.4</ele>
        <time>2013-03-24T12:10:41Z</time>
      </trkpt>
      <trkpt lat="43.87174" lon="7.25867">
        <ele>1101.81</ele>
        <time>2013-03-24T12:10:52Z</time>
      </trkpt>
      <trkpt lat="43.87188" lon="7.25858">
        <ele>1102.77</ele>
        <time>2013-03-24T12:11:04Z</time>
      </trkpt>
      <trkpt lat="43.872" lon="7.25846">
        <ele>1103.73</ele>
        <time>2013-03-24T12:11:15Z</time>
      </trkpt>
      <trkpt lat="43.87216" lon="7.25832">
        <ele>1105.17</ele>
        <time>2013-03-24T12:11:31Z</time>
      </trkpt>
      <trkpt lat="43.87219" lon="7.25829">
        <ele>1106.61</ele>
        <time>2013-03-24T12:11:43Z</time>
      </trkpt>
      <trkpt lat="43.87222" lon="7.25825">
        <ele>1110.46</ele>
        <time>2013-03-24T12:11:56Z</time>
      </trkpt>
      <trkpt lat="43.87228" lon="7.25818">
        <ele>1114.79</ele>
        <time>2013-03-24T12:12:08Z</time>
      </trkpt>
      <trkpt lat="43.87239" lon="7.25807">
        <ele>1116.71</ele>
        <time>2013-03-24T12:12:22Z</time>
      </trkpt>
      <trkpt lat="43.87247" lon="7.25793">
        <ele>1115.27</ele>
        <time>2013-03-24T12:12:33Z</time>
      </trkpt>
      <trkpt lat="43.87253" lon="7.25786">
        <ele>1118.15</ele>
        <time>2013-03-24T12:12:46Z</time>
      </trkpt>
      <trkpt lat="43.87261" lon="7.25775">
        <ele>1118.15</ele>
        <time>2013-03-24T12:13:01Z</time>
      </trkpt>
      <trkpt lat="43.87269" lon="7.25761">
        <ele>1119.11</ele>
        <time>2013-03-24T12:13:15Z</time>
      </trkpt>
      <trkpt lat="43.87271" lon="7.25754">
        <ele>1121.03</ele>
        <time>2013-03-24T12:13:28Z</time>
      </trkpt>
      <trkpt lat="43.87272" lon="7.25747">
        <ele>1122</ele>
        <time>2013-03-24T12:13:44Z</time>
      </trkpt>
      <trkpt lat="43.87274" lon="7.25739">
        <ele>1122.96</ele>
        <time>2013-03-24T12:13:57Z</time>
      </trkpt>
      <trkpt lat="43.87276" lon="7.25731">
        <ele>1122.96</ele>
        <time>2013-03-24T12:14:09Z</time>
      </trkpt>
      <trkpt lat="43.87277" lon="7.2572">
        <ele>1124.88</ele>
        <time>2013-03-24T12:14:25Z</time>
      </trkpt>
      <trkpt lat="43.87274" lon="7.25719">
        <ele>1124.88</ele>
        <time>2013-03-24T12:14:30Z</time>
      </trkpt>
      <trkpt lat="43.87263" lon="7.25718">
        <ele>1123.92</ele>
        <time>2013-03-24T12:14:41Z</time>
      </trkpt>
      <trkpt lat="43.87255" lon="7.25717">
        <ele>1124.88</ele>
        <time>2013-03-24T12:14:50Z</time>
      </trkpt>
      <trkpt lat="43.8724" lon="7.2572">
        <ele>1126.32</ele>
        <time>2013-03-24T12:15:06Z</time>
      </trkpt>
      <trkpt lat="43.87229" lon="7.25721">
        <ele>1128.73</ele>
        <time>2013-03-24T12:15:19Z</time>
      </trkpt>
      <trkpt lat="43.8722" lon="7.25724">
        <ele>1130.17</ele>
        <time>2013-03-24T12:15:30Z</time>
      </trkpt>
      <trkpt lat="43.87209" lon="7.25731">
        <ele>1130.65</ele>
        <time>2013-03-24T12:15:44Z</time>
      </trkpt>
      <trkpt lat="43.87206" lon="7.25732">
        <ele>1129.69</ele>
        <time>2013-03-24T12:15:47Z</time>
      </trkpt>
      <trkpt lat="43.87201" lon="7.25738">
        <ele>1130.17</ele>
        <time>2013-03-24T12:16:03Z</time>
      </trkpt>
      <trkpt lat="43.87198" lon="7.2574">
        <ele>1130.65</ele>
        <time>2013-03-24T12:16:06Z</time>
      </trkpt>
      <trkpt lat="43.87182" lon="7.25742">
        <ele>1133.53</ele>
        <time>2013-03-24T12:16:20Z</time>
      </trkpt>
      <trkpt lat="43.87166" lon="7.25748">
        <ele>1134.01</ele>
        <time>2013-03-24T12:16:31Z</time>
      </trkpt>
      <trkpt lat="43.87148" lon="7.25751">
        <ele>1135.94</ele>
        <time>2013-03-24T12:16:45Z</time>
      </trkpt>
      <trkpt lat="43.87141" lon="7.25755">
        <ele>1137.86</ele>
        <time>2013-03-24T12:16:54Z</time>
      </trkpt>
      <trkpt lat="43.87134" lon="7.25753">
        <ele>1140.26</ele>
        <time>2013-03-24T12:17:01Z</time>
      </trkpt>
      <trkpt lat="43.87113" lon="7.2575">
        <ele>1139.3</ele>
        <time>2013-03-24T12:17:14Z</time>
      </trkpt>
      <trkpt lat="43.87102" lon="7.25748">
        <ele>1138.82</ele>
        <time>2013-03-24T12:17:24Z</time>
      </trkpt>
      <trkpt lat="43.87097" lon="7.25743">
        <ele>1139.78</ele>
        <time>2013-03-24T12:17:30Z</time>
      </trkpt>
      <trkpt lat="43.87092" lon="7.2573">
        <ele>1138.34</ele>
        <time>2013-03-24T12:17:42Z</time>
      </trkpt>
      <trkpt lat="43.87085" lon="7.25721">
        <ele>1140.26</ele>
        <time>2013-03-24T12:17:53Z</time>
      </trkpt>
      <trkpt lat="43.87071" lon="7.25707">
        <ele>1146.51</ele>
        <time>2013-03-24T12:18:06Z</time>
      </trkpt>
      <trkpt lat="43.87058" lon="7.25697">
        <ele>1147.95</ele>
        <time>2013-03-24T12:18:16Z</time>
      </trkpt>
      <trkpt lat="43.87049" lon="7.25699">
        <ele>1145.55</ele>
        <time>2013-03-24T12:18:20Z</time>
      </trkpt>
      <trkpt lat="43.87033" lon="7.25695">
        <ele>1139.78</ele>
        <time>2013-03-24T12:18:31Z</time>
      </trkpt>
      <trkpt lat="43.87026" lon="7.25691">
        <ele>1138.34</ele>
        <time>2013-03-24T12:18:45Z</time>
      </trkpt>
      <trkpt lat="43.87021" lon="7.25689">
        <ele>1135.94</ele>
        <time>2013-03-24T12:18:51Z</time>
      </trkpt>
      <trkpt lat="43.87015" lon="7.25682">
        <ele>1133.05</ele>
        <time>2013-03-24T12:19:02Z</time>
      </trkpt>
      <trkpt lat="43.87006" lon="7.25678">
        <ele>1130.65</ele>
        <time>2013-03-24T12:19:11Z</time>
      </trkpt>
      <trkpt lat="43.87002" lon="7.25678">
        <ele>1130.65</ele>
        <time>2013-03-24T12:19:15Z</time>
      </trkpt>
      <trkpt lat="43.86992" lon="7.25674">
        <ele>1126.8</ele>
        <time>2013-03-24T12:19:27Z</time>
      </trkpt>
      <trkpt lat="43.8699" lon="7.25664">
        <ele>1123.44</ele>
        <time>2013-03-24T12:19:34Z</time>
      </trkpt>
      <trkpt lat="43.86987" lon="7.25658">
        <ele>1121.03</ele>
        <time>2013-03-24T12:19:39Z</time>
      </trkpt>
      <trkpt lat="43.86979" lon="7.25655">
        <ele>1119.11</ele>
        <time>2013-03-24T12:19:46Z</time>
      </trkpt>
      <trkpt lat="43.86965" lon="7.25644">
        <ele>1117.67</ele>
        <time>2013-03-24T12:19:59Z</time>
      </trkpt>
      <trkpt lat="43.86958" lon="7.25636">
        <ele>1115.27</ele>
        <time>2013-03-24T12:20:11Z</time>
      </trkpt>
      <trkpt lat="43.86951" lon="7.25629">
        <ele>1115.27</ele>
        <time>2013-03-24T12:20:19Z</time>
      </trkpt>
      <trkpt lat="43.86946" lon="7.25619">
        <ele>1115.27</ele>
        <time>2013-03-24T12:20:25Z</time>
      </trkpt>
      <trkpt lat="43.86934" lon="7.25612">
        <ele>1117.19</ele>
        <time>2013-03-24T12:20:38Z</time>
      </trkpt>
      <trkpt lat="43.86924" lon="7.25602">
        <ele>1117.67</ele>
        <time>2013-03-24T12:20:51Z</time>
      </trkpt>
      <trkpt lat="43.86915" lon="7.25598">
        <ele>1119.59</ele>
        <time>2013-03-24T12:21:05Z</time>
      </trkpt>
      <trkpt lat="43.86912" lon="7.25592">
        <ele>1118.63</ele>
        <time>2013-03-24T12:21:20Z</time>
      </trkpt>
      <trkpt lat="43.8691" lon="7.2558">
        <ele>1118.15</ele>
        <time>2013-03-24T12:21:33Z</time>
      </trkpt>
      <trkpt lat="43.86908" lon="7.2557">
        <ele>1120.07</ele>
        <time>2013-03-24T12:21:48Z</time>
      </trkpt>
      <trkpt lat="43.86909" lon="7.25561">
        <ele>1121.52</ele>
        <time>2013-03-24T12:22:06Z</time>
      </trkpt>
      <trkpt lat="43.8691" lon="7.25559">
        <ele>1121.03</ele>
        <time>2013-03-24T12:22:19Z</time>
      </trkpt>
      <trkpt lat="43.86913" lon="7.25552">
        <ele>1122.96</ele>
        <time>2013-03-24T12:22:33Z</time>
      </trkpt>
      <trkpt lat="43.86908" lon="7.2555">
        <ele>1123.44</ele>
        <time>2013-03-24T12:22:39Z</time>
      </trkpt>
      <trkpt lat="43.86903" lon="7.25549">
        <ele>1124.88</ele>
        <time>2013-03-24T12:22:46Z</time>
      </trkpt>
      <trkpt lat="43.86897" lon="7.25546">
        <ele>1124.4</ele>
        <time>2013-03-24T12:22:54Z</time>
      </trkpt>
      <trkpt lat="43.86888" lon="7.25537">
        <ele>1125.36</ele>
        <time>2013-03-24T12:23:06Z</time>
      </trkpt>
      <trkpt lat="43.86882" lon="7.25534">
        <ele>1126.8</ele>
        <time>2013-03-24T12:23:12Z</time>
      </trkpt>
      <trkpt lat="43.86876" lon="7.25522">
        <ele>1124.4</ele>
        <time>2013-03-24T12:23:26Z</time>
      </trkpt>
      <trkpt lat="43.86874" lon="7.25519">
        <ele>1120.55</ele>
        <time>2013-03-24T12:23:33Z</time>
      </trkpt>
      <trkpt lat="43.86871" lon="7.25509">
        <ele>1119.11</ele>
        <time>2013-03-24T12:23:44Z</time>
      </trkpt>
      <trkpt lat="43.8687" lon="7.25506">
        <ele>1119.11</ele>
        <time>2013-03-24T12:23:46Z</time>
      </trkpt>
      <trkpt lat="43.86865" lon="7.25505">
        <ele>1116.23</ele>
        <time>2013-03-24T12:23:57Z</time>
      </trkpt>
      <trkpt lat="43.86859" lon="7.25514">
        <ele>1113.82</ele>
        <time>2013-03-24T12:24:09Z</time>
      </trkpt>
      <trkpt lat="43.86849" lon="7.25511">
        <ele>1109.98</ele>
        <time>2013-03-24T12:24:22Z</time>
      </trkpt>
      <trkpt lat="43.86848" lon="7.2551">
        <ele>1109.02</ele>
        <time>2013-03-24T12:24:24Z</time>
      </trkpt>
      <trkpt lat="43.86844" lon="7.25499">
        <ele>1108.54</ele>
        <time>2013-03-24T12:24:32Z</time>
      </trkpt>
      <trkpt lat="43.86838" lon="7.25495">
        <ele>1106.61</ele>
        <time>2013-03-24T12:24:42Z</time>
      </trkpt>
      <trkpt lat="43.86831" lon="7.25474">
        <ele>1102.29</ele>
        <time>2013-03-24T12:24:53Z</time>
      </trkpt>
      <trkpt lat="43.86832" lon="7.25467">
        <ele>1101.81</ele>
        <time>2013-03-24T12:24:58Z</time>
      </trkpt>
      <trkpt lat="43.86828" lon="7.25454">
        <ele>1098.44</ele>
        <time>2013-03-24T12:25:09Z</time>
      </trkpt>
      <trkpt lat="43.86825" lon="7.25451">
        <ele>1097.96</ele>
        <time>2013-03-24T12:25:13Z</time>
      </trkpt>
      <trkpt lat="43.86828" lon="7.25437">
        <ele>1095.56</ele>
        <time>2013-03-24T12:25:21Z</time>
      </trkpt>
      <trkpt lat="43.86831" lon="7.25421">
        <ele>1093.16</ele>
        <time>2013-03-24T12:25:34Z</time>
      </trkpt>
      <trkpt lat="43.86833" lon="7.25407">
        <ele>1089.79</ele>
        <time>2013-03-24T12:25:48Z</time>
      </trkpt>
      <trkpt lat="43.86833" lon="7.25401">
        <ele>1088.83</ele>
        <time>2013-03-24T12:25:52Z</time>
      </trkpt>
      <trkpt lat="43.8683" lon="7.254">
        <ele>1088.35</ele>
        <time>2013-03-24T12:25:55Z</time>
      </trkpt>
      <trkpt lat="43.86827" lon="7.25391">
        <ele>1087.39</ele>
        <time>2013-03-24T12:26:00Z</time>
      </trkpt>
      <trkpt lat="43.86829" lon="7.2538">
        <ele>1084.5</ele>
        <time>2013-03-24T12:26:09Z</time>
      </trkpt>
      <trkpt lat="43.86824" lon="7.25376">
        <ele>1083.06</ele>
        <time>2013-03-24T12:26:18Z</time>
      </trkpt>
      <trkpt lat="43.86821" lon="7.25372">
        <ele>1082.1</ele>
        <time>2013-03-24T12:26:22Z</time>
      </trkpt>
      <trkpt lat="43.86817" lon="7.25364">
        <ele>1080.18</ele>
        <time>2013-03-24T12:26:27Z</time>
      </trkpt>
      <trkpt lat="43.86819" lon="7.25352">
        <ele>1078.26</ele>
        <time>2013-03-24T12:26:33Z</time>
      </trkpt>
      <trkpt lat="43.86818" lon="7.25342">
        <ele>1075.37</ele>
        <time>2013-03-24T12:26:38Z</time>
      </trkpt>
      <trkpt lat="43.86817" lon="7.25339">
        <ele>1073.93</ele>
        <time>2013-03-24T12:26:40Z</time>
      </trkpt>
      <trkpt lat="43.86817" lon="7.25332">
        <ele>1073.45</ele>
        <time>2013-03-24T12:26:45Z</time>
      </trkpt>
      <trkpt lat="43.86818" lon="7.25329">
        <ele>1072.97</ele>
        <time>2013-03-24T12:26:47Z</time>
      </trkpt>
      <trkpt lat="43.86817" lon="7.25326">
        <ele>1072.49</ele>
        <time>2013-03-24T12:26:50Z</time>
      </trkpt>
      <trkpt lat="43.86812" lon="7.25315">
        <ele>1068.64</ele>
        <time>2013-03-24T12:27:02Z</time>
      </trkpt>
      <trkpt lat="43.86812" lon="7.25314">
        <ele>1068.16</ele>
        <time>2013-03-24T12:27:03Z</time>
      </trkpt>
      <trkpt lat="43.8682" lon="7.25299">
        <ele>1065.76</ele>
        <time>2013-03-24T12:27:12Z</time>
      </trkpt>
      <trkpt lat="43.86833" lon="7.25288">
        <ele>1062.39</ele>
        <time>2013-03-24T12:27:26Z</time>
      </trkpt>
      <trkpt lat="43.86838" lon="7.25281">
        <ele>1059.51</ele>
        <time>2013-03-24T12:27:38Z</time>
      </trkpt>
      <trkpt lat="43.8684" lon="7.2527">
        <ele>1058.07</ele>
        <time>2013-03-24T12:27:50Z</time>
      </trkpt>
      <trkpt lat="43.86841" lon="7.25268">
        <ele>1057.59</ele>
        <time>2013-03-24T12:27:52Z</time>
      </trkpt>
      <trkpt lat="43.86838" lon="7.25264">
        <ele>1056.63</ele>
        <time>2013-03-24T12:27:56Z</time>
      </trkpt>
      <trkpt lat="43.86833" lon="7.25265">
        <ele>1056.63</ele>
        <time>2013-03-24T12:28:01Z</time>
      </trkpt>
      <trkpt lat="43.86828" lon="7.25263">
        <ele>1055.67</ele>
        <time>2013-03-24T12:28:05Z</time>
      </trkpt>
      <trkpt lat="43.86814" lon="7.25247">
        <ele>1048.94</ele>
        <time>2013-03-24T12:28:17Z</time>
      </trkpt>
      <trkpt lat="43.86813" lon="7.25241">
        <ele>1045.09</ele>
        <time>2013-03-24T12:28:27Z</time>
      </trkpt>
      <trkpt lat="43.86816" lon="7.25229">
        <ele>1043.17</ele>
        <time>2013-03-24T12:28:37Z</time>
      </trkpt>
      <trkpt lat="43.86822" lon="7.25217">
        <ele>1039.32</ele>
        <time>2013-03-24T12:28:50Z</time>
      </trkpt>
      <trkpt lat="43.86823" lon="7.25216">
        <ele>1039.32</ele>
        <time>2013-03-24T12:28:51Z</time>
      </trkpt>
      <trkpt lat="43.86829" lon="7.25209">
        <ele>1039.8</ele>
        <time>2013-03-24T12:28:58Z</time>
      </trkpt>
      <trkpt lat="43.86832" lon="7.25207">
        <ele>1039.32</ele>
        <time>2013-03-24T12:29:01Z</time>
      </trkpt>
      <trkpt lat="43.86841" lon="7.25204">
        <ele>1037.4</ele>
        <time>2013-03-24T12:29:13Z</time>
      </trkpt>
      <trkpt lat="43.86842" lon="7.25204">
        <ele>1037.4</ele>
        <time>2013-03-24T12:29:16Z</time>
      </trkpt>
      <trkpt lat="43.86845" lon="7.25203">
        <ele>1036.44</ele>
        <time>2013-03-24T12:29:20Z</time>
      </trkpt>
      <trkpt lat="43.86847" lon="7.25204">
        <ele>1035.96</ele>
        <time>2013-03-24T12:29:22Z</time>
      </trkpt>
      <trkpt lat="43.86854" lon="7.25204">
        <ele>1035.96</ele>
        <time>2013-03-24T12:29:34Z</time>
      </trkpt>
      <trkpt lat="43.86866" lon="7.25203">
        <ele>1035.96</ele>
        <time>2013-03-24T12:29:48Z</time>
      </trkpt>
      <trkpt lat="43.86875" lon="7.25201">
        <ele>1031.63</ele>
        <time>2013-03-24T12:30:00Z</time>
      </trkpt>
      <trkpt lat="43.86878" lon="7.25202">
        <ele>1029.23</ele>
        <time>2013-03-24T12:30:14Z</time>
      </trkpt>
      <trkpt lat="43.86882" lon="7.25201">
        <ele>1027.31</ele>
        <time>2013-03-24T12:30:19Z</time>
      </trkpt>
      <trkpt lat="43.86884" lon="7.25198">
        <ele>1026.34</ele>
        <time>2013-03-24T12:30:22Z</time>
      </trkpt>
      <trkpt lat="43.86886" lon="7.25187">
        <ele>1026.34</ele>
        <time>2013-03-24T12:30:30Z</time>
      </trkpt>
      <trkpt lat="43.86891" lon="7.25167">
        <ele>1025.38</ele>
        <time>2013-03-24T12:30:41Z</time>
      </trkpt>
      <trkpt lat="43.8691" lon="7.25146">
        <ele>1018.17</ele>
        <time>2013-03-24T12:30:53Z</time>
      </trkpt>
      <trkpt lat="43.86914" lon="7.25142">
        <ele>1014.81</ele>
        <time>2013-03-24T12:30:57Z</time>
      </trkpt>
      <trkpt lat="43.86927" lon="7.25133">
        <ele>1011.93</ele>
        <time>2013-03-24T12:31:04Z</time>
      </trkpt>
      <trkpt lat="43.86935" lon="7.25129">
        <ele>1008.08</ele>
        <time>2013-03-24T12:31:14Z</time>
      </trkpt>
      <trkpt lat="43.8694" lon="7.25127">
        <ele>1007.6</ele>
        <time>2013-03-24T12:31:18Z</time>
      </trkpt>
      <trkpt lat="43.8695" lon="7.25121">
        <ele>1005.2</ele>
        <time>2013-03-24T12:31:24Z</time>
      </trkpt>
      <trkpt lat="43.86954" lon="7.25116">
        <ele>998.47</ele>
        <time>2013-03-24T12:31:36Z</time>
      </trkpt>
      <trkpt lat="43.86948" lon="7.25107">
        <ele>997.99</ele>
        <time>2013-03-24T12:31:43Z</time>
      </trkpt>
      <trkpt lat="43.86946" lon="7.25106">
        <ele>997.99</ele>
        <time>2013-03-24T12:31:45Z</time>
      </trkpt>
      <trkpt lat="43.8693" lon="7.25094">
        <ele>1003.27</ele>
        <time>2013-03-24T12:31:57Z</time>
      </trkpt>
      <trkpt lat="43.86921" lon="7.25086">
        <ele>1005.68</ele>
        <time>2013-03-24T12:32:02Z</time>
      </trkpt>
      <trkpt lat="43.8691" lon="7.25078">
        <ele>1008.08</ele>
        <time>2013-03-24T12:32:07Z</time>
      </trkpt>
      <trkpt lat="43.86905" lon="7.25074">
        <ele>1008.56</ele>
        <time>2013-03-24T12:32:10Z</time>
      </trkpt>
      <trkpt lat="43.86893" lon="7.25065">
        <ele>1007.6</ele>
        <time>2013-03-24T12:32:17Z</time>
      </trkpt>
      <trkpt lat="43.86891" lon="7.2506">
        <ele>1007.12</ele>
        <time>2013-03-24T12:32:20Z</time>
      </trkpt>
      <trkpt lat="43.86891" lon="7.25049">
        <ele>1003.75</ele>
        <time>2013-03-24T12:32:29Z</time>
      </trkpt>
      <trkpt lat="43.86888" lon="7.25042">
        <ele>1004.23</ele>
        <time>2013-03-24T12:32:33Z</time>
      </trkpt>
      <trkpt lat="43.86878" lon="7.25025">
        <ele>1005.2</ele>
        <time>2013-03-24T12:32:42Z</time>
      </trkpt>
      <trkpt lat="43.8687" lon="7.25007">
        <ele>1006.16</ele>
        <time>2013-03-24T12:32:49Z</time>
      </trkpt>
      <trkpt lat="43.86866" lon="7.25001">
        <ele>1008.08</ele>
        <time>2013-03-24T12:32:54Z</time>
      </trkpt>
      <trkpt lat="43.86848" lon="7.24987">
        <ele>1011.44</ele>
        <time>2013-03-24T12:33:05Z</time>
      </trkpt>
      <trkpt lat="43.86844" lon="7.24977">
        <ele>1012.41</ele>
        <time>2013-03-24T12:33:09Z</time>
      </trkpt>
      <trkpt lat="43.86846" lon="7.24956">
        <ele>1011.44</ele>
        <time>2013-03-24T12:33:14Z</time>
      </trkpt>
      <trkpt lat="43.86845" lon="7.24929">
        <ele>1007.6</ele>
        <time>2013-03-24T12:33:22Z</time>
      </trkpt>
      <trkpt lat="43.8686" lon="7.24881">
        <ele>1001.83</ele>
        <time>2013-03-24T12:33:32Z</time>
      </trkpt>
      <trkpt lat="43.86864" lon="7.24874">
        <ele>1000.39</ele>
        <time>2013-03-24T12:33:34Z</time>
      </trkpt>
      <trkpt lat="43.86878" lon="7.24852">
        <ele>991.26</ele>
        <time>2013-03-24T12:33:44Z</time>
      </trkpt>
      <trkpt lat="43.8688" lon="7.24851">
        <ele>987.89</ele>
        <time>2013-03-24T12:33:48Z</time>
      </trkpt>
      <trkpt lat="43.8689" lon="7.2485">
        <ele>981.16</ele>
        <time>2013-03-24T12:33:54Z</time>
      </trkpt>
      <trkpt lat="43.86919" lon="7.24841">
        <ele>973.95</ele>
        <time>2013-03-24T12:34:05Z</time>
      </trkpt>
      <trkpt lat="43.86932" lon="7.24822">
        <ele>968.18</ele>
        <time>2013-03-24T12:34:12Z</time>
      </trkpt>
      <trkpt lat="43.86921" lon="7.24796">
        <ele>960.01</ele>
        <time>2013-03-24T12:34:21Z</time>
      </trkpt>
      <trkpt lat="43.86914" lon="7.24788">
        <ele>957.13</ele>
        <time>2013-03-24T12:34:24Z</time>
      </trkpt>
      <trkpt lat="43.86897" lon="7.24781">
        <ele>951.36</ele>
        <time>2013-03-24T12:34:32Z</time>
      </trkpt>
      <trkpt lat="43.86883" lon="7.24772">
        <ele>948.48</ele>
        <time>2013-03-24T12:34:42Z</time>
      </trkpt>
      <trkpt lat="43.86883" lon="7.24771">
        <ele>948</ele>
        <time>2013-03-24T12:34:43Z</time>
      </trkpt>
      <trkpt lat="43.8687" lon="7.24758">
        <ele>945.11</ele>
        <time>2013-03-24T12:34:56Z</time>
      </trkpt>
      <trkpt lat="43.86866" lon="7.24757">
        <ele>943.67</ele>
        <time>2013-03-24T12:35:00Z</time>
      </trkpt>
      <trkpt lat="43.86855" lon="7.24747">
        <ele>939.83</ele>
        <time>2013-03-24T12:35:12Z</time>
      </trkpt>
      <trkpt lat="43.86855" lon="7.2474">
        <ele>937.9</ele>
        <time>2013-03-24T12:35:19Z</time>
      </trkpt>
      <trkpt lat="43.86849" lon="7.24725">
        <ele>934.54</ele>
        <time>2013-03-24T12:35:33Z</time>
      </trkpt>
      <trkpt lat="43.86849" lon="7.24722">
        <ele>933.1</ele>
        <time>2013-03-24T12:35:36Z</time>
      </trkpt>
      <trkpt lat="43.86849" lon="7.24718">
        <ele>931.17</ele>
        <time>2013-03-24T12:35:40Z</time>
      </trkpt>
      <trkpt lat="43.86847" lon="7.24715">
        <ele>930.69</ele>
        <time>2013-03-24T12:35:43Z</time>
      </trkpt>
      <trkpt lat="43.86844" lon="7.24705">
        <ele>927.33</ele>
        <time>2013-03-24T12:35:53Z</time>
      </trkpt>
      <trkpt lat="43.86843" lon="7.24703">
        <ele>926.85</ele>
        <time>2013-03-24T12:35:55Z</time>
      </trkpt>
      <trkpt lat="43.8684" lon="7.247">
        <ele>925.89</ele>
        <time>2013-03-24T12:35:59Z</time>
      </trkpt>
      <trkpt lat="43.86841" lon="7.24695">
        <ele>925.89</ele>
        <time>2013-03-24T12:36:03Z</time>
      </trkpt>
      <trkpt lat="43.86842" lon="7.24687">
        <ele>923.48</ele>
        <time>2013-03-24T12:36:14Z</time>
      </trkpt>
      <trkpt lat="43.86842" lon="7.24687">
        <ele>923.48</ele>
        <time>2013-03-24T12:36:15Z</time>
      </trkpt>
      <trkpt lat="43.86836" lon="7.2468">
        <ele>920.6</ele>
        <time>2013-03-24T12:36:21Z</time>
      </trkpt>
      <trkpt lat="43.86822" lon="7.24672">
        <ele>917.72</ele>
        <time>2013-03-24T12:36:30Z</time>
      </trkpt>
      <trkpt lat="43.86814" lon="7.24669">
        <ele>915.31</ele>
        <time>2013-03-24T12:36:38Z</time>
      </trkpt>
      <trkpt lat="43.8681" lon="7.24662">
        <ele>912.91</ele>
        <time>2013-03-24T12:36:42Z</time>
      </trkpt>
      <trkpt lat="43.86804" lon="7.24652">
        <ele>910.03</ele>
        <time>2013-03-24T12:36:46Z</time>
      </trkpt>
      <trkpt lat="43.86794" lon="7.24648">
        <ele>906.66</ele>
        <time>2013-03-24T12:36:56Z</time>
      </trkpt>
      <trkpt lat="43.86782" lon="7.24638">
        <ele>904.26</ele>
        <time>2013-03-24T12:37:08Z</time>
      </trkpt>
      <trkpt lat="43.86774" lon="7.24634">
        <ele>903.3</ele>
        <time>2013-03-24T12:37:14Z</time>
      </trkpt>
      <trkpt lat="43.86757" lon="7.24624">
        <ele>900.41</ele>
        <time>2013-03-24T12:37:29Z</time>
      </trkpt>
      <trkpt lat="43.86741" lon="7.24614">
        <ele>896.57</ele>
        <time>2013-03-24T12:37:41Z</time>
      </trkpt>
      <trkpt lat="43.86731" lon="7.24607">
        <ele>893.68</ele>
        <time>2013-03-24T12:37:49Z</time>
      </trkpt>
      <trkpt lat="43.86718" lon="7.24598">
        <ele>889.36</ele>
        <time>2013-03-24T12:37:59Z</time>
      </trkpt>
      <trkpt lat="43.867" lon="7.24589">
        <ele>884.55</ele>
        <time>2013-03-24T12:38:08Z</time>
      </trkpt>
      <trkpt lat="43.86678" lon="7.24578">
        <ele>879.26</ele>
        <time>2013-03-24T12:38:18Z</time>
      </trkpt>
      <trkpt lat="43.86672" lon="7.24577">
        <ele>878.78</ele>
        <time>2013-03-24T12:38:29Z</time>
      </trkpt>
      <trkpt lat="43.86668" lon="7.24573">
        <ele>878.3</ele>
        <time>2013-03-24T12:38:36Z</time>
      </trkpt>
      <trkpt lat="43.86665" lon="7.24571">
        <ele>877.34</ele>
        <time>2013-03-24T12:38:39Z</time>
      </trkpt>
      <trkpt lat="43.86657" lon="7.24567">
        <ele>874.46</ele>
        <time>2013-03-24T12:38:49Z</time>
      </trkpt>
      <trkpt lat="43.86652" lon="7.24563">
        <ele>873.01</ele>
        <time>2013-03-24T12:38:54Z</time>
      </trkpt>
      <trkpt lat="43.86641" lon="7.24553">
        <ele>869.65</ele>
        <time>2013-03-24T12:39:07Z</time>
      </trkpt>
      <trkpt lat="43.86626" lon="7.24545">
        <ele>864.84</ele>
        <time>2013-03-24T12:39:17Z</time>
      </trkpt>
      <trkpt lat="43.86622" lon="7.24544">
        <ele>863.88</ele>
        <time>2013-03-24T12:39:21Z</time>
      </trkpt>
      <trkpt lat="43.86612" lon="7.2454">
        <ele>861.48</ele>
        <time>2013-03-24T12:39:27Z</time>
      </trkpt>
      <trkpt lat="43.86592" lon="7.24535">
        <ele>858.11</ele>
        <time>2013-03-24T12:39:38Z</time>
      </trkpt>
      <trkpt lat="43.86573" lon="7.2454">
        <ele>854.27</ele>
        <time>2013-03-24T12:39:48Z</time>
      </trkpt>
      <trkpt lat="43.86571" lon="7.24539">
        <ele>853.31</ele>
        <time>2013-03-24T12:39:49Z</time>
      </trkpt>
      <trkpt lat="43.86566" lon="7.24533">
        <ele>850.9</ele>
        <time>2013-03-24T12:39:53Z</time>
      </trkpt>
      <trkpt lat="43.86561" lon="7.24516">
        <ele>843.21</ele>
        <time>2013-03-24T12:40:03Z</time>
      </trkpt>
      <trkpt lat="43.86561" lon="7.24515">
        <ele>842.73</ele>
        <time>2013-03-24T12:40:04Z</time>
      </trkpt>
      <trkpt lat="43.86562" lon="7.24509">
        <ele>840.81</ele>
        <time>2013-03-24T12:40:09Z</time>
      </trkpt>
      <trkpt lat="43.86556" lon="7.24502">
        <ele>837.93</ele>
        <time>2013-03-24T12:40:14Z</time>
      </trkpt>
      <trkpt lat="43.8655" lon="7.2449">
        <ele>834.08</ele>
        <time>2013-03-24T12:40:19Z</time>
      </trkpt>
      <trkpt lat="43.86545" lon="7.24483">
        <ele>831.2</ele>
        <time>2013-03-24T12:40:22Z</time>
      </trkpt>
      <trkpt lat="43.86539" lon="7.24457">
        <ele>824.47</ele>
        <time>2013-03-24T12:40:32Z</time>
      </trkpt>
      <trkpt lat="43.86548" lon="7.24441">
        <ele>821.58</ele>
        <time>2013-03-24T12:40:39Z</time>
      </trkpt>
      <trkpt lat="43.86568" lon="7.24428">
        <ele>818.7</ele>
        <time>2013-03-24T12:40:47Z</time>
      </trkpt>
      <trkpt lat="43.86578" lon="7.24416">
        <ele>815.34</ele>
        <time>2013-03-24T12:40:52Z</time>
      </trkpt>
      <trkpt lat="43.86589" lon="7.24406">
        <ele>811.97</ele>
        <time>2013-03-24T12:41:02Z</time>
      </trkpt>
      <trkpt lat="43.86588" lon="7.24403">
        <ele>811.49</ele>
        <time>2013-03-24T12:41:08Z</time>
      </trkpt>
      <trkpt lat="43.86581" lon="7.24397">
        <ele>813.89</ele>
        <time>2013-03-24T12:41:19Z</time>
      </trkpt>
      <trkpt lat="43.86573" lon="7.2439">
        <ele>818.7</ele>
        <time>2013-03-24T12:41:29Z</time>
      </trkpt>
      <trkpt lat="43.8657" lon="7.24388">
        <ele>819.66</ele>
        <time>2013-03-24T12:41:32Z</time>
      </trkpt>
      <trkpt lat="43.86563" lon="7.24385">
        <ele>819.66</ele>
        <time>2013-03-24T12:41:38Z</time>
      </trkpt>
      <trkpt lat="43.86559" lon="7.24383">
        <ele>818.7</ele>
        <time>2013-03-24T12:41:42Z</time>
      </trkpt>
      <trkpt lat="43.86544" lon="7.24373">
        <ele>814.85</ele>
        <time>2013-03-24T12:41:56Z</time>
      </trkpt>
      <trkpt lat="43.86542" lon="7.24375">
        <ele>813.89</ele>
        <time>2013-03-24T12:41:58Z</time>
      </trkpt>
      <trkpt lat="43.86532" lon="7.24376">
        <ele>811.49</ele>
        <time>2013-03-24T12:42:10Z</time>
      </trkpt>
      <trkpt lat="43.86529" lon="7.24373">
        <ele>810.05</ele>
        <time>2013-03-24T12:42:15Z</time>
      </trkpt>
      <trkpt lat="43.86523" lon="7.24368">
        <ele>808.61</ele>
        <time>2013-03-24T12:42:22Z</time>
      </trkpt>
      <trkpt lat="43.8652" lon="7.24362">
        <ele>807.64</ele>
        <time>2013-03-24T12:42:26Z</time>
      </trkpt>
      <trkpt lat="43.8652" lon="7.24342">
        <ele>803.8</ele>
        <time>2013-03-24T12:42:36Z</time>
      </trkpt>
      <trkpt lat="43.86522" lon="7.24332">
        <ele>801.4</ele>
        <time>2013-03-24T12:42:40Z</time>
      </trkpt>
      <trkpt lat="43.86517" lon="7.24319">
        <ele>796.59</ele>
        <time>2013-03-24T12:42:45Z</time>
      </trkpt>
      <trkpt lat="43.86517" lon="7.24309">
        <ele>792.26</ele>
        <time>2013-03-24T12:42:49Z</time>
      </trkpt>
      <trkpt lat="43.8652" lon="7.24297">
        <ele>784.09</ele>
        <time>2013-03-24T12:43:02Z</time>
      </trkpt>
      <trkpt lat="43.8652" lon="7.2429">
        <ele>781.21</ele>
        <time>2013-03-24T12:43:08Z</time>
      </trkpt>
      <trkpt lat="43.86521" lon="7.24281">
        <ele>777.84</ele>
        <time>2013-03-24T12:43:14Z</time>
      </trkpt>
      <trkpt lat="43.8652" lon="7.2427">
        <ele>775.44</ele>
        <time>2013-03-24T12:43:20Z</time>
      </trkpt>
      <trkpt lat="43.86523" lon="7.24264">
        <ele>774.96</ele>
        <time>2013-03-24T12:43:23Z</time>
      </trkpt>
      <trkpt lat="43.86524" lon="7.24259">
        <ele>773.52</ele>
        <time>2013-03-24T12:43:28Z</time>
      </trkpt>
      <trkpt lat="43.86519" lon="7.24242">
        <ele>766.79</ele>
        <time>2013-03-24T12:43:38Z</time>
      </trkpt>
      <trkpt lat="43.86519" lon="7.24219">
        <ele>760.54</ele>
        <time>2013-03-24T12:43:46Z</time>
      </trkpt>
      <trkpt lat="43.86521" lon="7.24192">
        <ele>753.33</ele>
        <time>2013-03-24T12:43:55Z</time>
      </trkpt>
      <trkpt lat="43.86531" lon="7.24191">
        <ele>752.37</ele>
        <time>2013-03-24T12:43:58Z</time>
      </trkpt>
      <trkpt lat="43.86576" lon="7.24173">
        <ele>749</ele>
        <time>2013-03-24T12:44:06Z</time>
      </trkpt>
      <trkpt lat="43.86601" lon="7.24155">
        <ele>745.64</ele>
        <time>2013-03-24T12:44:10Z</time>
      </trkpt>
      <trkpt lat="43.8663" lon="7.24143">
        <ele>742.28</ele>
        <time>2013-03-24T12:44:16Z</time>
      </trkpt>
      <trkpt lat="43.86634" lon="7.24155">
        <ele>743.24</ele>
        <time>2013-03-24T12:44:23Z</time>
      </trkpt>
      <trkpt lat="43.86638" lon="7.24158">
        <ele>742.76</ele>
        <time>2013-03-24T12:44:28Z</time>
      </trkpt>
      <trkpt lat="43.86653" lon="7.24163">
        <ele>743.72</ele>
        <time>2013-03-24T12:44:39Z</time>
      </trkpt>
      <trkpt lat="43.86657" lon="7.24168">
        <ele>744.68</ele>
        <time>2013-03-24T12:44:42Z</time>
      </trkpt>
      <trkpt lat="43.86672" lon="7.24177">
        <ele>745.64</ele>
        <time>2013-03-24T12:44:53Z</time>
      </trkpt>
      <trkpt lat="43.86692" lon="7.24182">
        <ele>746.12</ele>
        <time>2013-03-24T12:45:09Z</time>
      </trkpt>
      <trkpt lat="43.86702" lon="7.24183">
        <ele>746.12</ele>
        <time>2013-03-24T12:45:19Z</time>
      </trkpt>
      <trkpt lat="43.86716" lon="7.24185">
        <ele>744.68</ele>
        <time>2013-03-24T12:45:25Z</time>
      </trkpt>
      <trkpt lat="43.86754" lon="7.24181">
        <ele>743.72</ele>
        <time>2013-03-24T12:45:38Z</time>
      </trkpt>
      <trkpt lat="43.86777" lon="7.24186">
        <ele>741.79</ele>
        <time>2013-03-24T12:45:44Z</time>
      </trkpt>
      <trkpt lat="43.86795" lon="7.24204">
        <ele>739.87</ele>
        <time>2013-03-24T12:45:51Z</time>
      </trkpt>
      <trkpt lat="43.86827" lon="7.24231">
        <ele>736.03</ele>
        <time>2013-03-24T12:46:02Z</time>
      </trkpt>
      <trkpt lat="43.86835" lon="7.24233">
        <ele>735.07</ele>
        <time>2013-03-24T12:46:04Z</time>
      </trkpt>
      <trkpt lat="43.86852" lon="7.24241">
        <ele>733.62</ele>
        <time>2013-03-24T12:46:08Z</time>
      </trkpt>
      <trkpt lat="43.8687" lon="7.24252">
        <ele>733.62</ele>
        <time>2013-03-24T12:46:19Z</time>
      </trkpt>
      <trkpt lat="43.86874" lon="7.24256">
        <ele>734.58</ele>
        <time>2013-03-24T12:46:22Z</time>
      </trkpt>
      <trkpt lat="43.86892" lon="7.24259">
        <ele>733.62</ele>
        <time>2013-03-24T12:46:32Z</time>
      </trkpt>
      <trkpt lat="43.86915" lon="7.24273">
        <ele>733.14</ele>
        <time>2013-03-24T12:46:42Z</time>
      </trkpt>
      <trkpt lat="43.86921" lon="7.24276">
        <ele>733.62</ele>
        <time>2013-03-24T12:46:52Z</time>
      </trkpt>
      <trkpt lat="43.86941" lon="7.24284">
        <ele>737.95</ele>
        <time>2013-03-24T12:47:09Z</time>
      </trkpt>
      <trkpt lat="43.86954" lon="7.24295">
        <ele>739.87</ele>
        <time>2013-03-24T12:47:26Z</time>
      </trkpt>
      <trkpt lat="43.86956" lon="7.24295">
        <ele>739.87</ele>
        <time>2013-03-24T12:47:28Z</time>
      </trkpt>
      <trkpt lat="43.86975" lon="7.24301">
        <ele>742.76</ele>
        <time>2013-03-24T12:47:44Z</time>
      </trkpt>
      <trkpt lat="43.86985" lon="7.24305">
        <ele>744.2</ele>
        <time>2013-03-24T12:47:55Z</time>
      </trkpt>
      <trkpt lat="43.86994" lon="7.24307">
        <ele>745.64</ele>
        <time>2013-03-24T12:48:06Z</time>
      </trkpt>
      <trkpt lat="43.86999" lon="7.24307">
        <ele>746.6</ele>
        <time>2013-03-24T12:48:11Z</time>
      </trkpt>
      <trkpt lat="43.87006" lon="7.2431">
        <ele>748.04</ele>
        <time>2013-03-24T12:48:19Z</time>
      </trkpt>
      <trkpt lat="43.87021" lon="7.24312">
        <ele>750.93</ele>
        <time>2013-03-24T12:48:35Z</time>
      </trkpt>
      <trkpt lat="43.87035" lon="7.24312">
        <ele>752.85</ele>
        <time>2013-03-24T12:48:50Z</time>
      </trkpt>
      <trkpt lat="43.87046" lon="7.24316">
        <ele>755.73</ele>
        <time>2013-03-24T12:49:05Z</time>
      </trkpt>
      <trkpt lat="43.87048" lon="7.2432">
        <ele>755.73</ele>
        <time>2013-03-24T12:49:09Z</time>
      </trkpt>
      <trkpt lat="43.8705" lon="7.24322">
        <ele>755.73</ele>
        <time>2013-03-24T12:49:13Z</time>
      </trkpt>
      <trkpt lat="43.87054" lon="7.24317">
        <ele>755.25</ele>
        <time>2013-03-24T12:49:17Z</time>
      </trkpt>
      <trkpt lat="43.87069" lon="7.24302">
        <ele>754.29</ele>
        <time>2013-03-24T12:49:32Z</time>
      </trkpt>
      <trkpt lat="43.87072" lon="7.24299">
        <ele>754.29</ele>
        <time>2013-03-24T12:49:34Z</time>
      </trkpt>
      <trkpt lat="43.87072" lon="7.24283">
        <ele>752.85</ele>
        <time>2013-03-24T12:49:42Z</time>
      </trkpt>
      <trkpt lat="43.87084" lon="7.24269">
        <ele>749</ele>
        <time>2013-03-24T12:49:52Z</time>
      </trkpt>
      <trkpt lat="43.87086" lon="7.24267">
        <ele>748.52</ele>
        <time>2013-03-24T12:49:53Z</time>
      </trkpt>
      <trkpt lat="43.87089" lon="7.24259">
        <ele>747.08</ele>
        <time>2013-03-24T12:49:57Z</time>
      </trkpt>
      <trkpt lat="43.87092" lon="7.24254">
        <ele>744.68</ele>
        <time>2013-03-24T12:50:02Z</time>
      </trkpt>
      <trkpt lat="43.87098" lon="7.24238">
        <ele>739.87</ele>
        <time>2013-03-24T12:50:13Z</time>
      </trkpt>
      <trkpt lat="43.87101" lon="7.24204">
        <ele>728.34</ele>
        <time>2013-03-24T12:50:25Z</time>
      </trkpt>
      <trkpt lat="43.87103" lon="7.242">
        <ele>725.45</ele>
        <time>2013-03-24T12:50:31Z</time>
      </trkpt>
      <trkpt lat="43.87094" lon="7.24189">
        <ele>721.13</ele>
        <time>2013-03-24T12:50:44Z</time>
      </trkpt>
      <trkpt lat="43.87086" lon="7.24182">
        <ele>719.68</ele>
        <time>2013-03-24T12:50:53Z</time>
      </trkpt>
      <trkpt lat="43.87086" lon="7.2418">
        <ele>719.2</ele>
        <time>2013-03-24T12:50:55Z</time>
      </trkpt>
      <trkpt lat="43.87092" lon="7.24171">
        <ele>715.84</ele>
        <time>2013-03-24T12:51:03Z</time>
      </trkpt>
      <trkpt lat="43.87099" lon="7.2415">
        <ele>709.11</ele>
        <time>2013-03-24T12:51:16Z</time>
      </trkpt>
      <trkpt lat="43.87111" lon="7.24144">
        <ele>706.71</ele>
        <time>2013-03-24T12:51:29Z</time>
      </trkpt>
      <trkpt lat="43.87108" lon="7.24142">
        <ele>705.26</ele>
        <time>2013-03-24T12:51:34Z</time>
      </trkpt>
      <trkpt lat="43.87101" lon="7.24131">
        <ele>702.38</ele>
        <time>2013-03-24T12:51:48Z</time>
      </trkpt>
      <trkpt lat="43.87099" lon="7.24121">
        <ele>700.46</ele>
        <time>2013-03-24T12:52:00Z</time>
      </trkpt>
      <trkpt lat="43.87096" lon="7.24115">
        <ele>699.5</ele>
        <time>2013-03-24T12:52:09Z</time>
      </trkpt>
      <trkpt lat="43.87087" lon="7.24106">
        <ele>697.57</ele>
        <time>2013-03-24T12:52:21Z</time>
      </trkpt>
      <trkpt lat="43.87078" lon="7.24098">
        <ele>695.65</ele>
        <time>2013-03-24T12:52:36Z</time>
      </trkpt>
      <trkpt lat="43.87079" lon="7.24087">
        <ele>693.25</ele>
        <time>2013-03-24T12:52:49Z</time>
      </trkpt>
      <trkpt lat="43.8707" lon="7.24079">
        <ele>692.77</ele>
        <time>2013-03-24T12:53:00Z</time>
      </trkpt>
      <trkpt lat="43.87065" lon="7.24076">
        <ele>690.84</ele>
        <time>2013-03-24T12:53:05Z</time>
      </trkpt>
      <trkpt lat="43.87062" lon="7.24073">
        <ele>689.88</ele>
        <time>2013-03-24T12:53:08Z</time>
      </trkpt>
      <trkpt lat="43.8706" lon="7.24069">
        <ele>690.36</ele>
        <time>2013-03-24T12:53:11Z</time>
      </trkpt>
      <trkpt lat="43.87049" lon="7.24065">
        <ele>687.96</ele>
        <time>2013-03-24T12:53:22Z</time>
      </trkpt>
      <trkpt lat="43.87042" lon="7.24062">
        <ele>686.04</ele>
        <time>2013-03-24T12:53:27Z</time>
      </trkpt>
      <trkpt lat="43.87041" lon="7.24055">
        <ele>682.19</ele>
        <time>2013-03-24T12:53:39Z</time>
      </trkpt>
      <trkpt lat="43.87041" lon="7.24056">
        <ele>678.83</ele>
        <time>2013-03-24T12:53:49Z</time>
      </trkpt>
      <trkpt lat="43.87035" lon="7.24049">
        <ele>674.98</ele>
        <time>2013-03-24T12:54:01Z</time>
      </trkpt>
      <trkpt lat="43.87029" lon="7.24044">
        <ele>674.98</ele>
        <time>2013-03-24T12:54:08Z</time>
      </trkpt>
      <trkpt lat="43.87023" lon="7.2405">
        <ele>675.46</ele>
        <time>2013-03-24T12:54:16Z</time>
      </trkpt>
      <trkpt lat="43.87005" lon="7.24053">
        <ele>677.39</ele>
        <time>2013-03-24T12:54:33Z</time>
      </trkpt>
      <trkpt lat="43.86995" lon="7.24058">
        <ele>677.39</ele>
        <time>2013-03-24T12:54:47Z</time>
      </trkpt>
      <trkpt lat="43.86994" lon="7.24059">
        <ele>677.39</ele>
        <time>2013-03-24T12:54:49Z</time>
      </trkpt>
      <trkpt lat="43.86985" lon="7.24072">
        <ele>677.87</ele>
        <time>2013-03-24T12:55:03Z</time>
      </trkpt>
      <trkpt lat="43.86984" lon="7.24072">
        <ele>677.87</ele>
        <time>2013-03-24T12:55:04Z</time>
      </trkpt>
      <trkpt lat="43.86968" lon="7.24083">
        <ele>674.02</ele>
        <time>2013-03-24T12:55:13Z</time>
      </trkpt>
      <trkpt lat="43.86965" lon="7.24089">
        <ele>673.06</ele>
        <time>2013-03-24T12:55:19Z</time>
      </trkpt>
      <trkpt lat="43.86948" lon="7.24096">
        <ele>672.58</ele>
        <time>2013-03-24T12:55:34Z</time>
      </trkpt>
      <trkpt lat="43.8694" lon="7.24094">
        <ele>673.06</ele>
        <time>2013-03-24T12:55:43Z</time>
      </trkpt>
      <trkpt lat="43.86928" lon="7.24089">
        <ele>675.46</ele>
        <time>2013-03-24T12:55:56Z</time>
      </trkpt>
      <trkpt lat="43.86905" lon="7.24076">
        <ele>675.46</ele>
        <time>2013-03-24T12:56:07Z</time>
      </trkpt>
      <trkpt lat="43.86898" lon="7.24045">
        <ele>676.91</ele>
        <time>2013-03-24T12:56:17Z</time>
      </trkpt>
      <trkpt lat="43.86872" lon="7.24013">
        <ele>673.54</ele>
        <time>2013-03-24T12:56:26Z</time>
      </trkpt>
      <trkpt lat="43.86858" lon="7.24001">
        <ele>672.1</ele>
        <time>2013-03-24T12:56:31Z</time>
      </trkpt>
      <trkpt lat="43.86854" lon="7.23984">
        <ele>668.73</ele>
        <time>2013-03-24T12:56:39Z</time>
      </trkpt>
      <trkpt lat="43.86853" lon="7.23978">
        <ele>667.77</ele>
        <time>2013-03-24T12:56:45Z</time>
      </trkpt>
      <trkpt lat="43.86857" lon="7.23966">
        <ele>667.77</ele>
        <time>2013-03-24T12:57:00Z</time>
      </trkpt>
      <trkpt lat="43.86863" lon="7.2395">
        <ele>672.58</ele>
        <time>2013-03-24T12:57:13Z</time>
      </trkpt>
      <trkpt lat="43.86864" lon="7.23948">
        <ele>673.54</ele>
        <time>2013-03-24T12:57:15Z</time>
      </trkpt>
      <trkpt lat="43.86869" lon="7.23928">
        <ele>676.42</ele>
        <time>2013-03-24T12:57:28Z</time>
      </trkpt>
      <trkpt lat="43.86876" lon="7.23906">
        <ele>675.94</ele>
        <time>2013-03-24T12:57:40Z</time>
      </trkpt>
      <trkpt lat="43.86877" lon="7.23876">
        <ele>677.39</ele>
        <time>2013-03-24T12:57:53Z</time>
      </trkpt>
      <trkpt lat="43.86877" lon="7.23854">
        <ele>675.94</ele>
        <time>2013-03-24T12:58:03Z</time>
      </trkpt>
      <trkpt lat="43.86875" lon="7.23824">
        <ele>675.94</ele>
        <time>2013-03-24T12:58:20Z</time>
      </trkpt>
      <trkpt lat="43.86865" lon="7.23791">
        <ele>674.98</ele>
        <time>2013-03-24T12:58:32Z</time>
      </trkpt>
      <trkpt lat="43.86849" lon="7.23756">
        <ele>674.02</ele>
        <time>2013-03-24T12:58:47Z</time>
      </trkpt>
      <trkpt lat="43.86848" lon="7.23746">
        <ele>674.5</ele>
        <time>2013-03-24T12:58:51Z</time>
      </trkpt>
      <trkpt lat="43.86839" lon="7.23736">
        <ele>675.94</ele>
        <time>2013-03-24T12:59:01Z</time>
      </trkpt>
      <trkpt lat="43.86828" lon="7.23718">
        <ele>679.79</ele>
        <time>2013-03-24T12:59:16Z</time>
      </trkpt>
      <trkpt lat="43.86829" lon="7.23709">
        <ele>681.23</ele>
        <time>2013-03-24T12:59:22Z</time>
      </trkpt>
      <trkpt lat="43.86829" lon="7.23705">
        <ele>681.71</ele>
        <time>2013-03-24T12:59:24Z</time>
      </trkpt>
      <trkpt lat="43.86826" lon="7.23697">
        <ele>682.19</ele>
        <time>2013-03-24T12:59:28Z</time>
      </trkpt>
      <trkpt lat="43.86807" lon="7.23649">
        <ele>682.67</ele>
        <time>2013-03-24T12:59:40Z</time>
      </trkpt>
      <trkpt lat="43.86802" lon="7.23644">
        <ele>683.15</ele>
        <time>2013-03-24T12:59:42Z</time>
      </trkpt>
      <trkpt lat="43.86774" lon="7.23614">
        <ele>684.6</ele>
        <time>2013-03-24T12:59:53Z</time>
      </trkpt>
      <trkpt lat="43.8677" lon="7.23598">
        <ele>682.67</ele>
        <time>2013-03-24T12:59:57Z</time>
      </trkpt>
      <trkpt lat="43.86744" lon="7.23579">
        <ele>675.46</ele>
        <time>2013-03-24T13:00:06Z</time>
      </trkpt>
      <trkpt lat="43.86738" lon="7.23563">
        <ele>669.7</ele>
        <time>2013-03-24T13:00:13Z</time>
      </trkpt>
      <trkpt lat="43.86737" lon="7.23553">
        <ele>667.77</ele>
        <time>2013-03-24T13:00:24Z</time>
      </trkpt>
      <trkpt lat="43.86737" lon="7.23551">
        <ele>668.25</ele>
        <time>2013-03-24T13:00:27Z</time>
      </trkpt>
      <trkpt lat="43.86734" lon="7.23534">
        <ele>674.02</ele>
        <time>2013-03-24T13:00:40Z</time>
      </trkpt>
      <trkpt lat="43.86741" lon="7.23518">
        <ele>680.75</ele>
        <time>2013-03-24T13:00:53Z</time>
      </trkpt>
      <trkpt lat="43.86745" lon="7.23496">
        <ele>686.04</ele>
        <time>2013-03-24T13:01:09Z</time>
      </trkpt>
      <trkpt lat="43.86748" lon="7.23476">
        <ele>689.4</ele>
        <time>2013-03-24T13:01:21Z</time>
      </trkpt>
      <trkpt lat="43.8675" lon="7.23471">
        <ele>695.65</ele>
        <time>2013-03-24T13:01:33Z</time>
      </trkpt>
      <trkpt lat="43.86755" lon="7.23448">
        <ele>699.02</ele>
        <time>2013-03-24T13:01:46Z</time>
      </trkpt>
      <trkpt lat="43.86757" lon="7.23432">
        <ele>697.57</ele>
        <time>2013-03-24T13:02:00Z</time>
      </trkpt>
      <trkpt lat="43.8676" lon="7.23418">
        <ele>697.09</ele>
        <time>2013-03-24T13:02:11Z</time>
      </trkpt>
      <trkpt lat="43.86762" lon="7.23403">
        <ele>699.98</ele>
        <time>2013-03-24T13:02:24Z</time>
      </trkpt>
      <trkpt lat="43.86763" lon="7.23381">
        <ele>698.05</ele>
        <time>2013-03-24T13:02:39Z</time>
      </trkpt>
      <trkpt lat="43.86762" lon="7.23376">
        <ele>696.61</ele>
        <time>2013-03-24T13:02:43Z</time>
      </trkpt>
      <trkpt lat="43.86755" lon="7.23371">
        <ele>695.17</ele>
        <time>2013-03-24T13:02:57Z</time>
      </trkpt>
      <trkpt lat="43.86746" lon="7.23359">
        <ele>695.17</ele>
        <time>2013-03-24T13:03:10Z</time>
      </trkpt>
      <trkpt lat="43.86743" lon="7.23351">
        <ele>692.77</ele>
        <time>2013-03-24T13:03:18Z</time>
      </trkpt>
      <trkpt lat="43.86746" lon="7.23325">
        <ele>687</ele>
        <time>2013-03-24T13:03:27Z</time>
      </trkpt>
      <trkpt lat="43.8676" lon="7.23305">
        <ele>683.63</ele>
        <time>2013-03-24T13:03:34Z</time>
      </trkpt>
      <trkpt lat="43.86755" lon="7.23295">
        <ele>681.23</ele>
        <time>2013-03-24T13:03:38Z</time>
      </trkpt>
      <trkpt lat="43.86749" lon="7.23273">
        <ele>675.94</ele>
        <time>2013-03-24T13:03:46Z</time>
      </trkpt>
      <trkpt lat="43.86742" lon="7.23271">
        <ele>673.54</ele>
        <time>2013-03-24T13:03:49Z</time>
      </trkpt>
      <trkpt lat="43.86732" lon="7.23277">
        <ele>670.18</ele>
        <time>2013-03-24T13:03:53Z</time>
      </trkpt>
      <trkpt lat="43.86723" lon="7.23282">
        <ele>667.29</ele>
        <time>2013-03-24T13:04:04Z</time>
      </trkpt>
      <trkpt lat="43.86711" lon="7.23286">
        <ele>664.89</ele>
        <time>2013-03-24T13:04:18Z</time>
      </trkpt>
      <trkpt lat="43.86699" lon="7.2329">
        <ele>661.04</ele>
        <time>2013-03-24T13:04:29Z</time>
      </trkpt>
      <trkpt lat="43.86695" lon="7.23296">
        <ele>659.12</ele>
        <time>2013-03-24T13:04:37Z</time>
      </trkpt>
      <trkpt lat="43.86691" lon="7.23298">
        <ele>658.16</ele>
        <time>2013-03-24T13:04:41Z</time>
      </trkpt>
      <trkpt lat="43.86676" lon="7.23302">
        <ele>653.83</ele>
        <time>2013-03-24T13:04:52Z</time>
      </trkpt>
      <trkpt lat="43.86661" lon="7.23308">
        <ele>649.51</ele>
        <time>2013-03-24T13:04:56Z</time>
      </trkpt>
      <trkpt lat="43.86645" lon="7.23312">
        <ele>645.66</ele>
        <time>2013-03-24T13:05:00Z</time>
      </trkpt>
      <trkpt lat="43.86619" lon="7.23313">
        <ele>641.34</ele>
        <time>2013-03-24T13:05:11Z</time>
      </trkpt>
      <trkpt lat="43.86612" lon="7.2331">
        <ele>642.3</ele>
        <time>2013-03-24T13:05:22Z</time>
      </trkpt>
      <trkpt lat="43.86617" lon="7.233">
        <ele>640.86</ele>
        <time>2013-03-24T13:05:30Z</time>
      </trkpt>
      <trkpt lat="43.86613" lon="7.23301">
        <ele>640.38</ele>
        <time>2013-03-24T13:05:34Z</time>
      </trkpt>
      <trkpt lat="43.86609" lon="7.23299">
        <ele>640.38</ele>
        <time>2013-03-24T13:05:39Z</time>
      </trkpt>
      <trkpt lat="43.86599" lon="7.23288">
        <ele>638.45</ele>
        <time>2013-03-24T13:05:51Z</time>
      </trkpt>
      <trkpt lat="43.86591" lon="7.23283">
        <ele>634.13</ele>
        <time>2013-03-24T13:05:55Z</time>
      </trkpt>
      <trkpt lat="43.86576" lon="7.23274">
        <ele>626.92</ele>
        <time>2013-03-24T13:06:01Z</time>
      </trkpt>
      <trkpt lat="43.86562" lon="7.23253">
        <ele>619.71</ele>
        <time>2013-03-24T13:06:11Z</time>
      </trkpt>
      <trkpt lat="43.86548" lon="7.23236">
        <ele>613.46</ele>
        <time>2013-03-24T13:06:19Z</time>
      </trkpt>
      <trkpt lat="43.86548" lon="7.23232">
        <ele>612.98</ele>
        <time>2013-03-24T13:06:21Z</time>
      </trkpt>
      <trkpt lat="43.86578" lon="7.23216">
        <ele>604.81</ele>
        <time>2013-03-24T13:06:33Z</time>
      </trkpt>
      <trkpt lat="43.86598" lon="7.23209">
        <ele>600</ele>
        <time>2013-03-24T13:06:40Z</time>
      </trkpt>
      <trkpt lat="43.8661" lon="7.23213">
        <ele>597.12</ele>
        <time>2013-03-24T13:06:46Z</time>
      </trkpt>
      <trkpt lat="43.86616" lon="7.23215">
        <ele>597.12</ele>
        <time>2013-03-24T13:06:56Z</time>
      </trkpt>
      <trkpt lat="43.86622" lon="7.23212">
        <ele>602.4</ele>
        <time>2013-03-24T13:07:09Z</time>
      </trkpt>
      <trkpt lat="43.86627" lon="7.23204">
        <ele>604.33</ele>
        <time>2013-03-24T13:07:14Z</time>
      </trkpt>
      <trkpt lat="43.86643" lon="7.23181">
        <ele>611.06</ele>
        <time>2013-03-24T13:07:28Z</time>
      </trkpt>
      <trkpt lat="43.86658" lon="7.23151">
        <ele>615.38</ele>
        <time>2013-03-24T13:07:39Z</time>
      </trkpt>
      <trkpt lat="43.86674" lon="7.23113">
        <ele>613.94</ele>
        <time>2013-03-24T13:07:49Z</time>
      </trkpt>
      <trkpt lat="43.86696" lon="7.2309">
        <ele>612.02</ele>
        <time>2013-03-24T13:08:00Z</time>
      </trkpt>
      <trkpt lat="43.86727" lon="7.23072">
        <ele>607.21</ele>
        <time>2013-03-24T13:08:10Z</time>
      </trkpt>
      <trkpt lat="43.86751" lon="7.23039">
        <ele>600</ele>
        <time>2013-03-24T13:08:20Z</time>
      </trkpt>
      <trkpt lat="43.86773" lon="7.23014">
        <ele>593.27</ele>
        <time>2013-03-24T13:08:29Z</time>
      </trkpt>
      <trkpt lat="43.86787" lon="7.22999">
        <ele>590.39</ele>
        <time>2013-03-24T13:08:35Z</time>
      </trkpt>
      <trkpt lat="43.86805" lon="7.22993">
        <ele>587.98</ele>
        <time>2013-03-24T13:08:39Z</time>
      </trkpt>
      <trkpt lat="43.86846" lon="7.22976">
        <ele>585.58</ele>
        <time>2013-03-24T13:08:50Z</time>
      </trkpt>
      <trkpt lat="43.86859" lon="7.22971">
        <ele>584.62</ele>
        <time>2013-03-24T13:08:55Z</time>
      </trkpt>
      <trkpt lat="43.86893" lon="7.22962">
        <ele>581.25</ele>
        <time>2013-03-24T13:09:05Z</time>
      </trkpt>
      <trkpt lat="43.8692" lon="7.2296">
        <ele>582.7</ele>
        <time>2013-03-24T13:09:16Z</time>
      </trkpt>
      <trkpt lat="43.86932" lon="7.2296">
        <ele>583.66</ele>
        <time>2013-03-24T13:09:20Z</time>
      </trkpt>
      <trkpt lat="43.86951" lon="7.22939">
        <ele>584.14</ele>
        <time>2013-03-24T13:09:30Z</time>
      </trkpt>
      <trkpt lat="43.86954" lon="7.22923">
        <ele>580.77</ele>
        <time>2013-03-24T13:09:34Z</time>
      </trkpt>
      <trkpt lat="43.8696" lon="7.22903">
        <ele>576.45</ele>
        <time>2013-03-24T13:09:39Z</time>
      </trkpt>
      <trkpt lat="43.86954" lon="7.22896">
        <ele>573.56</ele>
        <time>2013-03-24T13:09:45Z</time>
      </trkpt>
      <trkpt lat="43.86949" lon="7.22901">
        <ele>572.6</ele>
        <time>2013-03-24T13:09:48Z</time>
      </trkpt>
      <trkpt lat="43.86934" lon="7.22923">
        <ele>570.2</ele>
        <time>2013-03-24T13:09:53Z</time>
      </trkpt>
      <trkpt lat="43.86906" lon="7.22928">
        <ele>564.91</ele>
        <time>2013-03-24T13:10:05Z</time>
      </trkpt>
      <trkpt lat="43.86892" lon="7.22925">
        <ele>563.47</ele>
        <time>2013-03-24T13:10:11Z</time>
      </trkpt>
      <trkpt lat="43.86875" lon="7.22919">
        <ele>562.99</ele>
        <time>2013-03-24T13:10:22Z</time>
      </trkpt>
      <trkpt lat="43.86863" lon="7.22916">
        <ele>562.51</ele>
        <time>2013-03-24T13:10:36Z</time>
      </trkpt>
      <trkpt lat="43.86859" lon="7.22915">
        <ele>560.59</ele>
        <time>2013-03-24T13:10:42Z</time>
      </trkpt>
      <trkpt lat="43.86852" lon="7.22914">
        <ele>559.14</ele>
        <time>2013-03-24T13:10:46Z</time>
      </trkpt>
      <trkpt lat="43.86823" lon="7.22929">
        <ele>556.26</ele>
        <time>2013-03-24T13:10:59Z</time>
      </trkpt>
      <trkpt lat="43.86814" lon="7.22929">
        <ele>555.3</ele>
        <time>2013-03-24T13:11:03Z</time>
      </trkpt>
      <trkpt lat="43.86811" lon="7.22929">
        <ele>553.86</ele>
        <time>2013-03-24T13:11:06Z</time>
      </trkpt>
      <trkpt lat="43.86804" lon="7.22926">
        <ele>552.9</ele>
        <time>2013-03-24T13:11:10Z</time>
      </trkpt>
      <trkpt lat="43.86777" lon="7.22915">
        <ele>551.45</ele>
        <time>2013-03-24T13:11:20Z</time>
      </trkpt>
      <trkpt lat="43.8675" lon="7.2292">
        <ele>549.05</ele>
        <time>2013-03-24T13:11:30Z</time>
      </trkpt>
      <trkpt lat="43.86734" lon="7.22912">
        <ele>546.65</ele>
        <time>2013-03-24T13:11:37Z</time>
      </trkpt>
      <trkpt lat="43.86706" lon="7.2294">
        <ele>539.44</ele>
        <time>2013-03-24T13:11:47Z</time>
      </trkpt>
      <trkpt lat="43.86704" lon="7.22941">
        <ele>538.96</ele>
        <time>2013-03-24T13:11:48Z</time>
      </trkpt>
      <trkpt lat="43.86696" lon="7.22934">
        <ele>538.48</ele>
        <time>2013-03-24T13:11:52Z</time>
      </trkpt>
      <trkpt lat="43.86693" lon="7.22929">
        <ele>539.44</ele>
        <time>2013-03-24T13:11:56Z</time>
      </trkpt>
      <trkpt lat="43.86684" lon="7.2292">
        <ele>539.92</ele>
        <time>2013-03-24T13:12:02Z</time>
      </trkpt>
      <trkpt lat="43.86655" lon="7.22894">
        <ele>538.96</ele>
        <time>2013-03-24T13:12:12Z</time>
      </trkpt>
      <trkpt lat="43.8665" lon="7.22892">
        <ele>537.99</ele>
        <time>2013-03-24T13:12:13Z</time>
      </trkpt>
      <trkpt lat="43.86619" lon="7.22899">
        <ele>532.71</ele>
        <time>2013-03-24T13:12:21Z</time>
      </trkpt>
      <trkpt lat="43.86609" lon="7.22902">
        <ele>528.86</ele>
        <time>2013-03-24T13:12:26Z</time>
      </trkpt>
      <trkpt lat="43.86595" lon="7.22924">
        <ele>525.02</ele>
        <time>2013-03-24T13:12:36Z</time>
      </trkpt>
      <trkpt lat="43.86583" lon="7.22919">
        <ele>525.5</ele>
        <time>2013-03-24T13:12:43Z</time>
      </trkpt>
      <trkpt lat="43.86573" lon="7.22919">
        <ele>526.94</ele>
        <time>2013-03-24T13:12:50Z</time>
      </trkpt>
      <trkpt lat="43.86572" lon="7.229">
        <ele>528.86</ele>
        <time>2013-03-24T13:13:02Z</time>
      </trkpt>
      <trkpt lat="43.86572" lon="7.22897">
        <ele>529.34</ele>
        <time>2013-03-24T13:13:05Z</time>
      </trkpt>
      <trkpt lat="43.86573" lon="7.22876">
        <ele>533.67</ele>
        <time>2013-03-24T13:13:21Z</time>
      </trkpt>
      <trkpt lat="43.86574" lon="7.22857">
        <ele>537.99</ele>
        <time>2013-03-24T13:13:36Z</time>
      </trkpt>
      <trkpt lat="43.86575" lon="7.22844">
        <ele>544.72</ele>
        <time>2013-03-24T13:13:49Z</time>
      </trkpt>
      <trkpt lat="43.86574" lon="7.22822">
        <ele>549.05</ele>
        <time>2013-03-24T13:14:02Z</time>
      </trkpt>
      <trkpt lat="43.86574" lon="7.22806">
        <ele>551.93</ele>
        <time>2013-03-24T13:14:15Z</time>
      </trkpt>
      <trkpt lat="43.86576" lon="7.22789">
        <ele>552.9</ele>
        <time>2013-03-24T13:14:28Z</time>
      </trkpt>
      <trkpt lat="43.86576" lon="7.22781">
        <ele>553.38</ele>
        <time>2013-03-24T13:14:33Z</time>
      </trkpt>
      <trkpt lat="43.86566" lon="7.22768">
        <ele>554.82</ele>
        <time>2013-03-24T13:14:48Z</time>
      </trkpt>
      <trkpt lat="43.86548" lon="7.22769">
        <ele>551.93</ele>
        <time>2013-03-24T13:15:03Z</time>
      </trkpt>
      <trkpt lat="43.86514" lon="7.2277">
        <ele>548.09</ele>
        <time>2013-03-24T13:15:17Z</time>
      </trkpt>
      <trkpt lat="43.86471" lon="7.22778">
        <ele>547.61</ele>
        <time>2013-03-24T13:15:34Z</time>
      </trkpt>
      <trkpt lat="43.86444" lon="7.22785">
        <ele>546.65</ele>
        <time>2013-03-24T13:15:48Z</time>
      </trkpt>
      <trkpt lat="43.86399" lon="7.22794">
        <ele>547.61</ele>
        <time>2013-03-24T13:16:03Z</time>
      </trkpt>
      <trkpt lat="43.86381" lon="7.22798">
        <ele>547.13</ele>
        <time>2013-03-24T13:16:10Z</time>
      </trkpt>
      <trkpt lat="43.86377" lon="7.22801">
        <ele>547.13</ele>
        <time>2013-03-24T13:16:20Z</time>
      </trkpt>
      <trkpt lat="43.8637" lon="7.2281">
        <ele>548.57</ele>
        <time>2013-03-24T13:16:32Z</time>
      </trkpt>
      <trkpt lat="43.86364" lon="7.2282">
        <ele>549.05</ele>
        <time>2013-03-24T13:16:45Z</time>
      </trkpt>
      <trkpt lat="43.86363" lon="7.22821">
        <ele>549.05</ele>
        <time>2013-03-24T13:16:46Z</time>
      </trkpt>
      <trkpt lat="43.86358" lon="7.22826">
        <ele>549.53</ele>
        <time>2013-03-24T13:16:55Z</time>
      </trkpt>
      <trkpt lat="43.86337" lon="7.22834">
        <ele>545.69</ele>
        <time>2013-03-24T13:17:06Z</time>
      </trkpt>
      <trkpt lat="43.86329" lon="7.22837">
        <ele>544.24</ele>
        <time>2013-03-24T13:17:09Z</time>
      </trkpt>
      <trkpt lat="43.8632" lon="7.22845">
        <ele>540.4</ele>
        <time>2013-03-24T13:17:19Z</time>
      </trkpt>
      <trkpt lat="43.86309" lon="7.22856">
        <ele>537.99</ele>
        <time>2013-03-24T13:17:30Z</time>
      </trkpt>
      <trkpt lat="43.86303" lon="7.22867">
        <ele>540.4</ele>
        <time>2013-03-24T13:17:44Z</time>
      </trkpt>
      <trkpt lat="43.863" lon="7.22873">
        <ele>541.36</ele>
        <time>2013-03-24T13:17:49Z</time>
      </trkpt>
      <trkpt lat="43.86298" lon="7.22881">
        <ele>543.28</ele>
        <time>2013-03-24T13:17:56Z</time>
      </trkpt>
      <trkpt lat="43.86291" lon="7.22894">
        <ele>548.09</ele>
        <time>2013-03-24T13:18:10Z</time>
      </trkpt>
      <trkpt lat="43.86283" lon="7.22916">
        <ele>550.49</ele>
        <time>2013-03-24T13:18:26Z</time>
      </trkpt>
      <trkpt lat="43.86281" lon="7.22936">
        <ele>550.97</ele>
        <time>2013-03-24T13:18:41Z</time>
      </trkpt>
      <trkpt lat="43.86281" lon="7.22944">
        <ele>551.45</ele>
        <time>2013-03-24T13:18:46Z</time>
      </trkpt>
      <trkpt lat="43.86281" lon="7.2295">
        <ele>551.93</ele>
        <time>2013-03-24T13:18:50Z</time>
      </trkpt>
      <trkpt lat="43.8628" lon="7.22958">
        <ele>552.41</ele>
        <time>2013-03-24T13:18:57Z</time>
      </trkpt>
      <trkpt lat="43.86268" lon="7.22977">
        <ele>550.49</ele>
        <time>2013-03-24T13:19:05Z</time>
      </trkpt>
      <trkpt lat="43.86258" lon="7.22986">
        <ele>550.01</ele>
        <time>2013-03-24T13:19:10Z</time>
      </trkpt>
      <trkpt lat="43.86251" lon="7.22989">
        <ele>548.57</ele>
        <time>2013-03-24T13:19:13Z</time>
      </trkpt>
      <trkpt lat="43.86238" lon="7.22974">
        <ele>543.76</ele>
        <time>2013-03-24T13:19:21Z</time>
      </trkpt>
      <trkpt lat="43.86235" lon="7.2297">
        <ele>542.32</ele>
        <time>2013-03-24T13:19:24Z</time>
      </trkpt>
      <trkpt lat="43.8623" lon="7.22966">
        <ele>537.99</ele>
        <time>2013-03-24T13:19:30Z</time>
      </trkpt>
      <trkpt lat="43.86221" lon="7.22967">
        <ele>534.63</ele>
        <time>2013-03-24T13:19:36Z</time>
      </trkpt>
      <trkpt lat="43.86218" lon="7.22971">
        <ele>532.71</ele>
        <time>2013-03-24T13:19:48Z</time>
      </trkpt>
      <trkpt lat="43.86216" lon="7.22973">
        <ele>532.23</ele>
        <time>2013-03-24T13:19:51Z</time>
      </trkpt>
      <trkpt lat="43.86212" lon="7.22996">
        <ele>530.3</ele>
        <time>2013-03-24T13:20:00Z</time>
      </trkpt>
      <trkpt lat="43.8621" lon="7.2301">
        <ele>529.82</ele>
        <time>2013-03-24T13:20:04Z</time>
      </trkpt>
      <trkpt lat="43.86181" lon="7.23015">
        <ele>525.02</ele>
        <time>2013-03-24T13:20:12Z</time>
      </trkpt>
      <trkpt lat="43.86164" lon="7.23015">
        <ele>523.09</ele>
        <time>2013-03-24T13:20:15Z</time>
      </trkpt>
      <trkpt lat="43.86152" lon="7.23014">
        <ele>522.61</ele>
        <time>2013-03-24T13:20:18Z</time>
      </trkpt>
      <trkpt lat="43.86144" lon="7.23028">
        <ele>524.06</ele>
        <time>2013-03-24T13:20:23Z</time>
      </trkpt>
      <trkpt lat="43.86132" lon="7.23031">
        <ele>525.5</ele>
        <time>2013-03-24T13:20:28Z</time>
      </trkpt>
      <trkpt lat="43.86103" lon="7.23039">
        <ele>524.54</ele>
        <time>2013-03-24T13:20:40Z</time>
      </trkpt>
      <trkpt lat="43.86104" lon="7.2304">
        <ele>523.09</ele>
        <time>2013-03-24T13:21:02Z</time>
      </trkpt>
      <trkpt lat="43.86104" lon="7.23038">
        <ele>525.02</ele>
        <time>2013-03-24T13:21:18Z</time>
      </trkpt>
      <trkpt lat="43.86094" lon="7.23045">
        <ele>527.9</ele>
        <time>2013-03-24T13:21:36Z</time>
      </trkpt>
      <trkpt lat="43.86091" lon="7.23047">
        <ele>527.9</ele>
        <time>2013-03-24T13:21:39Z</time>
      </trkpt>
      <trkpt lat="43.86083" lon="7.23046">
        <ele>526.94</ele>
        <time>2013-03-24T13:21:46Z</time>
      </trkpt>
      <trkpt lat="43.8608" lon="7.23043">
        <ele>527.42</ele>
        <time>2013-03-24T13:21:49Z</time>
      </trkpt>
      <trkpt lat="43.86079" lon="7.23018">
        <ele>529.82</ele>
        <time>2013-03-24T13:22:06Z</time>
      </trkpt>
      <trkpt lat="43.86075" lon="7.23005">
        <ele>537.99</ele>
        <time>2013-03-24T13:22:22Z</time>
      </trkpt>
      <trkpt lat="43.8607" lon="7.22998">
        <ele>543.76</ele>
        <time>2013-03-24T13:23:00Z</time>
      </trkpt>
      <trkpt lat="43.86072" lon="7.22997">
        <ele>539.92</ele>
        <time>2013-03-24T13:23:19Z</time>
      </trkpt>
      <trkpt lat="43.86077" lon="7.22986">
        <ele>540.88</ele>
        <time>2013-03-24T13:23:32Z</time>
      </trkpt>
      <trkpt lat="43.86079" lon="7.22979">
        <ele>538.48</ele>
        <time>2013-03-24T13:23:46Z</time>
      </trkpt>
      <trkpt lat="43.86082" lon="7.22978">
        <ele>536.55</ele>
        <time>2013-03-24T13:23:59Z</time>
      </trkpt>
      <trkpt lat="43.86082" lon="7.22979">
        <ele>530.3</ele>
        <time>2013-03-24T13:24:13Z</time>
      </trkpt>
      <trkpt lat="43.86082" lon="7.22979">
        <ele>519.73</ele>
        <time>2013-03-24T13:24:53Z</time>
      </trkpt>
      <trkpt lat="43.86082" lon="7.22982">
        <ele>515.88</ele>
        <time>2013-03-24T13:25:25Z</time>
      </trkpt>
      <trkpt lat="43.86083" lon="7.22982">
        <ele>515.88</ele>
        <time>2013-03-24T13:25:26Z</time>
      </trkpt>
    </trkseg>
  </trk>
</gpx>